GFSMA_850_spd_000.txt.gz
Wind_Speed
5 3 3 2 4 8 11 12 15 16 16 18 20 22 24 24 22 21 18 16 15 13 8 7 7 8 7 5 3 6 9 9 8 10 12 12 14 17 19 21 23 24 25
5 4 4 4 8 11 13 13 16 19 22 23 24 23 21 19 16 13 11 10 8 7 8 8 9 8 7 9 9 9 11 13 14 15 17 18 19 20 21 20 20 22 25
5 3 4 8 10 9 12 16 20 22 23 22 19 16 14 13 12 9 8 8 8 9 10 10 12 12 13 13 13 15 17 19 19 18 19 23 23 23 23 24 24 23 23
5 5 6 7 7 11 15 18 20 20 19 17 14 11 13 12 11 9 8 10 11 12 12 13 14 15 16 17 18 19 20 22 23 24 26 28 28 27 25 25 25 26 27
6 7 5 6 9 12 15 17 17 17 17 15 14 11 12 10 10 10 10 8 10 11 13 14 14 17 19 20 21 21 23 24 24 21 18 21 23 19 20 21 23 26 29
7 5 4 7 10 13 15 15 15 16 18 19 17 15 8 8 9 11 17 12 16 14 21 18 18 22 21 23 24 25 26 27 25 15 23 19 15 15 16 16 17 17 19
8 3 4 8 12 16 19 19 17 16 18 22 23 20 9 4 12 13 9 17 20 18 21 21 27 25 27 27 28 29 29 29 24 17 21 17 17 17 19 20 19 21 22
6 2 4 9 15 18 19 19 18 18 19 23 23 19 11 10 2 11 23 19 24 19 27 23 27 28 28 29 30 32 33 33 29 24 18 18 18 20 22 23 24 25 26
6 2 6 11 14 18 19 19 19 19 18 17 19 15 9 7 31 8 27 17 31 28 34 32 32 31 30 32 34 35 34 32 27 21 19 20 23 25 26 28 29 29 30
6 3 7 10 14 17 18 18 18 18 18 18 17 16 15 16 13 18 17 38 34 41 40 39 37 38 34 33 33 34 32 27 22 22 24 26 27 30 33 33 33 32 32
5 5 7 11 14 16 17 17 17 17 18 19 20 21 20 19 18 20 35 41 45 44 42 44 41 36 34 31 29 27 26 24 24 26 27 31 34 35 34 34 35 35 35
6 6 8 11 14 16 17 17 17 17 19 20 20 20 20 21 22 22 33 43 43 44 48 41 40 34 33 27 26 30 28 26 29 30 34 35 35 35 36 36 37 37 37
7 7 9 12 14 16 17 17 17 18 20 21 21 21 21 21 22 25 31 40 46 53 34 43 35 30 29 25 31 28 31 31 34 35 35 36 36 36 36 37 38 39 41
8 8 10 13 15 17 18 18 19 20 20 21 21 22 23 23 24 25 29 34 45 31 39 33 31 19 25 28 28 30 33 33 35 37 36 37 37 37 37 39 40 41 42
9 10 12 14 17 18 19 19 20 20 21 21 23 24 26 26 27 28 29 28 28 31 44 30 23 42 37 34 32 32 34 33 33 36 38 37 37 39 42 43 45 46 46
11 12 14 16 18 19 19 20 20 21 22 23 26 27 28 28 29 29 29 28 26 29 36 44 44 41 38 40 37 32 34 34 37 34 31 34 41 46 46 47 45 42 40
12 13 16 17 18 19 20 20 21 23 25 27 27 29 30 29 30 28 29 28 28 28 35 49 43 44 47 42 40 38 39 36 35 32 38 43 43 41 41 42 41 40 39
13 15 16 18 19 19 21 22 23 26 28 29 30 30 31 29 29 28 27 28 29 28 31 40 46 48 44 44 42 44 43 37 42 40 38 40 41 42 38 36 36 37 37
14 15 17 18 19 20 22 24 26 28 29 30 30 31 31 30 30 28 27 29 29 30 31 37 46 45 45 40 43 39 43 41 38 37 38 36 36 35 34 36 39 39 39
14 16 17 18 20 21 23 26 28 29 30 30 29 29 29 27 26 24 26 26 29 34 35 38 41 43 37 33 41 40 42 40 41 38 42 40 35 35 36 36 36 37 38
14 16 17 19 21 23 25 28 28 29 30 30 29 26 25 22 21 22 25 31 32 32 38 39 30 32 42 41 40 43 43 44 44 40 43 42 39 41 45 40 37 35 33
14 16 18 20 22 25 27 29 30 27 29 29 27 25 23 24 26 27 30 25 28 30 27 39 40 40 40 42 44 42 41 44 49 39 35 51 43 45 44 43 37 32 34
15 17 20 22 25 28 29 30 28 26 28 26 25 27 26 27 30 31 28 35 23 32 34 35 38 37 40 40 40 46 44 43 45 48 42 47 45 47 45 44 39 35 35
16 18 21 25 27 28 29 29 27 25 25 24 26 26 29 33 30 30 33 34 40 42 40 31 31 35 36 40 39 38 40 43 46 45 34 40 46 46 46 46 43 36 34
17 20 24 26 28 27 28 29 25 23 23 26 26 28 32 28 32 30 32 38 39 40 30 31 30 36 36 31 28 30 36 39 42 44 42 37 40 44 48 47 34 31 31
20 23 24 25 26 27 28 25 21 21 25 27 28 32 31 29 29 28 33 35 38 32 34 36 40 34 29 27 29 28 32 36 39 43 39 38 43 38 34 37 36 43 40

GFSMA_850_spd_003.txt.gz
Wind_Speed
5 5 5 2 4 6 10 13 14 17 19 19 21 21 22 21 19 17 14 13 10 10 10 11 11 8 4 5 7 7 10 12 12 12 14 14 14 15 16 19 20 22 24
5 5 5 5 7 9 12 13 16 19 21 21 20 19 17 16 14 11 9 8 7 8 9 10 10 10 11 10 10 12 13 14 14 15 17 20 20 21 21 22 23 23 24
8 8 6 7 8 9 12 16 19 21 20 18 16 15 13 13 12 9 7 7 8 9 11 12 13 14 15 16 17 18 18 20 20 20 22 24 24 25 25 26 26 27 28
8 7 8 7 6 9 14 18 19 19 18 15 11 11 11 11 10 8 5 5 7 9 10 12 14 15 16 17 19 21 21 24 25 26 27 29 30 30 29 29 29 29 29
9 9 7 5 7 11 14 16 17 16 15 12 11 11 11 9 8 9 8 8 9 10 13 14 15 17 19 20 21 22 23 25 25 24 22 22 27 26 23 21 21 23 25
7 8 6 4 6 10 13 14 15 16 17 17 14 13 6 5 5 8 10 14 15 16 17 19 20 23 24 26 27 27 28 29 29 27 16 21 22 18 17 18 19 19 20
10 9 4 3 7 11 14 16 17 17 18 19 18 12 7 2 7 7 7 18 14 16 17 22 25 27 27 26 27 29 31 32 31 29 20 20 20 19 20 20 21 22 22
13 8 3 5 9 14 16 17 18 19 20 20 20 13 8 6 3 19 11 19 11 19 19 24 24 25 26 28 29 30 31 32 32 28 22 22 21 21 23 25 26 26 27
12 7 3 6 10 13 16 19 19 18 17 18 19 14 7 4 25 5 20 10 26 26 30 30 29 31 27 28 29 29 30 32 31 24 21 22 23 25 28 30 32 33 34
12 7 5 7 10 14 17 19 20 19 18 16 17 16 14 13 8 12 12 27 29 35 35 32 36 29 31 27 28 27 28 28 21 21 23 25 27 29 32 35 38 39 38
13 7 5 7 10 14 17 19 19 18 18 18 18 17 15 16 15 18 24 33 38 36 34 41 29 35 31 27 28 27 25 26 25 24 26 30 31 34 38 39 40 40 40
12 7 6 8 11 14 17 19 19 18 18 18 18 17 18 17 19 20 20 30 29 26 43 28 37 31 31 26 27 32 29 24 25 28 31 34 36 37 38 39 39 40 38
11 7 7 9 12 15 17 18 18 18 17 17 17 18 20 21 23 24 28 31 31 36 16 22 20 26 18 25 32 26 27 28 30 31 33 35 38 39 39 39 40 38 37
10 8 9 10 13 16 17 18 18 18 18 18 18 20 21 22 23 25 26 30 38 25 24 23 16 13 24 28 27 27 25 26 28 31 33 36 39 41 41 39 38 39 42
10 9 10 12 14 16 18 19 18 18 17 18 20 22 23 24 25 25 26 28 27 30 40 26 14 32 27 26 26 27 26 27 29 31 33 37 39 39 38 38 43 45 46
10 10 11 13 15 17 18 19 18 17 18 20 22 24 25 26 26 26 27 27 27 26 34 38 39 33 30 28 28 27 28 31 33 33 35 36 38 40 44 46 47 46 45
11 10 12 14 15 17 18 18 17 18 20 22 24 26 26 27 28 27 26 26 28 27 36 49 38 38 32 31 31 30 29 31 34 38 39 42 41 40 40 42 44 44 43
11 11 13 14 15 17 18 18 18 20 23 25 27 27 28 28 27 25 24 25 26 26 30 42 41 39 36 35 32 33 34 37 38 36 35 34 37 39 38 39 40 39 40
10 11 12 14 16 17 19 19 20 23 25 27 27 28 27 25 24 23 22 24 25 27 28 34 42 43 38 31 33 40 37 38 33 33 33 33 34 35 36 37 38 39 39
10 11 12 15 17 18 18 21 23 25 27 28 28 26 23 22 23 23 24 24 25 30 32 35 37 32 35 40 37 38 39 37 37 36 38 35 34 36 37 38 39 38 38
10 11 13 16 17 18 20 23 25 27 28 28 26 23 22 22 21 21 24 28 29 28 37 26 35 37 38 37 35 36 38 41 41 36 39 34 39 43 43 39 37 35 34
10 12 15 17 18 20 23 25 27 27 27 26 25 23 23 23 25 26 26 23 23 32 29 34 36 35 35 32 37 36 38 41 46 32 31 48 44 43 42 41 36 35 36
11 14 16 17 20 22 24 26 26 26 25 25 24 24 24 25 27 27 27 28 24 31 34 34 33 29 33 34 37 42 40 39 40 44 41 44 45 43 42 43 38 36 36
12 15 17 19 22 24 25 26 26 25 24 22 22 23 24 28 26 27 32 30 35 36 32 28 27 32 31 37 35 32 35 37 40 43 31 41 45 43 44 47 39 31 31
13 15 18 21 22 23 24 25 24 23 22 22 22 22 26 24 27 27 28 35 31 32 27 29 28 33 35 28 25 26 31 33 39 43 38 31 34 43 46 44 26 29 30
14 17 18 20 21 22 23 23 20 19 21 23 22 23 26 26 26 25 30 30 31 29 32 32 37 32 26 23 23 25 30 32 34 38 28 33 38 33 33 24 31 46 38

GFSMA_850_spd_006.txt.gz
Wind_Speed
8 8 7 5 5 7 9 11 13 16 18 20 21 21 20 17 13 10 7 8 7 7 9 10 9 11 11 10 11 12 13 15 14 14 15 16 15 15 15 16 18 20 22
9 6 7 5 7 8 10 12 16 19 20 21 20 19 17 14 11 8 6 8 6 7 9 11 12 12 12 13 15 16 16 17 17 17 17 19 20 21 21 22 23 23 24
8 7 8 6 8 8 10 15 18 19 19 18 16 15 14 11 10 7 6 6 7 8 11 12 13 14 15 17 18 20 20 22 23 23 23 23 25 26 25 25 26 26 27
10 8 8 8 8 7 11 15 16 17 17 15 13 12 13 12 8 6 5 4 5 8 10 11 13 15 16 18 19 21 21 23 25 26 26 25 25 24 30 29 30 30 31
10 10 10 8 5 6 10 13 16 16 15 13 12 12 11 6 6 5 5 7 11 14 14 16 17 19 20 22 22 24 25 25 27 27 27 25 23 29 28 27 23 24 24
12 11 10 7 3 5 10 13 15 17 16 15 11 9 6 4 6 6 6 11 11 14 15 17 21 23 24 23 23 24 26 27 28 29 28 26 20 22 24 22 22 22 22
14 12 10 6 1 5 9 13 16 17 17 16 13 6 5 4 5 5 6 9 14 13 17 19 24 23 24 26 26 25 26 27 28 29 28 26 22 24 23 24 25 25 26
16 14 10 5 2 6 11 14 16 17 17 16 14 7 5 3 0 11 14 16 4 19 17 23 23 23 26 24 25 26 26 27 28 28 27 24 23 24 24 25 27 30 31
18 15 10 4 3 7 11 15 16 16 14 15 13 7 4 3 15 4 12 11 18 21 25 25 23 28 23 27 24 26 27 28 28 26 23 23 24 25 27 29 31 33 35
20 15 9 4 4 8 12 14 17 16 13 12 11 12 8 8 5 10 9 14 16 21 21 21 25 24 25 21 25 25 27 27 29 29 28 28 27 29 31 33 35 37 38
21 15 9 5 4 7 11 14 16 16 14 13 12 12 11 10 8 9 20 16 21 20 20 21 23 18 17 20 19 18 26 31 26 26 27 28 31 33 36 38 41 42 40
23 16 9 6 5 7 11 13 15 16 15 14 13 12 12 10 10 12 19 23 25 23 24 22 17 18 20 21 19 27 27 27 28 28 28 30 32 34 36 38 40 40 41
22 15 9 6 6 7 10 13 15 16 15 14 13 13 15 16 17 17 18 24 25 26 20 17 17 21 19 18 26 27 30 28 28 27 29 30 32 34 36 38 40 41 43
20 14 9 7 7 8 11 13 15 15 15 14 15 16 17 18 20 20 19 21 30 23 24 21 20 18 17 25 27 27 26 27 27 28 30 32 33 35 36 37 38 40 40
17 13 10 8 8 9 11 13 15 15 15 15 16 18 19 20 21 21 20 18 22 30 32 19 11 23 25 26 27 27 27 28 29 32 32 33 34 36 39 39 41 41 42
16 13 10 8 9 10 12 14 15 15 15 17 18 20 21 21 22 21 20 19 20 25 35 27 29 28 27 28 27 27 29 31 32 32 33 35 36 38 39 39 39 39 40
15 12 10 9 9 11 13 14 15 16 17 19 20 22 23 23 22 19 18 19 20 22 33 38 31 30 31 29 30 28 29 30 33 37 37 36 35 36 36 37 38 39 40
14 12 10 9 10 12 13 15 16 17 19 21 22 24 24 22 22 19 18 19 21 23 28 39 37 36 33 31 29 31 34 36 34 33 34 35 35 35 35 35 37 38 40
13 10 9 9 11 13 15 16 16 19 21 22 23 23 23 22 20 17 19 21 22 25 28 35 41 39 37 30 37 39 32 31 28 30 32 33 35 35 34 34 36 39 40
11 9 8 10 12 14 16 17 18 20 21 22 23 22 22 21 18 19 21 23 25 28 31 34 37 38 30 39 38 35 34 33 33 32 37 33 33 33 33 37 39 39 38
9 8 9 11 13 15 16 17 19 20 21 21 21 21 19 19 23 20 22 24 26 29 31 37 28 36 40 37 34 33 35 38 42 32 37 31 34 42 41 37 36 35 34
7 8 10 13 15 15 18 20 21 21 20 20 20 20 19 20 20 22 24 24 25 29 37 31 37 36 35 32 34 36 37 40 42 30 30 47 38 42 41 40 36 36 36
8 10 12 14 15 17 19 20 21 21 19 20 20 19 19 19 21 23 24 24 29 23 30 34 31 31 33 33 38 39 41 35 38 42 38 47 38 41 41 41 37 35 33
9 11 13 14 17 18 19 21 22 20 19 17 17 18 19 20 20 23 27 29 27 30 25 25 26 32 34 33 35 34 34 37 37 35 30 40 41 38 41 45 31 24 28
10 11 13 15 17 18 20 22 22 20 16 17 17 19 20 20 21 25 26 32 29 27 24 24 28 28 32 31 26 27 30 32 38 36 31 29 31 41 44 36 22 25 30
10 12 14 16 17 18 21 22 22 17 16 17 18 19 19 20 25 24 28 28 30 27 27 31 28 26 23 22 21 20 27 30 33 36 24 27 36 29 31 25 29 41 38

GFSMA_850_spd_009.txt.gz
Wind_Speed
8 11 9 5 4 5 6 9 10 12 15 17 15 14 11 10 6 5 10 8 6 7 8 8 10 10 11 12 14 14 14 14 15 15 15 15 16 15 15 14 14 16 16
13 12 9 5 6 7 8 9 12 15 15 16 13 11 10 8 6 4 4 9 7 8 9 10 12 12 13 14 17 18 19 19 20 20 19 20 21 21 20 20 20 21 22
15 10 8 8 8 8 7 10 13 14 15 14 11 9 9 8 6 4 4 4 8 8 10 11 13 13 14 16 18 19 21 22 22 23 23 23 23 25 26 27 27 27 27
11 10 9 8 8 6 7 10 12 13 14 13 12 9 8 10 5 3 3 2 7 6 12 11 13 15 16 18 19 20 22 24 25 25 25 25 25 23 25 27 26 26 27
12 10 10 10 8 4 5 9 12 13 13 12 11 10 9 4 4 4 2 5 10 11 11 16 16 18 19 19 19 20 22 23 24 26 25 26 26 25 19 22 25 26 25
16 14 12 10 6 3 5 8 11 13 13 12 9 7 6 3 5 4 4 5 11 13 13 14 17 18 21 23 24 24 23 24 25 25 27 26 25 24 21 23 22 22 23
18 15 13 11 6 1 4 8 12 13 13 12 8 5 4 6 3 5 7 7 9 11 12 13 20 20 21 23 24 23 24 24 24 25 26 25 24 23 21 22 24 24 24
20 17 14 11 6 1 4 8 11 12 14 13 11 6 3 2 2 5 14 8 9 12 16 21 22 20 22 23 21 23 23 25 25 25 24 23 22 21 22 24 25 25 26
23 19 15 11 6 1 4 8 11 12 12 12 10 5 3 3 13 6 7 13 10 19 20 25 23 21 26 21 23 22 24 26 26 26 27 27 26 26 26 27 28 29 30
24 20 16 12 6 1 4 8 11 12 12 10 8 8 3 6 3 9 5 13 16 18 23 23 25 27 21 22 23 23 25 28 31 32 28 27 27 27 28 30 31 33 34
24 21 17 12 6 2 5 8 11 13 13 10 9 8 7 7 8 10 20 13 22 19 21 18 24 23 19 18 24 18 21 29 28 28 28 28 28 29 30 32 34 35 37
27 23 18 12 6 4 6 8 11 13 13 12 10 10 8 8 8 11 17 24 25 26 21 25 19 19 22 23 23 22 30 27 29 27 27 28 28 29 31 32 33 35 35
28 24 19 12 7 5 7 9 11 13 14 13 12 10 12 12 13 16 18 24 26 29 23 17 22 19 24 22 22 28 32 28 28 28 29 29 30 32 33 34 34 35 36
28 23 18 12 8 7 8 10 12 13 14 13 13 13 14 15 16 18 20 22 28 24 25 19 26 16 20 23 29 28 31 29 29 30 31 33 34 34 35 36 37 37 38
25 22 17 12 8 7 9 10 12 14 14 14 14 14 16 17 19 21 22 21 21 26 28 20 19 13 29 29 29 30 31 30 30 33 34 34 35 35 36 37 38 38 38
24 20 15 11 9 8 9 11 13 14 14 14 15 16 19 20 21 22 21 20 21 25 32 27 29 27 28 30 32 28 32 30 30 34 35 35 36 37 37 37 37 38 38
22 18 14 10 9 9 10 12 13 14 15 15 17 19 21 22 22 21 21 21 22 22 30 34 30 29 31 31 33 31 32 36 38 37 35 33 34 35 35 35 36 37 38
20 16 12 9 8 9 11 13 14 16 16 17 19 21 22 18 22 21 19 19 22 24 28 34 33 34 31 34 31 34 31 37 34 34 30 34 35 35 36 36 37 37 37
18 13 10 9 9 11 13 14 16 16 17 19 20 20 21 20 21 19 19 21 23 25 28 32 36 35 34 35 28 37 36 31 31 33 33 34 36 36 34 33 35 36 37
13 10 8 8 10 12 14 16 17 18 19 19 20 20 21 21 21 19 23 22 24 28 29 32 37 39 35 32 36 33 32 32 34 37 40 36 31 33 32 35 37 37 36
11 8 7 8 10 13 15 16 18 20 20 19 21 20 19 20 24 21 21 24 27 29 32 35 37 33 37 37 31 32 34 37 43 34 42 34 32 43 41 37 36 34 32
8 7 7 9 12 15 16 17 20 20 20 20 20 21 20 21 18 19 21 22 24 28 33 36 35 37 35 33 33 35 42 35 44 37 27 47 40 43 43 40 35 34 34
6 6 8 10 13 15 17 18 20 21 21 19 22 21 19 17 20 20 22 23 27 26 25 33 33 30 34 38 39 39 39 40 41 42 39 46 41 43 41 39 34 35 32
4 6 10 12 13 16 17 18 21 22 20 18 18 18 18 20 20 21 24 29 31 31 27 28 29 33 35 37 34 37 38 38 39 39 31 41 44 41 40 46 38 21 21
6 8 10 12 13 13 19 19 22 21 18 17 16 17 19 21 20 21 27 31 32 33 30 25 28 30 30 31 27 28 33 34 40 41 39 36 34 44 47 45 33 21 28
7 8 10 12 14 15 17 21 21 19 17 15 17 17 18 19 20 23 28 32 36 34 31 32 34 31 26 26 22 22 28 34 38 43 37 31 41 35 32 35 31 44 38

GFSMA_850_spd_012.txt.gz
Wind_Speed
12 13 15 12 10 6 5 6 7 9 12 13 12 12 11 8 3 8 9 8 5 6 6 7 8 9 10 11 13 14 14 16 16 15 16 16 16 15 14 14 14 14 14
14 19 15 12 7 6 6 6 8 10 11 12 11 9 10 7 5 4 8 7 5 6 7 8 9 10 11 12 14 15 17 17 18 18 19 19 19 20 20 20 19 19 19
17 13 13 11 9 8 7 5 8 10 11 11 11 8 9 7 5 3 7 8 7 6 6 7 10 10 11 13 15 17 19 21 21 20 21 22 21 20 21 22 23 23 23
18 15 13 11 10 8 6 4 7 10 11 12 10 8 8 9 4 6 6 6 7 9 11 11 12 13 15 16 17 19 20 21 22 23 22 23 23 23 23 21 23 25 24
18 14 12 11 11 8 4 5 7 9 11 11 9 7 8 4 2 4 4 7 9 9 11 12 13 15 16 17 18 19 20 21 21 22 23 23 23 23 23 22 17 21 21
17 17 15 14 11 7 3 4 7 10 11 11 8 6 6 3 4 4 6 6 10 14 14 15 14 16 20 21 20 23 23 21 21 21 21 20 20 20 21 21 18 19 21
22 19 15 13 12 7 2 4 7 9 10 11 8 4 3 6 6 3 7 7 13 16 15 15 19 22 22 21 23 23 21 23 22 22 22 22 22 21 20 20 20 21 22
24 21 17 14 12 7 2 3 7 10 11 11 10 5 1 3 4 3 10 15 12 13 17 22 24 26 24 24 25 21 22 21 24 24 23 23 23 23 23 23 24 24 24
26 24 19 17 13 8 3 2 6 8 11 11 9 6 1 2 8 8 6 11 9 15 21 24 27 27 24 27 23 24 24 25 28 24 25 26 27 26 26 25 25 26 27
29 25 22 18 14 9 4 2 5 8 10 10 10 6 4 6 4 7 8 11 19 16 23 25 27 26 27 25 24 26 27 26 26 30 28 29 28 27 27 27 27 28 30
30 26 23 20 15 9 4 3 5 8 10 10 9 9 8 7 7 9 21 20 24 25 25 25 27 25 23 25 27 29 29 26 32 32 30 29 29 29 29 29 29 30 30
32 27 25 20 15 10 5 3 6 8 10 10 10 10 10 9 7 12 20 27 30 31 29 28 21 22 23 20 24 28 29 28 29 27 28 30 30 30 30 31 32 32 32
34 30 27 21 16 11 6 5 7 9 10 12 12 11 12 12 13 15 19 26 30 35 34 30 21 20 21 27 27 29 33 33 29 31 30 30 30 31 32 33 33 32 33
34 32 26 22 15 10 7 6 8 10 11 12 12 13 13 13 15 17 20 23 31 32 35 27 30 22 19 23 27 35 41 37 33 30 31 31 32 33 34 34 34 33 34
34 27 26 21 16 10 7 7 9 10 11 13 14 14 15 16 17 19 21 22 24 26 33 30 25 23 31 35 36 37 38 34 32 30 32 34 37 35 35 34 35 34 35
30 29 26 20 15 10 7 8 9 11 12 14 15 16 16 18 19 21 22 22 23 26 33 33 36 35 32 32 37 31 33 33 34 35 37 35 34 33 33 34 34 35 35
29 28 24 18 12 9 8 9 11 13 14 15 15 17 19 20 21 22 23 24 23 23 31 38 35 31 31 33 37 33 33 35 36 39 33 31 32 33 35 34 35 36 37
28 25 20 15 12 9 9 10 11 14 16 16 16 18 20 22 23 24 23 21 22 24 27 34 34 36 36 38 34 35 29 42 34 32 29 33 34 35 35 36 34 35 35
26 22 17 13 9 8 9 11 13 15 15 16 18 20 22 23 24 24 23 23 26 27 25 32 38 37 36 35 31 39 38 32 32 35 33 37 34 35 33 32 32 33 35
22 18 14 10 8 8 11 13 14 15 16 17 19 20 22 23 23 24 26 26 24 26 29 32 36 38 36 31 39 37 35 36 41 42 40 39 32 33 32 34 34 32 31
19 13 10 7 7 10 13 14 15 16 17 19 19 20 21 21 22 21 19 21 24 26 30 33 37 37 35 39 33 32 42 43 43 41 43 37 39 39 37 35 33 32 29
14 10 7 6 9 13 13 14 15 17 18 19 20 19 21 22 20 16 18 19 21 24 29 32 32 39 35 34 38 42 41 43 37 43 32 43 40 41 41 39 36 33 32
10 6 5 7 11 14 14 15 16 18 19 19 18 19 22 21 20 20 24 22 24 26 26 30 33 33 38 39 40 41 39 37 45 43 41 45 42 47 43 41 39 37 34
7 4 5 9 12 13 15 15 17 19 19 18 17 17 18 20 20 20 23 25 29 32 33 30 30 33 33 35 35 35 36 38 41 40 36 38 48 47 46 44 40 26 21
4 3 9 9 10 12 16 18 19 19 19 18 14 15 17 17 18 20 22 28 35 36 36 32 26 28 29 29 26 28 33 35 42 46 43 39 42 48 48 43 34 29 32
4 5 6 8 10 12 14 18 20 21 19 17 16 17 17 16 19 20 25 30 34 37 31 31 32 31 27 28 27 24 28 35 41 45 38 32 43 38 35 37 34 44 41

GFSMA_850_spd_015.txt.gz
Wind_Speed
17 16 11 12 9 8 6 5 6 7 9 9 10 10 8 6 6 7 7 5 3 2 2 3 5 5 7 8 10 10 11 12 13 13 14 14 14 14 13 13 13 13 14
19 18 18 17 12 10 8 7 7 8 9 9 8 8 6 5 4 7 6 5 3 3 3 4 6 7 8 9 10 12 13 14 15 15 16 16 16 16 17 17 17 18 19
21 20 20 17 14 10 9 8 7 7 8 8 7 7 6 4 4 5 6 6 5 4 4 5 7 9 10 12 13 15 16 17 18 17 17 18 18 19 18 19 18 19 20
17 19 18 18 14 11 9 8 6 5 6 7 6 5 4 4 4 5 6 7 6 7 7 8 9 10 11 12 13 15 17 19 19 19 18 19 19 20 20 19 20 18 17
22 23 19 17 13 11 10 7 4 5 6 6 5 4 3 1 3 3 4 5 6 8 10 11 12 11 13 15 17 17 18 19 18 19 18 17 17 17 17 17 17 17 15
26 25 21 18 15 12 10 6 3 3 5 5 4 3 3 3 1 4 6 8 10 10 16 13 13 15 19 20 19 18 20 19 18 18 16 17 18 18 18 18 17 16 16
27 27 23 20 16 13 11 6 2 2 5 5 4 2 2 2 1 3 6 8 11 15 14 15 19 20 22 21 21 23 21 18 18 18 21 19 18 19 20 20 20 20 21
31 28 24 20 16 15 11 7 2 1 4 6 5 2 1 1 1 2 6 11 13 12 13 18 20 25 24 24 23 21 20 19 22 21 20 20 22 24 23 23 23 23 23
33 29 25 22 18 17 12 8 3 1 3 5 6 4 1 1 4 7 10 11 13 14 17 17 23 24 23 23 22 23 20 23 22 19 20 24 26 25 25 24 25 24 25
33 31 28 24 20 18 14 9 4 2 3 4 5 5 3 4 3 4 11 13 13 16 18 23 21 21 21 19 22 23 24 26 24 20 25 27 26 26 26 27 27 27 28
34 32 28 25 23 19 15 10 5 3 4 5 6 6 5 6 8 9 15 14 20 20 20 21 22 19 20 21 21 22 26 30 30 28 29 30 29 30 29 29 29 29 29
37 34 30 26 23 20 15 11 6 3 4 6 7 7 7 7 9 10 16 23 25 27 25 23 21 18 19 20 21 22 24 25 24 27 30 31 29 29 29 29 29 30 31
42 38 32 28 27 23 17 11 7 4 5 6 8 9 9 10 11 13 16 20 26 31 30 28 20 22 20 19 21 24 30 33 35 32 31 27 28 28 29 30 32 32 32
43 38 33 30 27 23 15 11 8 6 6 8 9 10 10 10 12 14 16 19 26 27 32 28 28 24 19 23 29 32 35 34 31 27 28 27 28 30 32 32 32 32 32
42 37 34 31 27 21 17 11 8 7 8 9 11 11 12 12 13 15 18 20 21 21 31 27 25 31 34 34 32 32 33 35 28 29 28 29 31 32 30 30 30 31 31
41 38 35 32 25 22 15 11 9 8 9 11 13 13 13 14 15 17 19 19 20 23 24 31 33 35 36 35 36 35 33 29 30 30 29 33 29 28 28 30 31 32 32
42 38 34 28 24 19 15 11 8 9 10 12 13 14 15 16 18 19 20 21 22 23 28 35 34 35 35 36 32 30 30 30 36 34 28 29 27 30 31 31 32 33 34
38 36 29 26 23 19 13 10 9 11 12 14 14 15 16 18 19 21 21 22 23 23 28 35 32 34 35 33 31 29 34 35 32 32 29 31 31 31 32 31 31 32 32
36 31 27 25 21 15 12 10 10 12 13 14 15 16 18 20 21 22 22 24 25 25 24 29 34 35 37 34 31 40 37 38 35 38 34 34 32 30 29 29 29 30 33
31 30 27 21 16 13 11 10 11 12 13 14 16 17 19 21 22 22 23 24 22 22 24 28 32 36 35 32 39 38 42 40 41 38 38 32 31 30 30 31 30 30 28
31 27 24 19 14 10 9 10 12 13 14 14 16 17 19 19 19 21 19 17 20 23 25 28 32 35 32 36 37 39 43 43 43 40 35 38 38 35 35 34 33 29 28
26 23 18 14 11 8 9 11 12 13 14 16 17 18 19 19 20 16 16 16 17 20 24 27 32 36 39 36 38 39 39 41 40 35 40 45 37 39 41 39 36 33 32
22 18 14 10 8 8 10 10 11 13 16 17 19 19 19 18 16 18 18 18 19 22 22 28 34 33 35 35 34 37 35 37 41 43 43 46 39 45 43 40 37 33 26
14 11 9 7 5 8 9 11 13 15 17 18 19 18 16 16 18 17 17 21 22 26 30 32 32 32 29 29 31 34 34 37 39 38 36 42 44 43 42 42 36 25 25
13 9 6 4 5 8 10 13 15 16 17 17 15 14 15 17 16 15 19 23 27 31 32 32 27 24 25 27 24 26 29 32 39 40 38 37 38 45 44 42 32 29 35
8 5 4 4 5 7 11 14 17 18 17 13 12 16 16 15 16 16 19 25 30 33 31 26 29 28 25 22 21 23 28 32 36 39 36 33 40 38 30 36 25 40 39

GFSMA_850_spd_018.txt.gz
Wind_Speed
18 16 14 14 13 11 9 8 7 8 9 11 11 10 8 6 6 6 4 2 2 4 3 3 3 4 5 6 7 8 9 10 11 11 12 13 13 12 13 13 13 14 14
19 18 19 17 14 10 10 9 9 9 10 10 10 9 7 5 5 5 4 3 1 2 3 3 3 4 6 7 9 10 12 13 14 14 14 14 15 16 16 15 15 16 18
19 20 22 20 14 12 12 11 10 10 10 9 9 8 6 5 5 5 3 2 1 2 2 3 6 7 7 7 9 11 14 15 14 15 16 16 16 16 16 16 17 17 17
21 22 22 19 16 16 14 12 11 10 9 8 7 5 5 5 5 4 3 3 3 3 4 5 7 9 8 10 12 14 16 17 17 17 16 16 17 17 17 16 14 16 16
21 21 20 19 19 18 15 13 11 9 7 6 3 3 2 3 4 4 3 4 5 5 5 9 9 9 11 13 15 15 16 16 17 17 15 16 15 15 15 15 15 15 14
24 21 22 21 19 18 15 13 11 8 5 3 2 3 3 5 4 4 5 6 7 7 12 9 10 13 14 16 17 16 16 17 14 15 14 14 14 15 16 17 17 17 17
27 25 27 24 21 18 15 14 11 8 4 3 4 5 5 5 5 6 7 7 8 11 12 12 13 16 19 19 18 17 15 14 13 13 15 14 15 17 18 18 19 19 19
29 28 28 27 24 21 17 16 12 8 6 4 5 7 6 6 7 8 9 10 13 13 12 14 18 20 22 20 21 18 16 16 16 15 16 16 18 20 20 20 20 21 21
31 32 29 28 26 22 18 17 13 10 8 6 4 4 4 4 7 10 12 13 14 13 14 16 19 23 22 22 20 19 19 19 19 16 16 19 21 22 23 23 23 24 24
35 34 30 31 28 24 21 19 15 12 8 6 4 3 4 5 4 5 12 14 16 16 17 21 20 21 20 19 20 21 20 21 20 18 20 21 24 25 25 26 26 25 26
37 35 35 34 30 26 23 20 16 13 9 6 5 4 5 6 7 8 9 11 16 18 22 19 21 19 20 18 21 21 22 23 23 22 23 26 28 29 27 26 27 27 27
40 38 38 34 31 28 24 22 18 14 10 8 6 6 6 7 8 9 12 17 20 22 20 20 18 17 20 20 20 21 23 27 29 29 28 29 29 27 27 28 27 28 29
44 42 39 37 32 29 27 23 19 15 11 8 7 8 9 10 10 12 14 17 22 26 26 23 18 22 20 17 22 26 29 32 33 31 28 26 27 26 26 28 29 30 31
47 45 39 37 35 32 28 24 19 14 11 9 8 9 10 11 13 14 15 16 22 24 28 23 26 23 20 30 31 31 31 32 32 29 25 25 26 26 28 29 31 30 30
45 42 38 39 36 33 29 25 19 13 13 10 9 10 12 13 14 15 16 17 19 18 28 24 24 27 32 34 34 33 31 29 26 26 25 26 27 28 28 27 27 27 30
39 41 39 40 37 34 30 24 19 18 15 11 10 12 13 14 15 16 17 18 19 21 23 27 31 32 34 33 32 29 28 26 24 28 26 25 24 25 26 27 29 30 31
41 39 41 41 37 34 28 23 20 16 13 12 12 13 14 15 16 17 19 20 21 23 28 31 32 32 31 31 30 28 26 28 30 27 26 26 25 27 27 28 29 30 31
38 39 43 40 37 31 26 24 20 16 12 12 13 15 16 18 18 19 20 21 22 22 26 31 31 32 32 32 33 29 31 28 30 29 29 27 28 28 27 27 27 29 29
35 39 41 38 33 28 26 23 18 13 12 13 14 16 17 19 19 20 21 22 22 24 24 26 31 32 34 33 33 35 36 34 33 32 30 31 28 26 25 27 27 28 29
33 37 37 33 28 23 21 16 12 11 12 14 16 18 18 19 20 21 21 22 22 22 23 26 29 33 33 36 37 37 38 35 36 34 35 30 27 30 28 27 27 30 31
31 35 32 26 21 21 16 14 12 12 13 14 17 18 18 19 20 19 20 19 19 22 23 24 28 33 35 38 38 37 37 37 39 37 35 34 37 37 29 31 32 31 28
32 29 26 23 19 15 15 13 13 12 13 16 15 17 18 19 19 19 15 15 15 19 22 26 29 33 37 37 35 33 34 38 40 37 40 42 38 39 36 36 33 32 31
27 24 17 16 15 15 14 13 12 13 13 14 16 18 19 19 18 18 19 18 16 19 21 24 30 33 34 31 29 33 35 38 41 40 39 46 41 43 36 34 34 33 30
21 20 20 13 13 14 13 13 11 11 12 15 17 18 18 17 17 18 18 17 21 23 25 29 31 32 28 27 29 33 35 36 39 37 35 46 42 39 40 40 36 29 23
23 17 14 12 12 12 11 10 11 11 14 15 14 13 15 17 16 13 17 20 23 26 28 29 27 24 24 25 27 28 29 32 40 42 38 30 38 44 46 42 32 28 31
11 9 9 8 9 8 9 10 14 15 16 15 13 15 18 17 15 14 17 22 26 29 25 26 26 25 25 24 22 22 26 32 35 40 31 34 39 38 30 33 28 39 37

GFSMA_850_spd_021.txt.gz
Wind_Speed
19 18 17 16 15 13 10 9 8 7 9 11 11 11 10 8 6 5 3 2 3 4 3 2 2 3 4 5 7 7 8 9 9 10 11 12 12 11 11 13 14 14 15
21 20 18 17 15 13 11 9 8 9 10 11 12 10 8 6 5 4 2 2 2 3 3 3 3 4 5 6 9 11 12 11 12 13 12 13 14 14 14 14 14 15 16
23 21 20 19 16 14 11 9 9 10 10 11 11 9 8 6 5 3 2 2 2 3 3 4 5 5 6 7 8 10 13 14 14 15 15 16 16 15 15 16 15 15 15
23 21 22 21 19 15 11 11 11 11 11 10 10 9 7 6 5 4 3 2 2 2 3 4 5 7 8 9 10 13 15 16 17 16 16 16 17 16 14 13 13 13 14
23 21 20 21 20 16 13 13 13 12 11 10 9 7 6 6 5 4 4 3 3 4 5 7 7 7 9 11 13 14 16 16 17 18 16 15 14 14 15 15 15 14 14
23 20 19 22 20 17 16 15 14 12 11 9 7 6 5 6 6 6 6 6 6 7 9 11 10 12 13 14 16 16 16 15 13 14 15 13 14 14 16 16 15 15 15
26 23 21 22 21 18 16 16 15 13 12 9 8 6 6 7 8 8 9 9 10 11 12 12 14 15 18 19 19 18 18 15 13 12 12 13 13 15 16 16 17 17 17
29 28 26 24 24 23 20 19 16 15 13 11 9 8 6 10 12 12 12 13 13 14 14 14 17 20 22 22 21 21 18 16 16 14 13 13 15 17 18 19 19 20 20
34 32 29 26 25 26 22 20 18 16 15 12 11 9 6 7 11 13 15 15 16 15 15 17 19 23 24 23 21 20 19 19 18 14 15 17 18 20 21 22 23 23 22
36 35 32 29 28 27 25 24 22 19 17 14 13 12 11 9 8 6 15 16 17 17 18 20 23 24 23 21 21 20 21 21 20 18 17 19 21 24 25 26 25 24 25
37 36 35 33 33 30 29 27 25 22 19 17 15 13 12 11 11 11 8 12 17 19 20 22 24 23 22 21 22 23 22 22 23 25 24 25 26 26 26 25 25 26 26
40 41 39 37 34 34 32 30 27 23 21 19 16 13 11 10 10 11 12 13 15 18 18 20 21 21 20 23 21 21 22 28 29 30 27 25 27 26 26 26 25 26 28
43 44 43 40 38 37 34 31 29 27 23 19 16 13 12 11 12 13 14 15 17 20 20 20 20 17 22 23 20 29 31 32 33 32 31 27 25 25 25 26 26 28 29
43 41 45 44 41 37 35 32 30 27 24 19 16 13 12 11 13 14 15 15 18 20 23 20 23 20 21 25 31 33 33 32 31 30 28 26 25 25 26 26 28 28 28
44 41 43 46 41 38 37 35 32 29 24 20 16 12 13 13 14 16 17 17 17 15 23 21 22 23 29 31 33 32 32 31 29 27 27 28 28 25 25 25 26 26 29
44 43 43 44 40 37 37 35 32 28 24 20 16 15 17 15 16 18 18 18 19 19 21 23 27 29 30 32 30 31 31 29 27 28 29 26 25 25 26 26 27 28 28
41 39 38 39 38 39 38 34 30 26 21 17 16 14 16 16 17 19 19 20 20 22 26 29 29 28 30 29 30 30 29 28 29 28 26 26 26 26 26 27 28 28 28
36 35 34 37 41 39 36 33 30 25 19 17 18 17 16 16 18 20 21 20 21 23 26 30 30 29 30 29 31 30 29 28 29 26 25 25 26 26 25 25 25 26 28
34 32 33 39 39 37 34 30 25 20 14 16 16 16 17 18 20 21 21 22 23 23 25 28 29 30 31 31 33 33 33 32 29 26 26 28 24 24 23 25 27 28 27
33 31 33 36 36 33 29 25 21 15 16 15 16 17 20 20 21 22 23 23 23 23 23 25 28 29 30 32 33 37 39 34 33 31 31 25 26 29 27 26 27 28 30
31 31 29 32 32 28 24 19 12 11 15 14 17 19 21 21 22 23 23 22 21 21 22 24 26 30 32 33 36 37 36 34 36 33 31 33 34 33 31 31 30 30 29
25 24 27 31 27 23 21 14 12 13 14 17 19 21 20 22 22 22 21 18 16 19 21 24 27 30 32 36 36 33 32 35 38 34 38 41 37 39 37 31 28 29 31
22 26 25 23 21 17 14 12 10 13 18 17 19 20 22 22 21 20 19 19 20 19 20 23 28 31 34 34 30 30 31 36 39 39 38 48 43 40 31 32 31 32 30
23 22 21 17 16 14 11 14 11 9 14 16 19 20 20 19 18 17 18 17 18 22 23 26 29 32 31 27 27 30 34 38 37 36 34 46 40 38 39 40 37 26 24
21 20 17 12 6 8 6 7 9 12 14 15 17 16 17 18 18 15 16 19 22 24 26 28 29 27 25 25 27 29 30 31 38 39 37 25 39 44 45 42 35 33 35
17 13 11 8 6 5 6 9 11 12 14 14 15 16 18 19 17 14 16 22 27 29 27 26 25 26 26 24 23 24 25 29 32 38 27 31 40 38 34 40 39 42 39

GFSMA_850_spd_024.txt.gz
Wind_Speed
18 17 17 16 15 13 11 10 9 8 8 8 9 9 8 8 5 3 2 2 4 4 2 1 1 2 3 5 6 7 7 8 9 9 10 11 11 11 12 12 13 13 14
21 20 19 18 16 14 12 11 9 9 9 9 10 9 8 6 4 2 2 2 2 3 2 2 1 1 3 5 6 9 9 10 11 12 12 13 14 13 13 13 14 14 15
24 22 21 20 17 15 14 12 11 10 10 10 10 9 7 5 3 2 3 2 3 2 3 2 3 4 5 6 7 11 13 14 15 14 15 16 16 16 14 14 14 14 15
26 24 24 22 19 18 16 13 12 11 11 11 10 8 7 6 5 4 4 3 3 4 5 4 4 6 7 8 9 12 15 17 18 17 16 16 16 14 14 14 14 13 14
26 26 25 22 22 21 18 15 13 12 12 11 10 8 7 7 6 6 5 5 5 6 6 6 7 7 8 10 12 13 15 17 17 18 17 14 14 13 13 13 13 14 14
26 26 25 23 23 22 21 17 15 14 13 12 10 8 8 7 8 9 8 8 8 8 8 8 10 9 11 12 14 16 15 16 16 15 15 14 13 13 13 13 14 15 15
27 28 26 24 24 23 20 17 16 16 15 13 11 9 8 9 10 11 10 10 11 11 11 12 12 13 14 16 18 18 17 17 16 15 12 13 12 13 15 15 16 17 16
30 30 30 25 22 23 23 21 18 18 18 16 14 11 8 11 14 14 14 13 14 14 14 15 15 16 18 20 20 18 17 18 17 16 13 12 14 15 17 18 19 20 20
33 34 30 27 25 24 25 24 21 20 20 18 18 12 7 8 12 16 17 16 16 17 17 18 18 20 21 23 21 20 20 20 19 19 17 16 16 18 19 21 22 23 23
35 36 35 30 28 28 25 26 24 23 22 22 20 20 17 11 9 8 16 18 18 19 19 20 21 22 24 23 22 21 21 22 21 21 19 20 21 22 23 23 23 23 22
37 38 39 36 34 32 29 29 27 28 27 24 23 21 21 18 17 14 10 14 18 19 21 22 24 24 24 23 22 22 23 22 22 25 28 25 24 23 24 23 23 24 24
43 40 40 39 39 37 33 34 32 30 30 27 26 25 22 20 17 16 15 15 15 16 19 22 22 23 23 23 22 23 22 25 29 30 30 27 24 24 23 23 23 23 24
46 43 42 43 41 41 38 38 34 33 33 31 28 25 23 20 18 15 16 16 16 17 18 19 20 20 21 23 22 21 28 30 31 29 28 26 24 23 23 23 23 24 25
43 45 44 42 41 42 41 41 37 35 32 30 28 24 22 19 16 15 14 15 16 16 20 20 18 21 20 20 25 29 30 30 29 29 28 27 28 28 26 24 24 24 24
37 42 44 44 41 43 42 42 39 37 33 31 23 22 16 16 15 14 14 15 16 13 19 20 17 18 22 28 29 31 30 30 30 29 28 27 27 27 25 24 24 25 25
34 36 40 42 42 43 43 41 39 35 34 31 30 25 21 17 15 15 15 17 17 18 19 20 22 25 26 29 30 30 30 30 29 28 27 27 27 24 24 24 24 25 27
33 34 38 40 42 41 40 40 39 36 32 28 25 21 17 16 16 18 17 18 19 21 24 27 27 25 28 29 28 28 28 29 29 27 26 26 25 23 23 25 25 26 27
31 31 34 36 37 36 38 40 38 34 30 25 21 20 15 14 15 19 19 18 20 22 25 28 28 28 28 27 28 29 29 28 28 25 23 22 24 25 24 23 23 25 26
26 27 29 31 34 35 39 38 34 30 26 23 19 15 12 16 16 19 19 21 22 23 24 27 29 28 29 28 30 31 30 31 27 24 21 24 22 21 22 23 24 26 27
22 25 28 31 33 36 37 37 33 27 22 18 14 10 12 18 17 19 22 23 22 23 23 25 26 27 28 29 31 33 36 33 31 25 24 21 23 25 23 25 27 27 28
22 26 29 30 27 23 25 28 25 22 19 15 14 11 12 21 21 19 22 20 21 22 22 23 25 27 30 32 32 34 36 34 31 27 28 30 31 29 27 28 25 23 24
24 25 23 22 25 25 26 20 19 16 13 13 13 14 18 18 20 18 18 18 19 20 21 24 26 29 31 32 33 34 31 31 35 33 36 39 34 34 34 26 26 26 27
18 18 18 23 24 23 20 15 13 10 9 10 13 14 16 19 20 19 18 18 19 19 20 20 26 29 31 31 30 29 29 32 36 36 37 44 37 38 31 32 29 28 26
15 19 22 20 18 16 13 13 11 7 6 10 14 15 14 15 16 16 17 17 16 18 20 23 26 29 29 26 25 29 33 36 37 34 31 42 38 38 39 38 36 28 27
20 21 19 17 15 12 10 8 5 5 6 10 13 13 14 15 16 16 15 16 19 22 24 25 26 25 23 24 25 29 29 30 36 35 33 30 39 44 44 43 36 37 39
20 18 17 13 10 6 2 3 3 4 7 10 13 14 14 16 16 14 15 20 24 26 24 22 23 23 22 21 20 22 26 28 29 34 29 30 39 39 30 44 44 42 40

GFSMA_850_spd_027.txt.gz
Wind_Speed
20 18 18 18 16 15 12 11 9 8 7 7 7 7 7 5 3 2 3 5 6 5 3 2 2 3 2 3 4 4 5 6 7 7 8 9 9 10 10 11 12 12 11
21 20 19 19 18 17 15 13 12 10 8 8 8 7 7 6 4 3 4 5 5 4 4 3 3 2 2 4 6 6 6 8 9 10 11 12 12 12 12 12 12 13 12
23 22 21 21 19 18 16 16 14 12 9 9 9 8 8 6 5 5 5 6 6 6 5 4 4 3 3 4 7 9 10 11 12 12 13 13 14 14 14 14 14 13 13
23 24 25 23 21 20 19 17 16 13 12 10 9 9 9 8 7 7 8 7 8 7 6 5 5 5 6 5 7 9 12 14 15 14 13 13 13 13 14 13 13 12 12
24 26 27 26 24 24 22 20 18 15 13 12 11 10 10 10 9 10 10 10 9 8 7 6 6 7 6 7 8 10 13 15 15 16 17 13 12 12 12 11 11 11 12
27 27 27 28 28 27 25 23 21 17 15 14 12 12 11 11 12 13 12 12 11 10 9 9 9 9 9 9 10 12 14 14 15 15 14 14 13 12 12 12 13 13 13
31 29 28 30 30 30 27 25 24 21 19 16 14 13 13 13 14 16 15 15 13 12 12 11 12 12 12 12 13 14 14 14 14 14 13 12 12 12 12 13 14 15 16
33 32 31 32 32 31 29 29 25 23 21 19 17 14 10 15 18 19 19 18 16 16 15 15 14 14 15 15 16 16 15 15 16 16 15 13 14 14 14 15 17 18 18
36 33 34 33 32 32 29 27 27 26 24 22 22 15 9 11 17 22 22 21 19 18 18 18 18 17 18 18 19 18 19 17 17 18 19 18 17 16 18 19 19 20 20
40 36 35 35 31 34 30 29 27 30 27 26 25 26 23 13 10 10 21 24 22 22 21 20 20 20 20 21 20 20 21 20 21 21 20 20 21 20 20 21 21 21 21
41 39 38 38 36 37 37 35 31 32 32 30 29 28 28 26 22 19 13 18 23 23 22 22 22 22 22 22 22 22 22 23 23 23 24 27 25 22 22 22 22 22 22
41 43 42 40 39 38 42 41 35 34 35 33 32 30 29 30 30 25 22 19 17 18 21 23 24 23 22 23 23 24 24 24 23 28 28 27 23 20 20 22 22 22 22
39 41 42 44 43 40 41 42 40 39 39 37 35 33 31 27 24 22 23 19 16 18 18 19 21 21 21 22 22 24 24 26 28 29 28 26 25 24 24 24 23 23 22
36 40 41 41 45 42 41 42 44 43 41 39 36 33 32 29 24 23 19 17 16 17 18 20 19 19 20 21 22 23 27 28 29 28 27 27 28 29 29 27 23 23 23
29 33 36 41 43 43 43 42 44 46 43 40 36 34 34 30 28 26 22 21 18 16 15 16 15 17 17 19 24 28 29 30 29 29 29 28 27 27 27 25 23 24 24
26 28 31 35 39 45 43 42 44 45 42 40 36 34 32 31 28 24 22 20 18 17 17 16 17 19 22 25 26 28 29 30 29 29 29 28 26 26 24 24 23 23 26
22 23 25 29 33 39 42 41 41 39 39 37 35 33 30 27 24 21 20 17 17 14 20 24 22 22 24 25 27 27 28 28 30 27 27 27 26 25 23 24 25 26 26
24 24 23 23 26 31 35 37 36 38 39 37 34 29 27 23 20 18 14 11 14 17 20 26 26 25 26 25 27 27 26 27 28 27 26 24 23 24 25 23 23 24 24
25 22 19 20 22 24 28 31 32 33 32 30 27 23 20 19 16 11 8 10 15 21 20 25 28 28 29 26 27 27 29 29 29 27 24 21 21 18 20 22 23 25 27
19 18 20 19 21 23 27 29 29 29 28 24 22 22 18 13 13 14 15 17 16 16 23 25 27 27 28 27 27 28 29 28 32 26 23 19 20 22 20 21 23 26 28
16 16 16 17 19 21 23 26 30 29 23 20 16 15 14 15 18 13 15 14 16 21 22 23 24 26 28 24 21 23 28 30 29 26 21 23 25 24 19 21 23 22 23
13 13 14 15 17 19 21 24 25 23 20 17 18 18 15 14 13 13 13 16 18 20 20 21 23 26 23 22 26 28 27 25 26 21 28 29 29 27 24 24 24 25 25
9 11 12 14 18 20 20 18 15 14 15 13 11 11 12 11 11 12 13 15 15 17 20 19 21 22 27 24 27 27 25 27 27 29 30 37 31 31 26 28 27 27 26
8 11 14 16 17 16 14 16 16 13 10 9 8 7 9 11 11 12 13 14 15 18 19 21 23 25 25 23 21 24 26 28 31 30 28 30 30 31 32 33 32 27 25
15 17 17 17 15 17 13 11 9 8 5 2 4 7 9 10 10 10 12 13 17 20 20 22 23 22 20 21 21 23 24 25 29 27 27 22 32 33 35 38 33 32 32
21 19 19 15 12 10 8 5 3 4 1 3 5 7 8 9 9 8 9 14 19 20 21 20 18 18 18 17 15 18 21 24 25 27 22 25 32 32 25 34 34 36 35

GFSMA_850_spd_030.txt.gz
Wind_Speed
17 16 17 18 18 14 14 13 12 11 10 9 8 7 7 5 4 5 6 9 10 9 7 6 5 4 4 3 2 2 3 4 4 6 7 8 8 8 9 10 10 10 10
20 17 20 21 20 18 17 16 15 14 13 11 10 9 8 7 7 7 6 8 9 8 7 6 6 4 3 3 3 3 4 5 6 8 8 9 10 10 11 11 11 10 11
21 19 19 22 22 21 19 19 18 17 15 13 12 11 10 9 9 9 9 7 9 10 8 7 6 5 5 4 5 5 6 7 8 9 10 11 11 11 11 11 11 10 10
24 22 20 25 22 23 23 22 20 18 17 15 14 13 12 12 11 11 12 11 10 9 9 9 8 7 6 6 5 7 9 10 11 12 11 11 11 10 11 11 11 10 10
25 26 24 21 22 25 26 25 22 21 19 17 16 15 14 14 13 14 14 13 13 12 12 10 10 8 8 8 8 8 10 13 14 14 15 14 12 12 11 10 10 10 10
30 28 29 27 23 27 29 27 25 24 22 20 18 17 16 16 16 16 16 16 15 14 14 12 11 11 10 10 10 11 12 14 14 14 14 14 14 13 11 11 11 12 12
33 33 32 31 28 31 32 29 28 27 26 22 19 18 18 18 19 19 19 19 19 17 17 15 14 14 13 13 13 13 14 14 14 15 15 15 14 14 13 13 13 14 15
36 37 36 35 33 32 34 33 34 31 30 26 22 13 9 15 22 23 22 23 21 21 19 18 18 17 16 16 16 16 16 15 15 16 16 16 17 16 15 15 16 17 18
41 42 41 38 37 35 36 36 37 34 32 29 29 18 9 10 12 21 26 26 25 24 22 22 21 20 19 19 18 19 19 17 17 18 19 20 19 18 18 18 19 19 20
43 42 44 40 40 38 38 38 37 35 35 34 32 32 29 14 8 8 21 28 28 28 26 25 24 23 22 21 20 21 22 21 20 21 21 22 21 21 21 20 21 21 21
42 43 44 43 42 40 38 41 40 38 38 38 37 34 34 32 25 16 10 18 27 29 28 27 26 26 24 23 23 24 24 23 23 23 23 23 25 24 22 21 21 22 22
37 38 40 43 44 43 40 40 43 41 41 41 40 39 37 35 34 31 23 19 19 23 28 28 28 26 26 25 25 26 26 25 24 24 26 29 27 23 21 21 22 22 23
36 37 36 39 41 46 44 43 44 46 46 44 45 43 41 38 33 30 30 28 20 23 21 24 25 26 26 25 25 25 27 26 26 28 30 30 30 29 29 28 26 25 24
32 33 35 35 38 40 45 45 44 45 49 47 44 47 43 41 36 32 30 29 25 24 22 22 19 20 21 22 23 24 24 29 30 31 31 31 30 30 31 32 31 28 25
28 27 30 31 32 36 41 45 47 47 47 51 50 47 46 39 35 32 29 28 26 23 21 19 19 19 18 18 20 22 28 32 32 32 31 31 31 31 31 31 30 28 25
17 20 23 25 27 29 34 40 43 44 45 47 49 45 44 36 33 32 30 25 22 18 14 13 14 15 17 18 24 29 31 34 34 32 30 31 32 32 31 29 27 25 25
18 18 19 20 22 25 28 32 37 39 40 42 45 40 28 29 32 29 27 26 23 23 20 22 20 22 22 23 23 28 33 31 29 30 32 31 32 32 31 27 26 26 26
21 20 20 20 20 22 23 25 29 32 34 35 36 35 36 34 26 28 27 22 22 21 20 20 23 26 25 19 22 28 30 29 28 30 31 31 30 30 29 28 26 24 25
25 23 21 19 18 20 21 23 24 28 29 30 28 26 25 29 25 20 20 21 19 18 19 20 24 24 21 22 25 28 27 26 27 28 28 30 26 25 25 26 25 27 28
22 23 22 19 17 19 20 20 22 21 21 22 24 24 22 19 18 18 17 15 17 17 18 19 19 21 24 23 20 20 18 18 22 24 27 26 22 22 24 26 26 26 28
14 14 15 13 14 13 16 16 17 17 19 20 19 16 15 15 16 16 16 15 15 15 15 18 20 18 15 13 13 16 19 20 21 23 22 20 19 23 24 24 22 24 26
8 10 9 8 8 8 10 10 13 16 17 15 15 15 15 17 17 17 15 13 12 13 16 15 13 15 15 15 15 18 19 22 24 20 18 23 23 26 26 24 23 26 28
3 4 3 4 6 6 8 12 14 14 14 13 13 14 13 13 11 10 10 10 12 14 16 16 16 16 17 17 20 23 19 20 23 23 23 28 24 28 24 26 27 28 28
7 7 8 9 9 11 12 13 12 12 10 10 9 7 6 6 6 9 9 10 11 13 14 13 15 16 18 18 17 18 19 22 22 22 19 28 24 24 25 28 28 27 22
11 13 14 12 11 12 9 9 8 7 6 3 1 2 3 5 7 7 7 10 11 12 15 18 21 22 21 20 19 18 21 18 22 22 20 23 22 22 27 31 23 23 28
16 15 14 11 8 7 6 5 3 3 2 1 2 4 5 5 5 6 7 10 13 14 16 16 14 16 15 15 15 16 18 20 20 22 10 21 25 22 19 27 19 28 27

GFSMA_850_spd_033.txt.gz
Wind_Speed
17 18 16 15 16 15 12 12 11 12 11 10 9 7 6 4 5 5 10 12 13 12 10 8 7 5 3 2 2 1 2 2 3 4 5 6 6 7 8 8 8 8 7
18 17 19 21 20 17 14 14 13 14 12 13 12 10 8 7 7 7 10 10 13 12 9 8 7 5 5 4 3 3 2 2 4 5 6 7 7 8 8 9 9 9 9
20 19 19 23 21 24 18 15 14 15 15 15 14 13 11 9 10 10 10 12 11 12 10 10 9 8 7 6 5 4 4 4 6 7 8 8 9 10 11 11 10 9 9
22 21 21 26 25 23 22 17 18 19 18 18 16 15 14 14 12 11 13 12 10 11 13 13 11 10 9 8 7 6 6 6 8 9 9 9 10 10 9 9 10 10 10
23 23 23 25 26 25 23 24 23 22 21 21 18 17 15 15 14 14 15 15 14 13 11 14 14 11 11 9 9 8 8 9 11 11 12 11 10 11 11 10 10 9 9
27 26 26 24 25 22 25 28 26 25 24 22 20 19 18 17 16 17 15 17 17 18 18 14 14 15 13 11 11 10 11 12 12 12 12 12 13 13 12 11 10 11 11
27 29 31 27 28 29 30 29 27 29 29 25 21 20 19 19 20 20 18 19 20 20 20 19 16 17 15 14 14 13 13 13 14 13 13 14 14 13 13 13 12 13 14
35 31 34 35 35 34 32 32 31 33 32 32 29 18 11 17 23 24 22 23 22 22 22 21 21 20 20 16 17 15 16 15 15 15 15 15 16 17 17 15 15 16 17
40 32 35 36 36 35 37 36 34 37 38 35 33 25 10 12 14 20 27 27 25 25 25 25 24 23 22 21 20 19 19 16 16 16 16 18 18 19 18 17 18 18 19
40 40 35 38 40 39 41 40 39 39 39 40 35 36 30 14 11 10 19 28 28 28 28 27 26 26 25 23 24 23 22 19 19 19 19 20 21 20 19 20 19 20 20
35 39 36 37 42 40 43 42 41 42 42 42 42 40 39 34 24 18 15 20 26 31 30 28 28 27 26 25 25 24 23 22 21 21 21 21 21 21 22 20 20 21 21
27 29 32 35 39 41 43 46 45 44 44 43 45 43 44 42 41 36 27 23 24 25 28 30 29 28 27 25 25 26 24 23 23 23 23 24 25 27 28 26 24 22 22
27 30 33 32 31 39 39 42 43 45 44 45 47 46 47 46 43 37 37 28 23 22 20 26 28 27 27 26 26 25 25 24 24 24 23 27 30 32 32 32 31 29 26
31 25 31 32 31 32 36 38 38 43 46 44 46 51 49 47 44 40 33 32 26 22 23 22 24 24 24 25 25 22 22 25 25 23 27 30 31 32 32 32 31 32 30
22 22 25 25 27 28 29 31 38 41 42 43 44 49 49 48 45 43 38 34 30 20 30 25 20 21 22 22 21 21 22 22 28 29 30 32 32 33 33 31 31 32 30
15 19 19 21 24 26 26 27 34 37 38 38 39 41 46 49 46 42 41 35 25 20 25 23 24 23 21 23 22 24 27 34 34 34 33 33 33 33 33 33 32 32 28
16 18 18 18 19 21 22 24 28 32 34 37 37 37 37 38 37 33 30 27 28 27 27 26 22 21 21 22 29 33 33 32 31 31 32 34 34 33 32 31 31 29 26
20 20 19 18 18 18 19 20 22 26 29 32 32 32 32 32 32 31 26 24 22 19 21 25 22 21 24 26 27 27 26 26 30 32 33 32 31 28 30 30 28 27 26
19 18 15 21 20 21 19 20 20 21 23 25 25 25 26 26 25 21 16 12 16 17 23 22 22 22 23 21 21 23 27 27 25 24 24 25 27 29 27 25 24 26 27
14 14 20 30 29 24 19 18 18 17 17 17 17 16 14 13 13 11 16 17 22 20 17 18 18 18 18 19 19 18 19 17 20 25 28 29 25 24 22 22 24 23 25
12 15 15 13 12 12 12 12 12 10 10 9 8 8 7 9 12 13 17 15 14 13 13 14 15 15 14 11 12 14 19 22 24 27 28 26 21 22 25 25 23 22 23
6 7 5 5 6 7 6 4 3 3 5 6 7 10 9 11 11 11 12 11 10 12 11 10 12 10 10 13 11 14 20 23 30 23 18 26 23 25 26 24 22 22 25
3 3 3 3 4 4 3 4 6 7 8 8 8 8 7 8 8 7 8 9 9 9 10 11 12 13 12 13 19 23 24 21 23 24 22 27 23 27 24 24 24 24 26
7 7 6 5 5 7 6 5 5 5 4 6 6 5 4 4 6 7 7 8 9 10 11 11 12 15 16 18 18 18 19 22 24 23 18 28 26 28 25 26 26 24 19
11 10 9 8 7 8 5 4 3 2 1 3 3 3 5 6 6 7 8 9 9 8 11 14 14 16 17 16 17 18 19 20 24 24 21 25 22 25 30 28 22 21 26
13 11 10 9 8 6 5 2 1 2 1 1 1 3 4 5 6 7 6 7 10 10 12 12 12 12 13 12 12 14 15 19 20 22 8 20 25 27 22 31 32 34 31

GFSMA_850_spd_036.txt.gz
Wind_Speed
20 16 18 16 12 12 11 12 11 10 11 11 11 10 9 6 9 13 12 12 14 12 10 9 7 5 5 4 3 3 1 0 2 3 4 4 5 6 7 7 7 6 4
19 20 20 21 18 18 16 16 16 15 15 14 13 13 12 10 10 15 16 12 14 13 11 10 8 7 7 5 4 4 3 2 1 2 3 4 5 6 6 6 6 6 7
22 22 20 21 23 21 20 19 19 18 18 18 17 16 15 14 14 16 18 15 12 14 13 12 12 9 9 8 6 5 4 3 3 3 4 4 5 6 6 6 6 6 6
26 28 27 26 25 23 24 23 22 23 23 22 20 19 19 17 17 16 19 20 15 14 15 16 14 13 12 10 8 7 6 5 4 5 5 5 6 6 6 7 7 6 7
25 27 28 27 27 26 26 27 26 29 27 25 22 22 21 20 19 19 20 21 20 17 15 18 17 15 13 13 11 10 8 7 6 6 6 7 7 7 8 8 7 6 7
28 28 28 29 30 30 30 26 30 32 29 26 24 23 24 22 21 22 23 22 22 22 20 18 18 18 17 16 14 12 11 10 9 9 8 8 9 9 9 8 8 8 8
29 32 31 30 33 32 33 28 31 34 31 27 25 25 26 25 25 25 25 24 24 24 25 24 19 20 19 18 17 15 14 13 12 11 11 11 11 11 11 11 10 10 11
30 34 34 34 33 36 35 32 33 36 32 32 32 28 23 27 29 30 28 27 28 26 27 28 24 24 22 21 20 18 17 16 14 14 14 14 14 14 15 15 14 13 12
38 37 36 35 36 35 36 38 36 38 36 35 37 28 12 17 18 27 33 31 31 31 29 28 28 26 26 25 24 21 20 18 17 17 17 17 16 16 16 17 16 14 14
33 32 38 39 38 39 39 39 40 40 39 39 38 40 35 25 15 13 21 30 33 34 32 31 29 29 28 29 27 25 23 20 20 19 20 18 19 18 19 18 17 16 15
30 28 30 27 39 39 40 39 41 43 43 42 43 42 41 38 28 27 23 25 30 33 35 34 31 31 31 30 30 28 27 26 23 21 20 20 20 19 19 19 20 20 20
25 27 26 26 25 35 39 41 41 43 42 45 45 43 43 44 45 35 30 28 27 29 33 35 33 32 30 30 30 29 29 27 23 23 22 20 20 21 22 24 25 26 26
23 27 26 27 28 27 31 36 39 42 42 43 46 47 44 44 45 43 44 29 25 26 22 31 29 29 29 28 29 27 26 25 24 23 21 19 20 23 25 26 27 28 28
26 23 22 25 26 24 26 29 33 38 40 42 45 46 46 44 46 47 43 40 29 29 28 30 32 33 32 29 29 26 27 24 23 20 20 21 25 27 28 28 29 28 27
18 22 24 24 22 22 22 22 26 31 35 39 42 42 44 45 45 45 45 44 39 25 29 26 25 32 32 30 28 31 25 28 29 24 26 30 32 30 30 30 30 31 30
15 19 19 17 18 20 20 19 20 23 27 34 38 39 40 40 43 44 44 45 40 30 23 19 22 29 29 27 29 33 28 28 28 29 31 28 29 30 32 31 31 29 28
15 19 17 16 16 15 15 16 18 19 22 27 31 33 34 34 34 37 39 40 35 30 29 27 21 25 25 26 31 29 25 30 30 28 26 27 29 31 32 30 28 27 27
17 17 16 14 12 12 14 16 16 17 18 21 26 29 30 29 29 29 29 26 24 24 19 21 18 22 22 24 25 25 25 25 26 26 28 27 25 25 24 24 25 25 24
14 14 14 15 14 15 17 18 20 20 21 20 22 23 24 23 21 18 17 15 15 15 10 18 17 18 18 18 20 22 22 22 22 20 20 19 24 25 23 21 21 21 21
9 10 11 13 15 15 16 19 21 15 17 17 17 17 14 11 9 8 10 11 13 13 13 15 12 13 15 16 18 15 15 15 18 20 23 23 25 23 21 19 18 19 20
6 8 11 10 10 9 11 12 12 12 10 8 6 5 5 4 5 6 9 9 9 5 7 9 11 11 11 9 10 12 17 18 20 23 28 23 21 19 18 17 18 19 19
5 4 5 6 7 7 8 7 4 3 1 1 2 4 4 5 7 6 5 6 9 9 9 11 10 8 7 8 11 13 16 20 27 22 21 18 17 16 14 16 16 16 18
6 6 7 8 9 9 10 9 8 6 4 3 3 3 3 3 5 6 7 8 9 9 8 9 9 9 10 12 15 18 20 22 21 19 20 23 19 19 17 16 16 16 17
8 9 11 11 9 10 10 9 7 4 1 1 2 3 4 5 5 5 4 6 6 7 8 9 10 11 13 15 17 19 20 21 20 18 17 25 21 19 18 17 17 14 13
12 13 13 11 10 9 7 6 4 2 2 2 3 3 3 3 3 4 6 6 7 6 7 10 11 11 14 14 14 15 14 16 18 19 17 15 19 25 24 21 14 16 23
13 12 10 9 8 6 5 4 4 4 3 2 3 4 5 6 6 7 7 8 9 10 12 12 13 11 11 10 9 11 12 15 16 18 8 18 25 24 22 22 27 28 28

GFSMA_850_spd_039.txt.gz
Wind_Speed
14 13 14 13 13 12 15 14 14 13 13 13 12 13 11 10 14 14 13 13 12 13 13 12 10 9 6 5 5 4 4 3 2 2 1 1 0 1 1 1 1 1 1
14 15 17 18 18 17 15 15 15 15 16 15 16 15 15 13 16 16 16 15 15 15 15 14 11 10 8 7 7 7 6 5 3 2 2 2 2 2 2 2 2 2 2
18 18 19 21 21 20 20 15 17 19 20 20 19 18 18 17 17 19 20 19 17 16 17 16 14 13 11 10 9 8 8 6 5 4 4 3 3 3 3 3 4 4 5
20 24 23 26 24 21 21 22 23 23 22 23 23 21 20 19 19 21 22 23 20 18 17 19 18 15 15 13 11 10 10 9 7 6 5 5 5 4 4 4 4 4 5
23 23 28 28 28 27 26 26 25 29 27 28 27 25 24 24 23 23 24 25 24 21 19 20 22 18 18 15 14 13 12 11 10 8 7 7 6 5 6 6 6 5 4
25 27 28 29 31 32 30 30 32 29 33 31 30 29 28 27 26 27 28 27 26 26 23 22 22 22 20 19 18 16 15 14 13 11 10 9 8 7 7 6 7 7 7
27 29 31 31 32 33 34 33 34 32 31 33 30 30 31 31 31 30 29 30 30 29 28 26 23 23 23 23 21 20 18 17 16 13 12 10 10 10 10 9 9 9 9
31 30 32 34 34 36 37 36 36 35 32 34 36 32 27 34 38 36 34 34 34 32 31 30 28 26 25 26 25 23 21 19 18 16 14 14 14 13 12 12 12 12 11
27 31 37 36 36 36 38 37 36 39 38 38 39 32 14 21 23 29 37 38 36 36 35 33 32 30 28 28 28 26 24 23 19 20 18 17 17 16 15 15 15 14 12
30 27 25 27 35 40 41 41 38 38 41 41 42 42 42 34 19 14 23 30 37 37 37 36 35 33 31 32 30 28 26 25 22 22 20 19 18 18 18 17 16 15 14
23 25 25 25 24 25 37 37 39 39 41 41 45 46 45 46 42 35 30 28 28 34 37 37 38 35 34 33 32 30 28 26 24 23 22 21 20 19 18 17 16 17 18
25 24 25 24 22 24 21 27 32 35 38 42 45 47 47 45 46 42 39 38 35 34 37 36 40 38 36 34 33 32 29 27 26 24 22 21 19 21 20 20 21 22 23
22 17 19 20 23 24 24 26 28 32 33 34 39 48 38 48 39 40 42 39 33 31 30 38 37 35 34 34 32 31 28 27 28 26 24 20 21 23 22 24 24 25 26
24 24 22 22 23 25 27 28 26 26 30 33 31 36 41 48 36 43 43 39 35 31 31 31 37 32 32 29 29 30 32 29 29 30 27 24 23 25 26 30 30 27 28
12 15 20 22 24 23 25 19 21 23 23 25 28 29 32 35 38 40 42 41 42 28 32 31 30 34 39 39 40 36 30 32 28 26 27 24 27 26 29 29 28 27 27
15 14 18 18 16 15 17 17 18 19 19 20 23 24 27 27 33 34 38 38 37 36 33 30 31 35 33 37 34 30 34 29 26 26 24 22 25 23 23 24 25 26 26
14 14 16 16 15 12 10 9 9 10 12 13 14 16 19 23 26 25 33 32 30 30 31 30 28 26 27 30 32 30 28 28 25 24 23 25 24 23 25 25 25 22 22
16 17 17 17 15 14 12 11 12 14 14 14 14 14 19 22 26 26 25 20 19 17 22 27 27 28 29 24 25 25 24 25 25 24 24 21 21 20 19 20 22 23 21
12 12 12 12 12 13 16 16 17 16 15 15 16 18 22 24 21 19 16 14 11 12 13 15 18 18 21 19 20 22 21 22 22 19 16 15 16 18 20 21 20 18 18
7 8 8 8 10 12 13 14 13 14 12 15 16 15 14 12 11 9 7 7 6 9 10 9 12 16 15 14 18 18 17 16 14 14 16 15 20 22 21 18 17 18 19
2 2 5 8 10 10 10 10 11 11 12 13 11 9 7 4 2 1 2 3 5 7 8 11 13 13 13 14 14 12 12 13 13 15 18 19 15 15 14 13 15 16 15
6 6 5 7 6 7 8 7 4 2 3 2 2 1 1 1 1 2 4 6 7 9 11 11 11 11 10 10 11 13 13 15 18 16 13 16 12 11 10 12 13 13 12
5 5 6 6 6 7 10 10 9 7 6 5 5 4 3 2 3 5 6 6 7 6 8 10 10 10 11 12 13 15 16 17 18 15 18 18 10 10 10 10 9 11 12
7 9 9 8 8 9 8 10 10 8 5 3 2 3 4 5 6 6 7 6 5 6 9 11 11 11 12 13 15 16 16 18 17 14 15 18 15 10 11 11 12 10 6
10 11 11 9 9 8 7 7 6 5 5 4 4 4 5 5 5 5 6 7 7 8 9 9 10 9 10 12 12 13 13 14 15 14 13 13 13 20 15 11 8 6 15
10 10 8 8 9 8 7 7 6 6 6 6 6 6 6 6 7 8 9 10 11 12 12 13 14 13 11 9 9 11 10 12 13 13 7 16 22 21 14 11 8 19 17

GFSMA_850_spd_042.txt.gz
Wind_Speed
12 12 12 11 9 12 12 15 15 16 15 14 14 15 14 15 16 16 15 15 14 13 15 16 14 13 11 8 8 7 6 5 5 5 4 4 3 3 3 3 3 3 3
12 12 12 13 13 14 15 15 13 15 17 16 17 16 17 17 18 19 19 18 17 17 16 17 18 15 12 10 10 9 8 7 7 6 5 5 4 4 3 3 3 3 3
14 15 16 16 17 17 17 19 18 18 18 19 20 19 20 20 20 21 22 22 20 20 18 18 19 17 15 13 12 11 11 9 9 8 7 6 6 5 5 5 4 4 4
16 18 19 20 20 21 22 22 21 22 21 25 23 22 22 23 23 23 24 25 24 22 21 20 20 20 18 15 14 14 13 12 11 10 9 8 7 6 5 5 5 5 5
19 20 21 23 25 25 26 27 26 26 27 28 30 27 26 26 26 26 27 28 28 27 24 22 22 22 21 19 17 16 16 15 14 12 11 9 8 7 6 6 6 5 5
24 25 26 25 25 28 30 31 32 30 30 30 32 31 31 30 30 31 31 30 30 30 29 26 24 25 24 22 21 19 19 17 16 15 13 11 10 9 8 7 6 6 6
29 28 29 30 30 32 33 34 34 35 33 33 34 33 34 33 36 37 35 34 34 34 33 31 28 26 26 25 25 23 22 20 18 17 15 14 13 12 10 9 9 8 8
28 31 32 32 31 34 36 35 37 39 36 35 38 39 32 35 41 40 40 39 38 37 36 35 33 30 28 27 28 27 25 23 20 20 18 17 16 14 13 12 11 10 10
28 28 28 28 32 36 37 36 37 39 38 37 37 35 16 23 29 32 31 34 37 39 39 38 36 34 31 29 28 28 28 26 22 18 18 19 18 18 15 14 14 13 11
32 30 28 24 24 25 28 32 36 38 40 41 38 40 41 43 26 23 23 25 31 38 39 39 39 36 34 31 29 28 28 27 26 21 17 18 19 17 16 15 13 13 12
33 30 26 22 22 24 25 25 25 26 34 34 38 38 39 44 49 46 38 30 32 28 32 38 40 38 36 34 28 28 28 28 25 25 23 15 14 13 12 12 13 13 17
24 24 24 25 21 22 23 20 23 21 24 27 30 33 38 35 37 43 42 42 41 40 31 35 40 40 37 40 33 29 27 30 27 26 26 22 16 14 14 14 13 17 19
19 22 22 21 18 19 19 20 24 22 25 28 30 31 31 30 34 40 41 40 41 37 40 36 36 41 42 41 36 26 26 30 27 25 24 21 25 29 33 33 26 20 21
19 16 20 23 18 20 22 23 26 26 23 25 27 27 26 25 27 30 32 37 38 36 36 39 36 34 39 42 41 34 37 42 37 34 32 36 32 32 37 32 26 24 28
17 15 14 16 19 22 24 26 25 22 20 20 23 25 25 26 26 25 26 31 32 22 29 33 33 33 32 33 34 38 40 38 34 34 37 32 33 30 30 31 29 29 31
15 15 16 17 18 17 16 16 17 14 12 12 14 16 19 20 20 23 24 23 20 25 28 31 27 25 26 30 35 35 36 34 32 28 28 26 30 32 28 23 25 25 23
12 13 15 16 16 15 14 14 13 12 12 12 12 13 15 16 18 20 21 23 25 23 25 27 28 25 25 26 30 30 32 31 28 27 26 27 25 23 24 25 24 23 21
13 14 15 16 16 15 14 14 14 15 17 17 17 17 17 18 19 19 18 19 20 20 18 21 20 17 21 22 22 23 25 29 24 25 22 23 22 22 21 18 19 21 21
11 10 10 10 10 11 12 13 15 16 16 15 15 16 17 16 16 17 17 16 14 11 12 12 15 15 15 19 22 20 21 22 20 21 20 17 14 13 18 21 22 21 20
3 4 5 5 7 9 9 9 10 10 9 10 11 12 12 12 11 11 10 8 6 5 6 8 11 10 10 13 15 16 16 17 17 16 14 15 17 18 22 25 25 23 21
2 1 2 2 2 2 3 4 5 6 6 9 10 10 8 7 5 4 5 4 4 5 6 6 8 7 8 9 10 13 13 12 14 15 15 18 20 20 19 20 19 17 16
5 3 3 2 2 2 4 5 3 2 2 3 3 3 4 3 3 5 5 6 7 7 8 8 9 10 10 10 9 9 11 13 13 12 16 16 17 16 14 17 16 15 16
4 4 3 4 4 5 5 6 7 5 5 5 4 4 4 4 6 6 7 7 8 9 11 10 10 10 10 10 12 13 14 16 17 16 19 17 11 13 13 15 15 14 14
6 6 6 7 7 6 6 7 6 6 6 5 5 5 6 6 7 8 8 9 9 9 10 11 11 11 12 13 14 15 16 16 17 13 13 17 11 13 12 14 16 16 16
8 8 8 7 6 7 8 8 8 8 7 6 6 6 7 7 9 10 9 9 10 11 11 12 12 11 11 12 12 14 12 13 13 11 12 16 12 16 16 15 14 14 13
7 7 6 6 7 7 6 7 8 8 9 9 9 9 10 9 10 12 11 11 11 11 12 13 14 14 13 12 12 14 12 12 12 12 7 12 20 19 11 10 13 15 14

GFSMA_850_spd_045.txt.gz
Wind_Speed
9 10 10 10 9 9 9 10 13 16 16 16 17 17 16 18 18 17 16 15 15 15 17 18 18 16 16 13 12 9 8 7 7 6 5 5 4 4 4 4 4 3 4
10 11 11 11 12 12 10 11 13 15 15 16 18 18 18 19 19 20 19 19 18 17 17 18 19 19 19 15 13 11 10 9 9 8 7 6 6 5 5 4 4 4 4
12 13 13 14 14 14 14 15 16 18 19 20 19 18 20 20 20 20 22 22 21 20 20 19 20 20 20 19 14 13 13 11 11 10 9 8 8 7 6 5 5 5 5
14 15 17 17 16 17 19 20 21 21 23 24 24 23 22 22 22 23 23 24 25 24 23 22 22 21 21 21 15 15 15 15 14 13 12 10 10 9 8 7 6 6 5
19 19 19 19 19 20 22 24 25 26 27 27 28 27 27 27 27 25 26 26 26 28 28 25 24 24 23 23 18 16 16 17 16 15 14 12 11 10 10 8 7 6 6
24 24 25 24 24 25 26 27 29 30 31 31 32 31 31 30 30 33 32 30 29 30 31 30 27 27 25 24 22 18 18 18 18 17 16 14 13 12 11 10 9 8 7
26 28 29 28 28 30 30 31 32 34 34 34 36 36 36 36 35 36 35 36 35 34 34 33 31 29 28 26 24 23 21 19 19 18 18 16 15 14 13 12 11 9 8
29 29 29 29 28 30 30 31 31 34 35 34 35 37 37 37 37 34 34 35 35 37 36 36 35 33 30 29 27 27 27 21 21 19 17 17 17 16 14 12 11 11 9
32 33 31 30 30 29 29 29 31 34 35 35 35 34 18 22 24 23 26 28 28 29 32 37 36 35 34 33 29 28 29 28 22 20 18 17 16 15 14 13 11 9 8
31 31 32 31 30 30 29 25 22 24 27 30 32 32 33 35 34 30 23 20 23 26 29 30 34 33 38 38 33 30 29 28 27 25 18 19 18 16 14 12 10 8 8
33 34 35 33 31 28 25 22 23 21 21 21 20 24 27 29 33 36 36 29 31 34 25 29 32 32 35 39 38 33 35 30 26 23 17 19 19 17 15 13 11 12 12
20 20 21 23 22 25 23 22 21 21 18 22 22 23 22 23 26 29 32 35 35 33 34 33 35 33 36 37 40 38 42 38 37 32 27 25 19 19 16 20 21 19 20
21 20 19 20 20 18 22 20 18 20 22 25 26 26 23 22 26 25 25 32 33 33 31 32 32 33 33 32 35 35 45 42 35 35 33 30 26 31 29 26 23 27 29
21 20 18 17 17 17 16 17 18 22 23 23 21 19 19 20 22 21 23 24 29 29 33 31 31 31 33 35 37 32 38 43 36 29 30 32 28 37 42 35 35 39 34
18 17 16 16 17 16 17 19 20 23 22 21 19 18 18 17 17 18 18 19 20 24 27 22 24 26 28 31 29 32 33 39 39 36 33 31 31 30 30 34 28 25 24
13 13 14 15 17 16 16 16 17 17 17 17 15 13 13 14 14 16 15 15 15 18 25 28 31 32 27 26 21 24 33 31 28 28 28 27 26 26 29 24 24 24 25
12 12 12 14 15 15 15 15 14 15 15 15 15 15 16 17 16 15 16 17 17 20 24 27 27 26 26 23 20 20 23 26 26 28 25 24 21 21 24 24 23 26 24
13 13 13 14 14 13 13 13 13 14 15 17 19 19 19 16 17 18 18 16 18 19 20 22 20 17 18 17 18 17 22 23 25 26 23 21 22 23 24 24 24 18 18
13 12 11 9 9 8 9 10 11 11 12 13 12 13 14 15 14 14 14 13 13 14 13 12 13 13 12 12 14 17 19 21 20 19 18 20 20 20 18 15 19 22 23
5 5 5 5 5 6 6 7 7 7 6 5 5 7 9 9 9 7 8 8 8 9 8 8 8 10 10 9 9 11 14 15 16 16 16 15 15 14 17 20 23 25 27
5 4 3 2 1 1 2 4 4 4 4 4 3 5 6 5 5 6 6 5 5 6 7 8 8 8 7 7 8 9 12 13 14 12 12 16 17 20 21 23 23 21 20
5 4 4 1 1 1 2 3 1 2 2 3 4 5 5 5 6 7 8 8 9 9 9 10 10 10 10 9 10 10 10 12 12 13 17 17 19 20 18 20 18 17 17
3 2 2 1 1 3 4 4 4 4 5 5 5 6 6 7 8 9 10 9 10 12 12 10 10 9 9 9 9 11 12 14 16 16 19 19 15 14 15 15 16 17 18
3 3 4 5 5 6 7 7 8 7 7 7 7 8 8 9 9 9 10 10 10 10 11 11 11 11 11 12 13 15 15 16 16 14 15 17 11 12 13 14 17 18 19
6 7 6 6 7 6 7 8 8 9 9 9 9 9 9 11 12 12 11 11 12 12 13 13 12 12 12 12 14 15 13 11 13 10 12 15 13 14 15 17 18 18 18
7 7 6 5 5 6 6 7 8 8 9 9 10 11 12 13 12 15 13 12 13 13 13 13 14 14 14 13 12 13 12 11 11 10 7 12 17 20 11 13 12 13 13

GFSMA_850_spd_048.txt.gz
Wind_Speed
5 7 7 7 7 8 7 7 8 10 12 13 14 14 15 16 17 17 16 14 13 13 14 16 17 18 18 15 14 12 10 8 8 7 6 6 6 5 5 4 4 4 4
7 7 8 9 9 10 9 9 10 11 13 14 15 15 14 16 18 19 19 17 17 16 16 17 18 18 18 17 16 14 12 10 10 10 9 8 7 7 6 5 5 4 4
9 10 10 11 10 11 12 14 14 15 16 16 18 18 18 17 16 17 19 19 20 19 19 18 19 19 18 15 16 13 13 13 12 12 11 10 9 8 8 7 6 6 5
12 13 13 13 12 13 15 16 18 19 20 21 21 21 22 22 22 21 21 21 21 22 22 21 20 20 20 19 17 12 16 14 15 14 13 12 11 10 10 9 8 7 7
15 16 17 17 16 17 18 19 21 22 24 25 26 27 26 26 25 25 26 25 24 24 25 24 23 22 22 21 19 15 16 16 17 16 15 14 13 12 11 11 9 8 7
19 21 22 22 22 23 24 24 25 26 27 28 31 32 32 31 31 30 30 30 29 29 28 27 26 25 24 23 21 18 17 19 20 17 16 16 15 14 13 12 10 9 7
23 24 24 23 24 26 26 26 27 27 29 29 32 32 29 29 30 30 30 30 29 28 30 29 29 27 26 25 24 22 19 19 20 23 20 17 17 15 14 12 10 9 8
27 28 29 29 28 28 28 27 28 29 30 28 29 32 29 26 30 22 20 20 19 21 24 27 28 28 27 26 26 25 24 21 22 22 23 20 16 14 13 11 11 10 9
28 30 31 32 31 31 30 28 27 25 26 26 26 25 17 17 25 28 23 23 25 24 22 21 23 25 27 27 27 28 27 25 25 22 24 18 16 16 14 12 12 11 10
26 28 29 29 28 28 29 27 25 22 21 22 21 20 21 25 26 19 15 19 17 23 23 25 28 26 23 24 27 29 31 29 28 27 24 18 19 18 15 14 13 12 10
30 31 32 33 33 33 31 28 25 23 21 20 19 15 17 19 19 24 25 22 24 22 23 25 26 27 25 28 30 29 32 33 30 33 35 28 26 23 20 17 13 15 15
18 19 20 20 21 22 21 22 22 22 19 20 17 18 20 20 21 18 22 26 24 25 22 22 23 24 23 24 23 26 31 36 37 34 39 36 34 30 26 26 28 25 22
22 21 21 21 21 21 20 19 22 22 19 16 17 21 24 21 16 17 20 23 25 26 24 20 21 22 24 23 23 24 25 29 37 41 39 34 31 36 37 35 34 30 31
21 20 19 18 17 16 15 14 17 18 17 21 22 24 22 19 17 15 15 19 22 22 20 20 19 19 19 25 27 26 23 26 30 36 37 28 27 32 32 29 32 32 32
16 15 15 15 15 14 13 14 16 20 22 22 22 19 17 15 16 15 16 17 18 17 21 17 20 23 25 26 27 23 26 22 21 27 26 26 26 33 31 33 28 27 26
12 11 12 13 15 15 15 14 13 13 14 14 14 13 13 12 13 14 15 13 14 16 21 23 26 27 27 26 22 21 16 13 11 21 27 29 31 32 29 26 25 25 23
12 12 12 13 13 14 14 13 12 12 11 11 11 11 13 15 16 15 14 14 15 18 21 23 23 23 23 20 17 13 11 10 13 22 21 19 19 22 22 24 21 19 22
14 14 13 14 13 13 12 12 11 11 12 12 13 13 13 12 11 11 11 12 13 14 17 18 19 18 17 14 12 11 8 10 13 19 21 22 26 26 26 24 23 22 21
15 13 12 11 10 9 9 9 10 10 10 10 9 8 8 8 8 8 9 9 8 10 11 12 13 12 12 13 12 9 7 9 11 14 17 18 19 20 21 21 20 16 19
6 7 7 7 7 7 7 8 7 7 7 6 5 5 5 6 6 7 7 8 7 7 8 8 8 10 10 11 10 9 8 9 10 11 13 14 15 17 19 19 20 21 20
6 6 5 4 4 2 4 3 3 3 3 3 4 4 4 5 7 6 7 6 6 7 7 8 10 10 11 11 10 11 10 9 10 11 12 13 15 16 18 19 21 22 22
6 5 5 4 3 1 0 1 1 1 1 2 3 4 4 6 8 9 9 7 8 8 8 9 10 10 10 11 11 10 11 12 11 12 13 14 17 19 20 21 19 19 17
4 5 5 4 3 3 5 5 5 5 4 4 4 5 5 6 7 7 8 8 10 11 11 10 10 10 10 11 12 12 14 15 16 16 20 20 16 13 13 13 14 15 15
4 4 4 6 5 5 6 7 6 5 5 6 5 6 7 8 9 8 9 10 10 11 11 11 11 11 11 12 12 14 15 15 15 13 13 14 10 10 11 13 15 16 16
5 6 7 6 5 5 6 6 7 8 9 9 8 8 9 9 10 9 10 10 11 11 12 12 12 12 12 13 15 15 15 14 13 10 11 11 10 13 12 13 13 15 17
6 6 5 5 4 5 5 6 8 9 9 8 9 9 11 12 12 13 12 11 10 11 11 11 12 13 13 12 12 12 12 11 11 8 6 13 16 15 10 10 5 12 15

GFSMA_850_spd_051.txt.gz
Wind_Speed
4 5 6 6 6 6 5 5 6 6 7 8 9 10 11 12 13 14 14 13 13 12 13 14 17 16 17 16 13 12 11 8 8 8 7 6 6 5 5 4 4 4 4
6 5 5 6 6 7 8 8 9 9 9 11 10 11 12 12 13 13 14 13 14 14 14 15 16 17 16 16 16 14 12 11 10 10 10 9 8 7 7 6 5 5 4
6 7 7 7 7 8 10 11 11 13 13 14 14 14 15 15 16 17 17 17 16 15 16 16 16 17 17 16 14 13 14 11 12 12 12 11 10 10 9 8 7 7 7
9 10 10 10 9 10 12 13 14 15 16 17 18 18 18 19 19 19 20 20 18 18 17 17 18 18 18 17 14 14 13 16 15 13 13 13 12 11 11 11 10 9 9
12 14 14 14 13 15 16 17 18 18 20 21 22 23 22 23 23 24 25 25 24 24 23 22 20 19 19 19 19 15 15 17 18 18 15 13 14 13 12 12 12 11 10
16 18 19 19 18 20 21 21 21 22 22 24 26 26 26 26 24 23 24 24 24 24 24 24 23 23 21 20 20 18 16 18 20 21 21 17 16 15 14 13 12 12 10
20 22 23 23 22 22 22 22 23 23 24 24 27 29 28 27 26 21 20 18 15 17 19 19 20 23 23 22 21 21 20 18 21 23 23 22 18 18 15 13 11 11 10
26 26 26 26 26 26 26 25 25 27 27 26 25 26 21 22 21 15 18 19 19 19 20 19 18 17 18 20 22 22 22 20 19 23 25 24 22 21 19 14 12 12 12
27 28 29 28 28 29 29 28 27 25 25 24 22 20 13 14 19 21 16 15 16 16 16 15 17 19 19 19 20 22 24 24 24 21 23 22 25 21 16 15 14 14 12
23 23 24 24 25 26 26 25 24 24 24 24 21 19 18 18 10 9 8 10 16 13 16 19 20 18 21 16 18 20 22 25 30 29 28 26 23 18 18 15 17 15 14
24 25 26 27 26 27 27 27 27 26 24 22 21 19 16 16 18 16 15 13 13 15 14 14 16 16 16 17 18 17 19 23 25 25 28 28 31 31 13 19 24 24 23
18 19 20 20 21 21 21 20 20 21 21 21 20 19 16 16 16 14 16 15 14 14 16 16 15 14 16 17 18 20 20 20 21 24 28 30 34 25 37 33 25 22 22
21 21 22 21 21 21 21 19 18 18 20 21 20 19 18 18 20 19 17 17 16 14 16 18 13 15 14 16 14 17 18 18 19 21 23 31 34 31 25 27 20 25 25
20 20 18 18 17 16 14 13 13 13 15 19 20 19 23 25 24 19 19 16 18 15 17 18 17 14 15 19 21 21 22 18 19 20 19 23 25 24 21 30 28 25 26
15 15 14 14 14 13 13 12 12 14 16 18 20 22 25 22 17 16 15 14 16 11 13 14 12 13 19 21 21 17 17 19 17 17 17 17 20 20 21 29 29 34 27
13 12 12 12 12 13 13 13 12 13 15 16 17 17 15 14 13 12 12 13 13 14 14 14 18 19 18 18 17 15 13 8 6 6 11 17 21 18 25 24 30 27 29
13 13 13 13 12 13 12 13 12 12 12 12 12 11 11 12 13 15 15 14 14 13 16 17 16 17 17 16 15 15 9 2 3 8 15 17 21 21 29 29 30 24 23
15 14 14 13 13 13 12 11 11 11 10 10 11 11 12 12 12 13 13 12 12 10 11 12 12 12 12 11 13 14 12 7 5 12 16 19 18 18 20 22 24 23 23
15 15 13 12 11 11 10 9 8 9 9 9 9 9 9 10 11 11 10 10 8 7 8 5 8 7 9 9 11 11 8 8 7 7 11 13 15 18 19 19 19 20 18
8 8 9 8 8 8 7 7 6 7 7 7 7 7 6 7 8 7 6 6 4 4 4 4 6 8 8 9 10 9 9 8 7 8 10 11 12 13 15 18 20 20 21
6 7 7 7 6 5 4 4 4 4 4 5 5 5 5 5 5 4 4 4 5 4 6 6 7 7 8 9 10 11 10 10 9 9 10 12 12 13 14 16 18 18 20
7 7 6 6 6 4 3 3 3 2 2 2 3 3 3 4 5 6 6 6 6 6 6 6 7 7 9 9 10 10 10 11 10 11 10 12 16 16 18 19 20 20 19
8 8 8 7 5 5 4 4 4 2 1 2 2 3 4 5 6 6 7 8 8 9 8 7 8 8 9 10 10 11 12 12 13 15 17 15 13 9 10 11 11 11 11
8 8 8 8 7 6 5 5 3 1 1 2 3 4 5 6 6 7 8 9 9 10 9 9 9 10 10 11 11 11 12 12 12 11 10 10 8 6 7 10 10 11 12
8 9 10 8 7 5 4 4 2 3 2 3 4 5 6 7 9 7 9 9 9 10 10 10 10 10 10 11 12 11 11 11 10 8 8 6 8 12 10 8 8 8 8
10 10 9 7 5 4 3 2 3 3 4 5 5 6 8 8 10 11 8 8 8 8 7 8 9 9 9 8 8 8 8 7 8 6 6 13 13 12 8 7 3 13 13

GFSMA_850_spd_054.txt.gz
Wind_Speed
6 7 7 8 7 7 7 6 6 6 7 7 9 9 9 9 10 10 10 11 11 10 11 13 15 16 16 16 16 14 12 10 9 9 8 8 7 7 7 7 6 6 6
7 6 6 7 8 8 8 8 9 9 9 10 10 11 11 11 12 13 14 13 12 12 12 12 13 15 15 16 16 15 15 14 11 10 10 10 9 9 9 8 8 7 6
8 8 8 8 8 9 10 11 11 12 13 14 14 13 14 14 15 16 17 18 18 16 14 13 13 14 15 14 15 17 16 14 14 12 12 12 12 11 11 10 10 9 8
10 10 9 9 9 11 12 13 13 14 15 16 16 14 14 17 18 19 21 22 22 21 21 19 18 16 16 16 16 16 17 18 17 17 14 15 14 14 14 14 12 12 11
12 13 13 13 12 14 16 16 17 18 18 16 16 19 19 20 22 22 22 22 24 24 24 24 21 20 20 18 17 18 17 19 21 19 20 17 15 16 15 15 14 13 13
15 16 17 17 17 19 20 21 22 22 22 20 18 23 23 24 24 22 20 21 22 22 21 22 23 22 21 20 20 20 19 19 22 23 22 21 20 18 18 17 15 13 12
19 20 20 21 21 22 22 22 23 24 22 24 24 25 17 18 17 13 16 15 13 14 15 15 16 18 20 20 20 21 21 20 20 23 24 25 23 22 18 18 15 12 11
23 24 25 26 26 26 26 26 26 26 27 27 25 24 15 12 14 8 11 18 19 15 16 17 17 16 16 16 17 18 20 22 21 22 24 28 29 23 19 17 15 13 11
24 25 27 28 28 29 28 28 28 27 28 27 24 20 9 12 10 12 13 14 13 14 14 17 15 16 17 17 16 18 20 22 24 24 24 23 22 22 17 16 14 16 19
23 24 25 25 25 26 26 26 25 25 25 26 26 24 21 19 11 8 9 10 14 16 15 18 19 18 17 15 14 15 17 19 23 25 25 26 24 25 23 22 19 19 20
24 24 24 25 25 25 25 25 24 25 26 27 26 23 21 19 17 16 9 10 11 11 10 12 17 18 17 15 17 18 18 20 22 24 26 25 26 27 24 18 23 25 27
21 21 21 21 21 22 22 22 22 22 22 23 22 23 23 17 14 13 16 20 17 17 15 14 14 16 15 15 15 17 18 19 20 21 22 20 23 25 29 22 24 23 25
22 22 22 23 23 23 23 22 21 21 21 21 19 24 23 21 19 16 17 18 14 14 9 12 13 16 16 14 16 17 19 21 22 22 21 21 23 26 28 28 24 21 24
22 21 20 20 20 19 18 17 16 16 16 16 18 20 19 19 18 18 15 11 10 11 15 12 16 17 18 17 19 23 24 24 20 20 21 26 25 24 18 19 22 17 28
20 19 18 17 16 15 15 14 13 12 13 14 15 16 17 19 18 20 15 14 14 9 10 14 12 15 18 20 19 19 15 15 18 15 14 17 18 18 14 24 21 24 25
19 18 16 15 14 14 14 14 14 14 15 16 18 19 20 19 18 16 14 13 13 13 12 16 17 21 19 16 14 14 13 11 9 5 5 8 12 14 14 12 20 22 28
19 18 16 15 14 13 13 13 14 13 14 14 14 14 14 14 13 13 13 14 16 14 16 19 19 17 14 11 9 13 10 9 6 5 8 9 10 10 12 17 20 24 26
19 18 17 16 15 15 14 14 14 13 13 12 12 12 13 13 13 13 14 14 13 12 13 13 14 12 10 8 7 9 9 9 6 11 13 15 17 18 19 22 24 26 30
17 18 18 17 16 15 14 13 12 12 12 11 11 11 11 11 11 12 12 11 10 9 10 11 11 10 9 8 7 7 7 9 8 7 10 15 18 20 21 20 22 24 25
16 15 15 16 15 14 12 11 10 11 11 10 10 9 9 8 8 9 8 7 8 7 7 8 8 8 10 9 8 7 8 9 9 10 10 11 13 14 14 16 18 18 18
11 10 10 11 10 11 10 9 8 8 8 7 7 6 7 7 8 9 8 7 7 7 7 8 8 9 8 8 8 10 9 9 11 10 11 14 13 14 14 14 15 16 17
9 9 10 10 10 9 9 8 6 5 6 5 4 5 6 7 8 8 7 7 8 8 8 9 8 8 10 9 9 10 11 10 7 13 10 13 16 16 17 19 20 20 20
9 9 10 10 8 7 6 6 6 5 4 3 4 5 7 8 7 8 8 9 9 8 8 8 8 9 9 10 10 10 11 10 9 12 13 9 10 8 10 11 11 11 12
10 10 10 8 8 7 6 4 4 4 4 5 5 6 6 7 7 7 8 9 9 9 8 8 9 10 10 9 10 10 10 10 9 9 8 6 7 5 9 10 10 10 10
11 10 10 10 9 7 5 4 5 4 3 4 4 5 6 7 7 7 8 8 9 9 9 8 8 8 8 9 8 8 7 7 5 5 8 5 8 10 9 9 9 7 6
11 13 12 11 8 6 5 5 4 2 2 3 4 6 6 7 9 8 7 6 7 8 8 8 8 7 7 7 6 5 5 5 4 4 6 10 10 10 7 8 3 9 15

GFSMA_850_spd_057.txt.gz
Wind_Speed
7 7 7 7 6 7 7 6 6 6 6 6 7 7 8 8 9 10 11 12 11 11 11 12 14 14 15 15 16 16 14 11 11 10 9 9 8 8 7 7 6 7 6
7 6 6 7 8 8 7 7 7 7 7 8 8 9 9 10 12 12 14 15 16 14 14 13 12 12 14 14 17 17 18 17 13 11 11 10 10 10 10 9 8 9 7
8 8 7 7 7 7 8 8 9 10 10 10 10 11 11 12 11 13 15 18 18 20 17 16 15 14 14 15 13 16 18 18 19 15 13 11 11 12 11 11 10 11 8
10 9 8 8 8 8 9 10 9 10 11 12 12 12 14 14 14 15 17 17 18 21 21 22 20 19 18 18 16 15 17 19 18 18 20 18 15 13 14 13 12 12 12
11 11 10 10 10 11 12 12 12 13 14 15 16 15 15 16 16 18 18 18 18 20 22 19 22 21 20 20 19 18 17 18 20 21 18 19 18 17 14 15 14 13 14
12 12 12 13 13 14 15 15 16 17 17 16 16 17 19 20 21 21 16 14 13 14 17 15 16 18 18 17 17 19 19 19 19 20 22 22 20 18 17 13 15 14 13
14 15 16 15 14 16 17 17 18 19 21 19 21 23 20 15 20 16 13 13 11 13 18 18 16 16 15 17 17 17 19 20 20 20 21 22 24 23 21 15 11 11 12
17 18 20 20 21 22 23 23 22 21 23 23 23 22 17 12 14 14 11 12 16 16 14 16 13 14 14 13 14 16 16 17 19 21 21 20 22 25 23 17 13 12 13
20 22 23 23 25 25 27 28 27 25 24 22 22 19 11 10 7 9 10 10 12 12 12 14 14 14 16 15 15 16 16 17 20 23 23 22 21 23 19 21 19 15 14
21 22 23 24 25 26 27 26 25 24 23 23 23 24 21 20 12 11 10 9 7 7 8 9 9 11 14 15 15 16 16 16 18 19 21 22 23 22 22 23 22 20 18
22 23 24 25 25 25 25 25 24 23 22 23 22 20 18 20 21 20 17 16 12 15 10 10 14 12 16 15 16 16 18 18 19 20 21 22 24 22 23 24 27 26 21
22 23 24 23 23 23 23 23 23 23 22 24 21 18 22 21 21 22 19 16 16 19 14 10 17 13 13 15 18 17 19 20 20 19 18 20 21 22 24 22 30 27 22
23 23 24 24 25 25 26 26 25 24 23 23 19 19 19 22 24 17 14 15 16 10 9 11 18 14 15 16 17 18 21 21 24 23 22 23 27 29 28 25 17 16 16
22 23 23 23 24 24 23 22 20 19 18 16 15 18 20 22 23 18 15 15 11 10 10 13 18 17 17 17 20 20 21 22 19 19 19 22 23 26 24 22 20 18 20
23 23 22 21 20 19 19 18 17 16 14 13 13 15 17 19 17 18 20 15 13 9 9 13 15 17 20 24 19 18 17 15 15 14 14 15 11 10 10 13 15 18 18
24 22 21 20 19 18 16 16 17 17 16 15 14 16 17 20 20 18 16 14 14 14 12 14 19 21 22 22 19 14 12 11 10 11 9 5 5 7 6 5 13 13 13
23 22 21 20 19 17 15 16 16 16 15 15 15 15 14 13 13 12 12 12 14 14 16 19 21 20 18 16 13 11 10 9 9 9 8 7 7 6 8 9 11 13 17
23 21 21 20 19 17 16 16 16 15 14 13 12 12 12 11 11 12 13 14 15 14 15 15 15 16 14 12 12 11 11 9 10 9 11 11 13 14 15 16 17 19 21
20 19 19 19 19 18 17 17 16 14 13 13 12 12 11 12 12 11 12 13 13 13 11 12 14 12 12 10 11 11 10 9 10 9 10 12 16 18 20 21 21 21 21
16 17 17 19 19 19 17 15 14 14 13 12 12 12 11 10 10 9 9 8 7 7 7 9 9 10 11 10 10 11 9 11 12 11 12 13 13 14 14 16 17 17 18
15 16 16 15 14 15 15 13 12 12 12 11 10 10 8 9 8 7 7 6 6 5 7 7 8 8 10 8 10 11 11 11 10 12 13 13 14 14 14 15 16 17 17
13 13 12 11 11 11 11 11 9 9 9 9 8 7 7 7 5 5 5 5 7 7 8 9 7 6 8 11 10 12 12 12 7 14 12 12 16 15 16 17 18 17 18
12 10 9 10 10 8 8 9 9 7 6 6 6 6 6 5 6 7 8 7 7 7 8 9 8 10 10 14 12 13 12 11 10 13 13 8 8 7 9 11 11 11 12
11 10 10 9 9 8 8 7 7 6 7 6 6 5 6 6 7 8 8 8 8 8 8 9 10 12 12 13 12 10 10 10 8 10 9 7 6 6 9 10 10 10 10
12 11 11 9 9 8 7 6 5 6 5 5 6 7 7 7 6 7 8 7 8 9 7 7 9 10 11 10 9 9 8 7 5 5 11 7 8 10 10 10 10 8 7
12 12 11 11 10 8 7 5 5 5 5 6 7 7 7 8 7 7 7 6 6 8 8 7 7 7 8 7 7 7 7 5 5 4 8 10 11 11 6 8 5 8 13

GFSMA_850_spd_060.txt.gz
Wind_Speed
7 8 7 7 5 4 5 6 6 5 7 7 9 9 11 11 11 11 14 14 13 13 12 12 14 14 14 14 15 15 15 13 13 13 10 9 9 8 7 7 7 7 7
7 6 7 8 7 8 7 6 6 6 8 7 9 10 10 12 14 15 16 18 18 17 16 15 14 14 14 15 15 16 16 16 16 14 15 11 10 10 9 8 8 8 8
9 7 6 5 6 6 7 7 10 11 12 11 11 10 12 13 13 15 17 17 19 22 23 19 17 17 17 16 15 15 17 17 16 16 16 13 12 10 10 10 9 10 9
10 9 8 9 8 7 9 10 10 10 11 11 13 14 14 17 16 14 17 19 19 21 22 24 22 19 18 18 18 16 17 18 18 16 15 16 13 11 10 10 10 10 11
10 10 10 8 8 9 10 10 10 12 14 15 17 19 15 17 19 18 22 24 19 16 17 18 22 19 17 16 17 18 17 18 17 18 18 17 16 15 12 11 9 10 12
9 11 10 9 10 12 15 15 15 15 18 20 19 18 21 20 21 20 20 14 11 14 18 19 18 15 14 13 12 13 16 17 18 18 18 20 19 18 17 14 12 9 10
12 12 14 13 14 15 16 16 16 17 19 19 22 22 24 21 21 18 14 11 14 18 19 18 14 13 13 14 15 15 14 15 17 17 18 17 19 21 22 22 17 16 10
15 15 16 16 16 18 18 19 20 22 22 22 23 24 21 20 19 11 13 16 16 17 14 14 14 13 13 12 15 15 16 16 17 18 20 19 17 16 18 24 17 13 11
17 18 18 20 20 22 23 23 23 24 24 25 25 21 10 5 5 5 10 14 14 12 9 12 13 14 16 16 16 16 15 14 15 18 20 20 20 19 18 18 24 19 16
16 18 19 20 20 22 23 24 23 23 21 21 21 20 21 21 15 11 14 14 10 10 6 9 15 19 19 15 15 14 14 16 17 17 17 18 18 19 19 17 20 24 21
18 18 20 21 22 22 23 22 22 22 21 19 18 18 17 18 19 21 21 21 14 17 15 16 18 18 18 14 12 13 14 16 16 17 17 18 18 19 17 19 19 24 27
19 19 21 22 23 23 23 23 22 22 22 21 18 19 17 20 20 21 23 24 21 18 17 19 17 19 15 16 15 17 18 17 19 19 18 17 17 19 22 25 19 19 25
20 23 24 22 22 22 23 23 24 24 23 22 22 20 17 20 22 22 25 22 17 14 11 16 16 19 17 16 17 18 21 19 21 20 18 18 20 22 22 22 23 24 23
22 22 22 22 21 22 21 23 22 22 19 18 17 16 17 21 20 24 25 15 16 13 11 16 18 16 18 16 19 22 20 18 19 16 14 13 15 16 17 14 13 16 10
21 22 22 23 22 21 20 20 19 19 16 14 13 14 13 15 15 16 18 21 18 13 14 18 16 16 16 20 21 21 17 14 13 11 12 11 8 8 8 3 7 7 14
24 24 23 23 22 21 19 18 16 16 16 15 14 15 14 16 17 19 21 21 18 16 15 14 16 15 18 21 19 15 11 11 11 11 9 6 5 3 1 7 7 10 14
25 24 24 22 21 19 18 17 16 16 15 16 16 18 19 19 20 19 17 15 14 14 17 20 20 18 20 17 14 11 10 12 12 11 10 6 3 3 3 6 7 6 7
25 23 21 20 20 19 18 17 18 16 16 15 15 14 13 13 13 13 13 14 15 13 15 16 16 16 14 12 11 9 9 10 10 9 9 8 8 9 10 10 11 14 15
23 21 19 18 18 18 18 18 19 17 16 15 15 14 13 14 14 13 13 12 12 13 13 14 11 13 10 8 9 9 9 10 10 10 9 9 9 10 13 14 15 16 17
20 18 17 17 18 19 18 18 17 17 16 15 14 14 14 14 13 11 11 11 12 10 9 9 9 7 8 8 7 7 7 10 11 11 11 12 12 11 12 13 14 14 14
16 15 14 16 16 16 16 16 15 16 15 15 13 12 12 12 11 10 9 10 9 9 10 8 7 7 6 7 8 9 10 10 12 13 11 12 13 12 12 14 14 14 13
13 12 14 14 14 13 11 11 11 12 12 12 10 10 10 9 9 8 8 9 8 8 9 9 8 7 8 9 11 10 10 10 9 12 11 11 11 10 11 11 12 12 13
11 12 12 12 11 10 10 10 12 10 9 9 9 8 6 7 6 6 6 6 6 6 8 9 9 10 11 11 12 12 11 10 10 10 9 6 6 5 7 8 7 7 8
11 12 11 10 11 8 7 8 7 7 7 7 7 7 6 6 6 6 6 7 7 7 8 9 9 10 10 10 10 9 8 8 7 7 6 5 5 5 7 9 8 8 8
12 11 12 12 9 7 7 7 7 7 7 6 8 6 6 6 4 7 6 9 8 7 7 8 8 9 9 9 9 8 7 6 4 5 6 6 7 9 9 7 5 6 6
12 12 13 11 9 8 6 6 6 7 7 7 7 6 7 7 7 7 8 9 7 7 6 6 7 7 7 6 7 5 5 5 4 4 4 7 9 10 6 6 5 11 11

GFSMA_850_spd_063.txt.gz
Wind_Speed
9 9 7 5 4 4 3 4 3 4 6 7 8 9 9 11 12 12 13 13 14 14 13 14 15 15 14 13 14 14 14 13 11 11 10 10 10 9 8 7 7 7 7
8 9 8 6 5 5 4 5 6 6 6 8 8 10 11 11 14 15 16 17 18 17 17 17 16 15 15 15 15 17 18 15 14 12 11 10 8 7 7 7 7 7 7
9 9 9 7 6 7 7 8 8 9 11 11 10 8 11 13 15 17 17 17 16 17 17 18 18 18 16 16 17 17 17 17 17 15 13 12 10 9 8 6 7 8 9
12 10 9 9 8 7 7 7 9 11 10 10 12 12 15 16 17 19 20 17 18 21 19 19 17 18 18 16 16 17 17 17 16 17 16 15 12 11 9 8 6 7 8
12 12 10 9 9 8 9 9 9 10 12 14 16 17 19 20 19 19 19 20 20 17 12 12 16 18 15 13 12 14 15 17 16 15 17 17 16 14 11 9 7 6 8
10 12 11 10 9 11 12 13 15 14 14 17 18 20 20 21 21 22 21 18 11 14 13 15 18 18 15 14 13 14 14 15 17 17 16 15 18 18 17 13 10 7 7
11 12 12 11 13 15 15 16 16 16 17 17 21 22 22 22 25 22 13 15 15 15 16 17 17 13 15 14 14 14 13 13 13 15 17 14 15 16 21 24 17 11 14
16 14 15 16 17 16 17 17 18 20 21 21 23 24 27 23 20 8 12 13 15 15 15 15 16 13 14 15 16 15 15 15 16 17 18 19 18 17 14 15 20 18 15
21 19 18 17 18 18 20 21 22 23 23 23 23 21 12 6 6 6 6 11 12 15 13 12 16 19 21 18 16 14 14 14 14 14 16 18 18 17 18 17 15 22 19
18 19 18 19 21 20 20 20 22 22 22 23 20 21 21 20 16 10 11 12 12 15 11 15 16 21 25 21 17 15 13 13 15 15 15 14 15 13 12 15 16 18 25
20 18 17 17 19 19 20 22 22 22 21 21 20 18 19 19 20 21 20 20 17 18 16 15 16 19 22 18 15 15 13 15 15 16 15 15 15 15 14 19 18 14 24
19 17 16 18 19 21 23 23 22 22 22 22 22 21 20 20 20 20 22 22 19 17 17 16 18 20 20 19 18 17 17 18 17 14 13 14 17 19 19 16 18 19 16
18 18 17 19 21 22 23 23 23 22 22 23 23 23 25 26 19 20 21 20 20 20 18 16 18 17 19 18 17 17 20 20 16 9 8 9 12 14 14 14 15 16 16
18 19 19 21 22 23 23 22 23 22 21 21 19 17 17 18 20 20 22 23 21 22 16 17 18 19 19 17 17 18 20 17 13 11 10 9 10 10 8 4 3 4 8
17 17 19 21 22 23 23 23 23 21 21 19 15 14 14 16 17 19 22 23 22 13 17 19 19 19 19 18 18 19 17 12 11 10 10 8 6 7 7 6 6 2 3
17 19 21 23 23 23 23 23 23 21 19 17 15 14 15 15 16 16 19 18 18 18 16 16 18 18 17 18 19 17 13 9 10 10 11 7 3 4 4 4 3 3 5
21 23 24 26 24 24 22 22 21 20 18 18 18 18 18 18 19 20 21 23 23 18 17 20 18 18 19 18 18 12 10 9 8 8 9 8 1 2 3 6 6 4 4
24 25 27 28 26 24 22 22 22 21 19 20 19 18 19 18 20 21 17 18 18 16 16 18 19 18 18 18 12 10 9 9 8 8 8 7 5 5 7 8 8 10 10
24 25 25 24 22 20 20 20 21 21 20 19 18 17 16 16 16 17 16 16 15 14 13 15 15 16 15 9 9 9 10 9 9 9 9 9 7 7 8 9 11 14 16
22 22 21 20 18 18 19 20 20 21 19 18 16 16 15 15 16 15 14 13 13 13 14 13 14 14 11 9 9 8 8 9 10 10 11 10 9 9 9 10 10 10 11
21 20 19 19 17 17 18 19 19 20 20 18 17 17 16 16 16 13 12 11 11 11 10 11 10 11 8 9 6 8 8 10 10 9 9 10 9 9 10 10 11 12 12
20 18 16 16 16 16 16 16 15 17 18 16 16 16 15 15 13 12 11 11 11 10 12 10 10 10 9 8 8 9 9 10 8 7 6 8 6 5 5 5 6 6 7
17 15 14 14 14 13 13 13 14 14 13 11 11 12 12 10 8 8 8 7 7 8 9 8 8 8 9 9 10 11 10 9 7 6 4 3 1 2 3 3 3 4 5
15 14 13 13 12 12 13 12 10 11 10 9 9 9 9 9 9 8 7 7 7 7 8 6 8 9 10 10 10 9 7 7 5 4 2 3 1 1 4 4 4 5 4
15 13 12 13 12 13 10 8 8 9 9 8 8 9 9 8 7 6 7 6 6 7 7 8 8 9 10 9 9 8 7 5 5 4 2 1 1 4 3 1 1 1 2
14 12 13 13 14 10 9 8 7 7 8 9 9 10 9 8 7 6 6 6 6 6 6 7 7 7 7 7 8 7 6 5 4 4 1 2 4 4 2 1 2 7 7

GFSMA_850_spd_066.txt.gz
Wind_Speed
8 7 8 8 7 7 6 5 4 3 2 3 5 6 7 9 9 10 10 12 12 13 13 14 14 16 15 15 15 15 14 13 12 10 9 9 8 7 6 6 6 7 6
9 10 11 9 8 7 6 4 4 4 5 6 7 9 9 9 12 13 14 16 15 15 14 16 15 16 14 15 16 16 17 18 15 12 11 10 9 8 7 6 6 6 6
12 11 12 10 7 6 5 6 7 7 8 9 10 7 8 12 13 15 15 16 17 15 18 17 15 18 13 16 14 13 16 17 17 16 15 12 11 9 8 7 7 6 5
13 12 12 11 8 7 7 7 8 9 10 10 10 11 13 15 17 20 20 19 19 17 18 19 15 13 15 15 14 12 13 18 16 16 17 15 14 11 10 8 6 6 5
12 14 13 11 10 9 8 8 9 9 10 12 14 16 17 18 20 20 21 21 22 19 15 13 14 16 17 17 13 13 14 16 18 16 14 17 17 16 13 11 8 5 4
12 14 14 13 11 10 11 12 13 14 16 16 16 19 18 20 20 21 21 23 19 16 13 14 15 17 17 15 14 13 14 15 15 16 15 14 14 20 18 15 11 6 5
15 12 14 12 11 13 14 15 17 18 17 17 20 22 23 22 22 23 25 22 16 17 15 17 14 18 16 13 14 14 14 14 14 16 15 15 14 13 15 20 20 18 9
19 17 16 16 16 16 16 16 18 19 21 19 21 24 24 21 18 17 11 12 10 15 14 14 16 13 12 17 18 15 14 15 15 17 16 16 16 16 16 14 16 22 14
21 19 18 18 19 20 21 21 21 23 24 25 24 21 10 5 7 10 10 7 10 11 15 17 14 14 16 19 18 16 13 14 14 14 15 15 17 15 14 15 15 16 22
22 23 23 22 22 21 23 23 24 25 25 25 23 22 22 24 15 9 11 15 15 13 16 16 14 13 15 17 18 15 12 13 14 14 15 15 15 14 10 12 14 13 17
25 21 22 21 20 21 22 22 23 24 24 24 22 21 21 20 22 23 19 23 20 21 19 19 15 14 16 17 17 15 14 14 15 15 15 15 16 17 17 18 17 18 16
22 24 24 22 19 19 21 23 24 23 23 23 22 22 23 22 21 20 23 23 23 21 19 19 17 18 16 15 17 16 15 14 15 11 8 11 15 17 19 19 18 15 16
27 27 21 19 18 21 22 22 23 23 24 24 24 23 23 25 25 23 22 21 22 20 20 20 19 20 17 16 16 16 16 17 15 7 5 5 9 10 11 10 12 15 15
23 20 18 18 19 22 23 24 24 25 24 24 24 23 23 20 20 23 24 21 21 23 23 24 22 18 18 17 17 17 17 17 15 11 9 7 5 5 4 6 3 2 7
18 15 17 18 20 22 26 26 26 25 25 24 23 23 21 18 18 18 19 21 22 22 21 22 17 19 19 18 16 16 18 16 11 9 8 4 2 4 3 1 1 3 1
18 19 18 19 22 23 24 25 26 25 24 23 21 18 17 17 17 18 20 21 17 15 13 16 17 20 20 17 16 18 18 13 10 8 9 6 1 4 5 6 6 4 4
21 20 23 23 25 24 25 25 25 25 23 21 19 19 18 18 18 19 19 20 21 23 20 21 19 18 18 17 18 18 15 10 9 7 6 4 3 6 7 8 7 5 5
24 21 24 23 23 23 24 23 22 22 22 20 19 20 20 20 21 21 22 25 25 26 22 18 19 18 18 19 19 15 11 9 8 7 7 6 6 6 9 10 10 9 10
18 19 22 23 23 23 22 23 23 21 21 21 19 21 20 20 21 20 19 18 19 19 16 17 18 18 16 19 14 11 11 10 10 9 10 11 9 9 8 9 11 14 15
19 21 22 23 23 22 21 21 21 21 21 21 18 19 19 18 18 18 17 17 17 14 13 14 13 13 14 14 11 10 10 9 10 11 11 11 10 10 10 11 11 11 13
20 21 23 22 21 20 19 19 19 17 17 19 18 19 19 18 18 18 16 14 15 14 14 12 11 13 13 13 8 8 9 9 11 11 11 10 10 9 8 10 11 12 12
22 22 22 21 20 19 18 18 17 16 16 18 19 18 19 18 17 16 14 14 13 13 13 13 14 14 12 9 8 8 8 7 8 10 10 9 8 6 4 4 4 4 5
21 21 20 20 17 16 15 15 14 13 13 14 14 14 14 13 13 11 11 10 11 11 10 11 12 11 10 9 8 9 9 7 8 9 8 6 5 4 3 3 2 2 2
21 20 19 17 15 13 14 13 13 13 12 12 11 11 11 10 9 10 10 9 8 8 8 8 10 11 10 9 9 8 7 6 6 6 6 5 4 4 4 4 4 3 3
21 20 19 16 12 12 13 14 12 11 11 11 11 11 9 9 10 10 10 9 9 10 8 9 10 10 9 9 8 7 6 6 5 6 5 4 5 4 4 4 4 3 2
20 18 15 13 13 13 14 11 8 8 9 9 10 9 8 9 9 8 9 9 9 8 8 7 7 7 7 6 5 5 5 5 5 5 6 5 5 4 3 6 6 6 7

GFSMA_850_spd_069.txt.gz
Wind_Speed
10 9 9 9 8 9 8 7 5 4 4 4 4 4 4 5 5 7 9 11 12 12 13 14 15 15 20 15 14 15 15 14 13 12 10 10 10 9 9 9 8 8 6
11 10 10 9 9 7 7 6 6 6 5 5 6 7 8 6 8 11 13 13 13 13 14 17 16 15 16 15 15 16 16 16 14 15 14 11 9 9 9 9 8 8 7
10 10 10 11 9 8 8 7 6 7 7 8 9 8 7 10 10 13 15 17 15 15 16 17 17 16 13 15 15 13 14 15 15 15 14 14 11 10 9 8 8 7 6
9 11 11 12 11 10 8 7 7 7 9 10 9 10 12 14 15 18 19 20 18 18 18 18 16 11 12 16 16 15 15 15 16 16 14 16 15 12 11 9 9 7 4
11 13 14 11 12 10 8 7 7 9 9 10 13 15 16 16 19 19 20 20 19 20 19 14 13 10 13 17 15 13 15 16 16 15 13 12 15 15 13 12 11 9 6
14 14 14 14 13 12 9 9 10 12 14 15 17 18 18 19 22 23 24 22 23 20 14 13 11 13 15 17 14 13 14 16 16 14 13 12 11 11 18 15 14 9 8
17 15 13 14 14 14 10 12 13 15 17 17 19 20 24 22 27 25 24 21 20 17 12 12 14 12 14 13 13 15 16 15 16 16 16 14 14 12 10 11 19 19 14
19 18 16 12 11 13 14 14 15 17 18 18 20 23 25 23 20 11 12 12 11 7 9 13 11 12 10 13 14 16 16 15 14 15 16 15 14 12 12 14 13 15 21
18 23 21 19 17 17 17 19 20 21 22 22 22 22 11 7 10 12 11 11 7 9 11 14 14 13 11 13 14 16 16 14 13 13 14 14 15 14 11 10 13 15 15
25 24 22 19 17 17 19 20 22 24 24 25 24 23 21 23 13 11 9 12 11 13 15 16 15 14 17 15 15 15 15 15 15 15 14 14 14 12 11 9 11 12 13
24 23 22 15 15 18 18 25 25 23 23 24 23 23 22 20 20 22 23 19 19 19 19 19 20 18 20 17 16 14 15 14 14 15 13 12 13 15 16 15 16 17 16
25 23 20 20 19 21 25 24 23 24 24 23 22 22 22 22 21 18 19 23 25 22 22 20 22 20 21 18 17 15 16 14 15 13 7 7 11 14 14 15 15 15 15
26 21 21 23 23 24 21 21 23 23 23 22 21 22 21 22 22 23 22 20 22 22 21 23 24 23 21 19 15 17 16 16 16 16 14 14 12 7 7 9 7 9 16
22 20 20 21 17 19 22 21 22 22 23 24 23 23 23 22 20 20 21 22 22 22 24 20 22 25 25 19 14 19 18 16 17 15 12 10 5 1 3 3 1 2 4
24 21 14 15 18 20 20 24 24 24 24 25 24 24 23 21 19 19 19 21 21 22 19 20 25 25 23 17 16 19 18 16 17 13 9 7 4 5 5 3 2 5 5
12 15 17 24 24 23 24 24 26 26 27 25 25 24 23 20 17 18 18 18 19 24 23 25 23 20 16 16 16 18 17 17 14 11 8 6 4 7 6 6 6 6 5
22 28 25 21 22 24 24 26 25 25 26 26 26 24 21 18 18 19 18 17 17 16 18 16 17 18 19 15 18 17 17 16 12 10 8 6 4 7 9 9 7 6 6
23 21 20 22 24 23 23 25 26 24 23 24 23 20 18 19 20 20 21 21 23 24 22 23 23 21 19 18 18 18 16 14 11 10 9 8 6 7 9 10 10 10 9
20 21 22 21 21 21 22 24 23 22 21 21 22 20 19 19 21 21 21 22 22 22 22 20 20 19 18 18 19 18 14 12 11 11 11 10 9 9 9 10 10 13 13
22 20 20 20 20 22 23 22 22 21 20 20 21 19 19 17 18 18 17 17 18 17 16 16 17 17 18 17 18 14 12 12 11 11 12 12 10 9 11 12 11 11 12
20 19 19 20 21 21 21 20 20 20 19 17 17 17 17 18 18 18 17 17 17 14 13 13 13 14 16 17 15 12 13 12 12 12 11 11 11 9 10 11 12 12 13
19 19 20 20 21 20 19 18 18 18 16 15 14 15 16 17 18 18 18 15 14 14 15 13 13 14 14 14 11 10 11 10 10 11 10 10 9 7 7 6 6 7 8
21 20 20 21 20 18 17 16 16 15 14 13 13 13 14 14 14 14 12 11 11 13 14 14 13 15 14 11 11 11 11 10 10 10 8 8 6 5 4 4 4 4 4
21 21 21 21 19 16 15 14 14 14 13 12 13 12 11 11 11 10 9 10 9 8 9 9 10 11 12 11 12 11 11 9 8 7 7 6 6 5 5 5 5 6 5
22 21 21 21 18 15 14 14 15 16 13 13 13 12 12 11 10 9 9 10 9 8 8 7 9 10 10 10 11 10 9 8 7 7 7 6 7 6 6 6 7 6 6
23 22 21 20 16 14 13 15 15 12 11 12 12 11 9 9 10 8 8 9 8 8 8 8 7 6 7 8 7 7 8 7 7 7 8 8 7 6 5 8 8 8 8

GFSMA_850_spd_072.txt.gz
Wind_Speed
10 10 10 10 11 11 10 9 8 7 6 5 4 3 3 3 3 5 7 10 11 10 11 11 11 13 14 16 14 16 13 13 12 11 10 9 8 8 7 7 7 5 5
11 11 10 11 10 10 10 10 9 8 6 5 5 4 5 4 6 8 9 11 13 15 13 16 12 14 15 13 12 15 14 14 12 12 11 13 11 8 7 7 6 5 4
11 10 10 11 11 10 11 10 8 7 6 5 5 6 5 7 9 11 14 15 16 17 17 15 15 13 18 11 14 16 15 15 14 13 13 13 14 11 9 7 6 5 3
10 10 10 10 11 11 11 9 8 7 5 6 6 5 8 11 14 13 17 19 16 18 18 17 17 13 10 10 14 17 16 14 13 13 13 13 13 13 11 10 7 7 5
12 10 10 9 12 12 10 8 7 5 6 6 8 10 13 15 16 17 20 20 21 18 19 17 15 9 8 10 14 13 14 16 15 14 13 12 11 12 13 11 10 9 6
15 13 10 11 12 13 11 9 7 8 10 11 13 16 17 18 20 22 24 24 24 22 18 12 9 8 8 11 10 10 13 15 16 15 14 12 11 11 10 15 14 12 7
19 18 12 11 15 14 11 9 11 11 13 15 16 18 18 23 21 19 17 13 13 11 9 9 7 10 11 14 12 12 13 15 14 14 14 13 12 12 12 10 11 17 16
20 21 16 13 13 13 13 12 13 13 14 15 17 20 20 20 6 6 11 10 8 10 6 9 10 10 13 13 12 12 13 14 14 13 14 13 12 12 12 12 13 13 16
23 23 21 21 19 17 16 15 14 16 18 19 19 16 11 8 18 14 11 10 9 7 9 10 11 13 15 14 14 15 14 13 13 13 13 13 12 11 9 7 10 13 15
23 22 22 25 22 20 15 13 15 17 19 22 22 21 20 22 16 10 9 8 9 10 13 15 16 17 14 15 18 18 16 14 14 14 11 11 11 9 10 12 12 12 12
23 23 23 23 22 14 11 12 17 18 20 21 21 22 21 19 19 19 23 18 17 16 19 18 20 21 20 18 18 18 15 13 12 7 6 8 8 10 12 11 12 14 15
24 22 23 23 17 14 15 17 21 20 22 22 22 21 21 21 19 17 17 20 20 20 21 20 21 21 22 20 20 18 16 14 13 13 13 15 15 8 8 10 10 10 14
26 23 28 22 15 19 18 19 19 19 22 21 20 21 21 21 21 21 19 22 21 23 22 20 21 23 23 22 22 21 15 16 14 14 15 16 12 5 4 5 6 2 7
21 23 19 8 12 14 19 18 19 18 19 20 21 22 21 21 21 21 20 17 21 23 25 28 20 24 26 24 22 20 13 14 15 15 15 13 9 6 4 1 3 2 2
19 15 12 13 19 19 20 20 18 18 19 23 23 23 23 20 19 19 19 18 20 21 21 23 21 24 23 24 23 19 14 16 16 15 15 12 9 7 5 4 4 3 2
16 16 18 19 19 20 20 20 18 20 24 23 23 23 22 20 19 17 18 19 20 22 25 21 17 21 22 22 19 17 14 18 17 16 14 11 8 10 9 6 5 7 3
17 19 18 20 20 19 19 18 22 24 23 23 23 23 21 20 17 17 19 18 19 21 22 23 25 16 15 16 18 17 18 19 17 15 13 10 8 8 10 10 7 6 5
15 15 17 19 18 17 19 21 22 22 22 21 21 22 21 18 17 18 19 19 21 22 20 20 18 15 16 18 17 19 19 17 15 13 11 10 9 8 10 11 11 10 9
19 17 16 16 17 19 20 21 21 21 20 20 20 20 18 18 18 20 20 20 21 22 23 24 21 22 20 18 18 18 18 17 13 12 10 11 10 10 11 10 11 12 13
18 18 18 19 19 19 20 20 20 19 20 20 20 19 20 19 18 19 19 19 19 19 19 19 18 16 17 17 17 18 18 13 13 12 12 12 11 11 12 11 11 11 11
21 22 20 19 19 20 20 20 20 20 19 19 17 15 15 15 16 17 17 17 18 18 18 16 15 15 16 16 17 17 13 13 13 13 12 12 11 11 11 11 12 12 11
21 20 19 19 19 19 20 19 18 17 17 17 12 13 12 12 14 14 16 17 19 15 13 13 14 15 15 15 15 12 11 11 10 11 11 11 11 9 9 8 9 8 9
20 19 19 19 18 18 18 18 17 17 16 13 11 11 11 12 13 14 14 15 14 13 14 14 14 13 13 14 11 11 11 10 10 10 9 8 9 8 7 6 6 5 5
20 20 19 19 18 18 19 18 16 16 13 12 12 11 11 11 11 12 13 11 11 10 10 11 13 13 12 11 11 10 10 10 9 9 9 8 8 8 8 8 8 8 6
21 20 19 19 20 19 19 17 14 14 15 15 13 12 12 12 12 13 11 10 10 9 8 7 7 8 9 10 10 10 10 9 8 8 8 7 8 8 8 8 8 8 7
22 21 20 19 20 19 16 14 13 15 15 13 13 14 14 13 13 11 9 9 9 9 8 8 7 7 8 8 9 9 8 8 8 6 8 8 7 7 5 9 9 8 8

GFSMA_850_spd_075.txt.gz
Wind_Speed
11 12 12 12 12 12 11 10 10 9 8 7 6 5 4 4 3 3 4 6 7 10 11 10 13 9 11 13 15 11 14 12 11 11 10 9 7 7 7 6 4 2 1
12 12 12 11 12 12 13 12 11 10 9 7 6 5 5 4 4 5 6 8 9 12 13 13 12 12 11 14 12 13 16 15 12 10 10 10 10 8 6 6 5 3 1
14 12 12 11 12 12 13 13 12 10 9 7 6 5 3 5 6 8 10 10 15 12 14 14 13 15 14 14 10 13 15 13 11 9 10 11 9 11 9 7 6 5 2
14 13 13 12 13 14 13 13 12 10 8 6 3 2 4 8 11 13 14 15 16 15 14 12 13 11 12 9 10 14 15 14 12 11 11 11 10 11 12 10 8 7 4
15 13 12 12 12 15 15 14 12 10 7 4 4 6 9 13 15 17 17 18 20 19 18 15 12 8 7 8 11 13 12 13 14 14 12 11 11 10 13 13 11 9 7
16 16 14 13 14 15 16 14 12 9 6 8 9 10 13 15 16 20 21 20 18 16 13 11 7 7 8 9 11 13 12 13 14 14 13 11 10 11 11 11 16 13 11
21 22 20 17 15 17 16 15 12 12 10 9 11 13 15 19 15 14 10 10 13 11 9 8 8 8 9 9 12 14 11 12 14 13 14 12 10 12 13 13 10 17 17
29 24 21 23 19 16 17 18 16 14 11 9 11 12 12 15 6 9 14 10 9 11 10 9 10 10 9 10 14 13 13 13 14 14 13 12 12 10 10 12 14 14 13
37 25 25 26 22 18 18 20 18 17 13 12 12 11 7 5 15 13 12 14 9 8 8 11 12 12 11 11 14 14 15 15 15 16 13 12 11 9 9 9 13 13 16
23 23 24 27 27 27 24 22 17 15 13 14 14 16 17 18 10 8 12 9 12 11 10 13 15 14 14 15 13 18 16 15 15 15 9 6 7 9 11 13 13 15 14
17 18 22 23 24 25 26 21 18 13 12 17 17 17 15 15 16 17 15 16 14 13 15 15 17 20 18 20 18 19 16 14 13 13 12 10 12 12 8 12 12 15 17
18 18 22 22 23 24 21 16 14 16 16 17 20 18 18 17 16 16 18 22 20 18 16 17 19 22 20 20 20 21 18 17 15 13 15 16 17 12 1 8 7 10 15
21 18 21 22 19 15 18 15 13 12 15 14 18 19 18 17 18 18 19 18 18 21 20 21 20 21 20 22 22 21 20 19 17 13 15 18 17 11 7 6 4 3 4
19 18 18 22 17 10 11 9 11 13 18 20 18 18 19 19 20 20 21 20 18 17 20 22 21 22 22 22 22 23 22 20 17 15 15 17 15 9 9 9 6 4 4
18 19 17 18 19 20 15 13 17 20 19 17 18 20 21 21 20 20 21 20 19 15 16 17 20 21 22 24 23 22 23 20 15 15 16 16 13 11 10 9 6 4 4
16 17 16 15 15 16 19 20 18 18 18 18 21 21 21 20 19 19 19 19 19 22 23 20 18 19 20 17 22 23 20 18 16 18 17 15 13 11 14 11 9 7 6
15 22 20 21 21 18 19 17 18 17 19 19 21 23 22 20 20 19 18 19 20 20 23 23 21 15 21 18 16 16 17 16 16 19 16 13 12 10 11 12 10 7 7
13 19 20 19 16 17 18 19 18 18 18 19 20 22 21 20 20 19 16 19 19 20 21 20 16 13 14 15 17 18 18 17 18 19 15 12 11 10 10 10 11 11 8
11 13 14 16 19 19 17 17 17 16 18 20 20 20 19 19 19 18 17 19 20 20 20 21 21 20 20 20 19 21 19 17 18 17 14 12 11 11 11 10 11 13 13
15 17 17 17 17 18 17 16 16 17 19 19 18 18 18 18 19 18 18 18 18 19 19 20 20 19 19 19 20 19 19 18 18 16 14 13 12 13 14 12 11 11 12
17 18 18 18 18 19 18 17 17 17 18 18 17 17 16 16 13 14 15 15 15 16 17 19 20 20 19 18 18 18 18 17 15 15 13 13 12 12 12 12 12 12 12
21 22 22 22 21 20 19 18 18 18 17 16 15 14 12 10 11 12 13 14 15 16 18 18 17 15 15 15 15 16 16 15 14 14 14 13 11 11 11 11 10 10 10
22 22 22 21 20 18 17 17 18 17 16 17 16 13 10 10 12 13 14 15 15 15 16 16 15 15 16 14 15 16 14 12 13 10 7 9 9 10 9 9 8 6 5
23 22 21 20 19 18 18 18 19 19 17 16 14 10 10 11 12 12 12 14 15 15 15 15 17 17 17 17 14 12 12 13 12 11 11 10 9 10 9 8 7 7 6
23 22 21 21 20 19 18 18 19 18 16 15 14 12 12 13 14 15 15 14 12 12 11 10 10 11 11 12 12 12 12 12 11 10 9 9 9 9 9 8 8 7 8
22 22 22 21 20 20 20 19 21 19 17 16 15 14 15 16 15 16 15 13 12 11 10 9 8 8 9 10 10 10 10 10 10 8 9 9 8 9 7 10 10 9 9

GFSMA_850_spd_078.txt.gz
Wind_Speed
16 16 16 15 15 15 14 14 13 12 10 9 8 7 6 6 5 5 5 6 5 6 9 11 9 10 9 11 12 12 11 13 11 10 10 9 8 8 7 5 5 4 4
14 14 15 14 14 15 15 14 11 11 10 10 8 8 7 7 6 6 6 8 11 10 12 13 12 10 11 12 13 12 12 13 11 10 10 10 10 9 8 7 5 5 4
11 12 13 13 13 14 16 16 15 14 11 10 9 8 7 7 8 8 8 8 10 13 12 13 11 11 13 13 13 10 12 11 9 9 9 9 9 11 11 9 7 5 5
14 15 13 14 14 15 16 16 14 13 11 10 9 8 7 7 8 8 11 11 11 13 15 15 12 12 13 13 11 11 12 13 11 10 10 11 10 10 12 12 11 8 6
17 16 15 14 16 17 18 17 16 13 12 11 10 8 9 8 9 10 10 13 15 20 16 17 15 13 10 11 10 11 12 13 13 12 11 11 12 11 11 15 14 12 8
18 19 18 16 16 18 19 19 17 16 13 12 10 11 11 10 10 11 12 12 12 14 14 12 11 12 10 9 11 10 13 13 13 13 13 10 11 12 11 12 13 17 13
18 24 26 19 20 20 20 20 19 17 17 14 11 10 9 11 13 13 8 11 13 11 11 10 8 10 12 11 12 11 13 12 13 13 13 12 10 11 12 14 14 12 18
27 24 22 26 27 26 21 22 22 21 18 16 12 8 11 7 8 6 13 9 10 9 11 11 11 13 12 13 12 11 14 14 14 15 15 13 11 11 10 12 13 14 14
33 31 29 29 31 32 28 25 25 25 21 20 15 10 6 6 6 10 11 11 10 9 10 11 13 14 15 14 13 15 15 15 14 15 15 14 11 10 9 11 12 14 16
24 29 30 38 37 33 31 27 28 28 23 20 15 14 15 11 7 9 9 11 11 11 13 14 14 15 16 16 16 15 16 18 14 13 10 11 12 11 9 12 13 16 18
16 31 28 18 22 21 24 34 28 27 21 19 17 14 10 12 17 14 12 9 11 12 14 15 18 18 19 21 20 21 19 18 16 15 15 17 17 15 10 11 14 15 17
9 12 19 25 26 21 19 19 20 25 19 17 17 16 13 12 14 14 14 13 13 12 15 15 19 21 21 22 22 21 21 21 19 17 18 20 16 14 7 3 5 5 9
21 21 21 28 26 25 22 23 24 20 15 15 13 14 15 17 19 19 17 15 13 12 12 16 19 19 21 22 23 20 23 22 20 19 18 19 17 13 10 11 10 6 3
24 25 25 25 22 21 17 19 19 14 13 13 14 17 19 18 19 21 20 15 14 13 14 15 18 20 20 23 25 23 21 24 23 21 19 17 17 13 12 14 15 17 14
22 25 26 24 21 21 20 20 22 22 21 20 18 20 19 19 22 22 21 20 16 14 14 14 17 14 19 22 24 24 24 24 22 22 18 16 17 14 14 14 10 9 8
18 22 25 24 22 21 23 23 20 18 18 17 19 20 21 21 20 21 21 21 19 21 21 14 19 16 20 21 20 23 21 22 22 19 17 19 18 15 14 13 12 12 12
16 19 21 26 24 21 20 20 19 18 18 20 20 20 21 20 20 22 22 21 19 21 25 25 24 22 22 23 19 20 22 19 18 18 18 17 16 15 13 13 14 14 9
14 15 22 29 24 25 23 22 21 20 20 20 20 20 19 21 22 22 21 21 20 20 21 23 22 19 18 18 20 21 17 18 18 18 19 20 14 13 12 11 12 13 11
14 15 21 25 26 23 21 20 20 20 20 20 20 20 21 22 21 21 20 19 20 19 21 22 21 20 20 20 20 20 20 19 19 17 17 17 14 13 12 11 11 12 12
15 15 17 20 20 21 21 22 21 20 21 21 20 20 21 21 21 19 19 19 18 18 19 21 21 19 20 19 20 21 21 20 17 17 18 17 14 14 14 12 12 12 12
18 19 21 23 22 22 22 23 22 22 20 20 19 19 19 20 18 18 18 17 17 17 18 18 18 19 20 21 20 20 20 17 17 18 19 17 15 14 14 13 12 12 13
21 24 23 24 24 24 24 23 21 20 20 20 20 20 20 20 18 14 13 14 15 17 17 18 19 20 20 19 17 17 16 16 16 18 16 17 15 14 13 13 11 11 12
23 24 26 26 27 27 25 24 22 22 22 21 21 20 19 18 16 14 13 14 15 16 18 19 18 16 15 15 15 16 16 16 16 13 9 14 13 13 12 11 10 8 7
26 26 26 25 25 26 25 24 23 23 21 19 19 18 18 17 15 13 13 14 15 16 17 17 17 17 17 16 16 14 15 17 15 13 12 12 11 12 10 9 8 7 6
27 27 26 25 25 25 25 24 23 22 21 20 20 19 17 16 14 13 14 15 16 17 15 14 14 16 17 19 18 15 15 15 14 13 13 13 11 11 10 9 9 7 8
26 29 26 25 25 25 25 25 24 23 23 22 20 19 18 16 16 16 16 16 17 16 13 11 10 10 10 11 13 14 14 14 14 10 11 12 10 10 8 11 10 10 9

GFSMA_850_spd_081.txt.gz
Wind_Speed
20 17 15 14 14 12 11 11 10 10 10 9 8 8 7 6 5 5 5 12 11 7 8 9 11 11 11 12 13 13 11 11 12 11 10 10 9 8 7 6 6 5 5
16 15 14 14 14 13 13 11 10 10 10 10 9 9 8 7 7 7 6 9 13 12 10 10 10 12 11 13 13 12 11 12 13 11 10 10 10 10 9 8 7 6 5
15 15 12 13 12 11 11 11 11 11 11 10 10 10 9 8 8 8 8 7 10 14 13 13 11 10 11 13 13 14 11 11 12 11 10 10 10 11 11 11 9 8 6
14 14 13 12 12 11 13 13 12 12 12 12 11 10 10 9 9 8 9 9 10 10 13 15 16 12 12 14 13 12 11 11 13 12 12 12 12 10 12 14 12 10 8
17 15 14 12 12 12 12 13 14 14 13 13 12 12 12 11 8 8 10 9 11 13 12 12 17 13 11 11 11 10 9 10 13 12 12 12 12 12 11 11 14 13 11
15 15 15 13 13 15 15 14 15 16 15 14 16 15 13 16 9 10 9 11 9 11 11 9 11 10 9 11 10 11 11 11 12 13 13 13 12 12 12 12 12 11 16
11 14 18 20 18 15 14 15 16 18 18 17 18 12 15 11 10 13 12 7 8 9 10 7 3 12 9 12 13 12 10 10 13 14 14 15 15 13 12 14 14 14 11
15 16 16 16 19 22 19 18 20 21 21 22 21 13 11 11 14 12 10 10 8 10 9 8 8 8 13 12 14 13 11 11 15 15 14 14 13 13 12 13 13 14 14
15 17 19 23 25 21 22 24 23 27 29 27 24 13 9 8 11 8 11 9 9 9 10 11 11 12 15 16 14 14 14 15 16 16 15 14 12 12 11 12 13 14 15
19 19 23 25 29 26 28 26 34 33 31 30 26 25 16 8 5 5 9 9 11 8 11 12 12 13 15 18 17 17 15 15 17 16 13 14 16 15 13 12 14 13 14
18 19 20 22 20 21 20 22 25 35 29 29 22 23 21 17 11 10 11 8 10 13 11 11 14 16 17 19 18 18 19 18 18 16 15 18 18 16 13 6 12 13 15
18 22 31 34 26 22 16 26 26 23 20 21 21 17 14 13 11 13 16 14 12 15 16 17 16 17 18 20 21 21 19 18 16 20 18 17 19 17 15 7 8 8 7
21 17 19 21 25 21 16 19 27 26 23 22 27 23 19 19 16 16 19 17 15 13 13 15 15 16 18 19 22 20 19 18 17 20 20 18 19 20 16 13 11 14 13
26 24 24 26 24 23 20 24 26 25 26 24 26 26 25 17 24 20 22 19 17 16 17 13 16 17 17 18 21 19 19 19 19 19 24 18 18 18 17 14 14 18 18
28 30 27 30 30 27 24 22 26 28 22 20 22 20 19 18 19 21 21 21 18 10 10 10 19 19 18 15 17 19 20 21 20 22 22 17 20 16 19 16 14 17 14
21 23 25 25 26 26 23 27 26 23 24 23 25 23 20 20 21 21 21 20 19 18 16 13 17 18 17 18 17 19 20 17 20 19 19 17 16 17 19 16 14 14 13
17 19 20 21 22 26 27 28 25 25 26 24 23 21 20 20 21 21 21 19 18 19 20 22 23 22 22 21 20 21 18 17 19 19 17 16 16 18 18 13 14 14 13
15 17 18 18 24 29 30 26 25 23 24 24 22 22 22 22 21 21 22 21 21 19 20 21 23 19 18 20 19 17 17 19 18 16 17 16 18 20 18 13 13 11 11
14 15 15 18 23 29 24 24 23 25 25 23 23 22 22 22 23 23 21 20 18 19 20 22 19 18 19 20 19 20 19 18 18 18 17 16 15 18 15 13 11 10 12
16 15 15 17 22 26 27 28 27 24 24 24 24 24 24 23 22 21 22 22 20 21 20 19 19 21 20 19 19 19 19 20 18 17 16 16 16 18 16 14 13 12 12
18 18 18 18 20 21 21 23 23 24 25 24 24 24 23 23 23 22 22 23 22 20 20 18 20 20 18 18 18 17 17 19 18 16 15 18 19 16 16 14 13 13 13
19 21 21 21 23 24 25 24 23 23 24 24 24 24 24 24 22 22 21 19 16 16 18 18 19 20 19 18 18 18 15 16 16 16 16 18 15 15 15 14 12 12 12
20 22 23 24 25 25 26 24 25 26 26 26 26 23 23 23 21 22 19 18 17 17 17 18 19 19 19 17 16 13 13 13 15 14 14 13 14 15 13 12 11 10 8
19 21 24 25 26 27 27 25 26 26 27 26 24 22 23 24 22 23 21 21 18 19 19 18 19 17 17 14 14 13 11 14 17 15 14 13 11 12 9 10 9 6 6
19 21 23 26 28 28 27 25 26 26 27 26 24 24 24 24 22 24 20 17 17 17 16 18 18 18 15 17 15 15 16 16 15 15 14 14 12 12 10 10 9 7 7
21 20 23 25 28 27 27 25 26 27 27 27 25 25 26 24 21 19 19 18 16 17 18 15 14 12 13 15 19 19 18 15 16 11 12 15 12 10 8 11 10 9 9

GFSMA_850_spd_084.txt.gz
Wind_Speed
22 16 17 20 18 16 13 10 9 7 8 9 8 8 8 6 5 7 7 8 9 10 9 7 8 10 8 9 9 11 8 9 11 12 10 10 9 9 8 7 7 6 5
24 25 18 17 16 15 15 13 12 12 10 7 8 9 10 10 10 8 9 8 10 10 11 9 8 9 10 9 9 10 10 9 9 12 10 8 9 9 9 9 8 7 6
23 22 19 18 17 15 12 12 10 8 11 11 12 10 11 10 10 8 10 13 10 11 10 11 11 9 9 10 11 10 10 8 9 12 12 10 10 10 10 11 10 9 7
19 20 17 15 13 12 12 13 14 15 15 15 14 13 12 12 12 11 9 9 11 13 16 15 14 12 11 12 12 11 9 6 8 10 10 10 11 11 11 11 13 11 9
18 16 16 13 10 11 13 13 15 14 16 16 14 12 12 15 13 13 12 14 13 14 19 16 14 12 10 10 10 11 8 7 8 9 10 11 10 10 10 11 11 11 13
17 17 16 15 14 14 14 13 14 14 16 14 14 14 18 19 16 14 14 15 17 19 16 13 12 9 7 9 12 12 11 10 10 9 11 11 11 11 11 10 11 12 10
17 14 14 17 19 17 13 11 12 13 16 16 17 20 22 21 19 17 18 18 18 14 10 8 11 10 10 9 13 12 12 12 11 11 12 11 12 12 11 11 11 13 13
16 15 14 14 16 20 17 15 15 16 18 18 22 20 19 21 17 19 23 23 14 13 10 8 8 12 12 9 13 14 14 13 11 13 14 12 10 9 10 10 10 11 12
13 14 16 17 16 16 18 19 19 20 21 21 23 23 11 10 16 23 19 13 10 10 11 9 9 11 14 15 13 14 14 13 13 12 14 13 10 10 12 13 11 12 14
16 17 17 16 16 18 21 21 22 25 20 27 28 26 29 11 13 11 14 11 10 9 11 12 12 12 14 17 16 14 14 15 15 14 15 15 14 12 13 12 10 12 12
17 18 21 23 22 19 22 25 22 21 23 20 25 28 41 33 14 10 9 6 12 10 12 15 16 16 15 17 17 15 16 16 16 16 15 16 16 13 12 10 8 8 9
20 26 18 21 23 23 26 26 21 21 22 21 31 19 28 34 22 16 11 10 18 18 14 16 19 17 18 19 18 17 18 18 17 17 16 17 18 16 14 12 9 11 11
20 21 18 16 14 19 19 18 20 23 24 18 19 17 17 24 20 16 20 21 18 17 15 15 16 18 18 15 17 18 19 18 17 16 16 18 18 18 15 15 14 16 17
23 20 21 19 17 22 17 18 19 25 24 14 15 14 22 27 25 21 20 20 22 20 20 19 14 19 18 16 14 14 15 18 17 18 17 16 17 15 14 17 16 16 15
25 28 28 26 26 28 29 26 28 28 27 23 21 21 24 23 23 23 20 21 21 19 16 13 15 21 22 18 15 14 13 14 17 17 16 18 16 16 15 17 17 17 17
22 25 26 26 25 26 29 31 28 25 22 26 24 19 19 19 20 19 18 18 21 21 19 16 16 18 21 17 17 17 17 16 16 16 17 16 16 18 14 16 20 18 15
16 18 20 21 23 22 22 23 24 23 26 25 21 20 22 22 20 19 19 20 21 21 22 23 23 23 22 24 23 22 19 17 15 16 16 16 14 14 14 19 17 15 14
16 17 18 20 21 20 19 23 28 27 25 23 24 24 22 21 20 20 21 21 21 20 20 20 20 21 22 25 20 17 17 15 14 15 16 15 15 14 16 20 16 12 12
16 17 15 16 17 17 20 24 26 27 23 25 24 22 21 22 21 21 22 22 21 21 21 21 22 21 22 19 17 18 19 18 17 15 16 17 15 14 17 18 13 12 11
15 16 17 16 16 17 20 23 28 25 23 24 25 24 22 22 21 22 21 20 19 19 19 22 22 20 20 18 18 20 20 19 17 17 16 16 15 15 16 17 13 13 12
15 15 16 18 18 18 20 24 25 29 27 26 24 24 24 23 22 22 22 22 22 22 22 22 23 19 20 20 19 18 17 17 17 17 16 16 15 16 18 14 13 12 12
14 17 17 17 20 20 20 20 20 20 20 23 24 24 24 23 24 24 24 24 23 22 22 22 21 22 19 18 18 17 17 17 17 16 15 16 16 17 14 12 11 11 11
16 16 17 19 20 22 21 22 23 23 24 24 24 24 25 24 25 24 24 23 24 22 18 15 20 19 19 17 18 18 17 15 14 12 10 13 14 12 11 11 10 9 9
17 17 16 18 21 23 24 22 23 25 26 26 26 26 26 25 24 24 24 22 21 19 17 17 17 19 20 18 17 15 11 12 13 14 14 15 14 10 10 10 9 8 7
17 18 18 17 20 22 24 24 25 25 28 28 28 28 27 27 25 24 22 18 19 20 18 16 17 18 19 19 16 17 17 17 17 16 17 16 12 11 10 9 8 7 7
20 18 19 18 18 20 23 25 26 26 28 29 30 28 26 25 26 21 20 20 22 18 16 18 20 19 21 21 18 18 17 18 17 13 15 16 14 9 8 11 10 9 8

GFSMA_850_spd_087.txt.gz
Wind_Speed
24 28 28 26 25 22 19 17 15 13 12 10 9 9 8 5 7 7 7 5 6 8 8 7 8 8 8 8 7 7 6 7 8 9 11 10 8 8 7 7 5 6 6
24 26 26 26 25 23 20 17 14 13 11 8 10 12 11 10 7 8 9 9 9 11 9 7 7 9 10 9 8 9 9 7 8 9 11 11 10 9 9 8 7 6 6
25 26 25 26 25 22 18 16 12 12 12 10 10 10 10 11 11 8 11 12 12 10 10 11 12 11 10 10 10 10 10 8 8 8 10 10 10 10 9 10 10 9 7
29 26 24 23 21 19 17 16 15 14 14 14 13 12 13 13 10 11 12 11 13 12 13 15 16 16 12 12 12 12 10 8 7 8 9 8 10 10 10 10 9 11 10
30 29 26 22 20 19 18 16 16 17 18 17 17 16 15 17 14 14 16 15 14 17 17 17 18 16 12 11 11 12 11 8 7 8 9 10 10 10 10 9 10 9 9
29 29 25 22 20 17 15 15 16 17 16 16 15 18 16 17 17 15 16 15 17 17 19 21 17 12 9 7 11 13 10 10 9 8 10 12 11 10 11 10 9 10 12
28 27 25 23 21 20 17 14 14 15 15 16 14 15 18 18 18 18 21 21 21 23 21 17 13 9 7 8 9 14 13 12 11 10 10 11 12 10 9 10 10 10 12
28 26 26 25 24 23 21 19 16 14 13 14 16 17 17 22 25 23 26 26 24 24 21 14 12 10 9 8 9 13 15 15 14 12 11 10 11 10 8 9 10 9 10
22 23 21 21 21 22 22 22 20 18 18 17 19 18 8 12 15 23 28 25 25 22 15 12 11 11 12 12 11 13 15 16 14 14 13 11 11 11 10 10 10 10 11
20 18 16 16 15 15 16 14 16 16 20 22 21 25 25 22 8 7 22 28 21 15 12 10 11 14 14 15 14 14 15 16 16 15 15 15 13 13 12 11 9 6 9
13 13 15 18 19 19 16 19 21 23 28 30 26 28 25 28 31 25 11 17 17 12 11 15 16 16 15 15 15 17 17 17 16 16 16 19 16 12 13 11 12 12 10
21 21 23 21 20 19 22 22 22 24 24 24 25 26 26 25 29 30 23 20 14 11 13 16 19 19 19 17 16 16 17 17 17 17 16 18 17 15 13 13 13 12 14
27 23 20 28 27 23 23 26 27 26 24 23 24 23 25 26 28 34 32 26 21 21 18 16 19 19 21 19 15 14 15 17 17 17 17 17 16 16 16 17 14 14 17
22 17 16 16 21 21 20 20 25 22 22 21 22 19 18 16 19 26 23 18 28 20 17 17 19 21 23 20 17 15 15 15 16 17 18 18 17 17 17 17 16 15 17
21 21 24 25 23 24 23 25 25 22 21 23 23 22 20 19 20 23 23 22 22 19 20 21 21 22 22 21 20 17 15 15 15 17 19 19 17 18 17 15 16 17 17
18 19 20 22 23 24 26 27 28 29 32 28 25 25 26 23 21 21 20 20 22 20 17 15 16 18 20 21 20 18 17 18 19 17 19 19 17 18 18 16 15 18 19
13 15 17 18 20 22 22 22 22 21 23 23 20 26 27 22 20 18 18 18 18 19 20 21 19 17 17 19 21 21 24 25 20 18 17 18 18 19 15 14 15 18 19
12 14 16 18 20 22 23 21 20 19 23 22 21 26 22 20 20 20 19 19 19 19 18 19 20 22 23 22 22 23 24 19 16 14 17 18 17 17 16 16 15 18 18
14 15 16 16 17 18 19 18 19 18 21 26 19 26 19 22 22 21 21 20 20 19 20 22 21 22 22 22 23 22 19 18 18 19 19 17 16 16 16 16 14 19 17
15 16 17 17 16 16 17 17 19 20 21 24 22 22 22 22 22 23 22 21 20 21 21 22 22 21 21 23 20 21 18 18 19 19 19 18 18 17 16 16 16 20 15
16 17 18 18 18 17 15 15 18 21 24 29 24 23 24 24 24 24 22 21 21 21 22 22 22 23 23 22 19 18 16 19 19 19 19 20 18 17 16 16 20 16 14
15 16 17 18 19 19 17 16 16 18 20 23 23 24 23 23 24 24 23 21 22 22 22 23 25 25 24 22 20 17 17 18 19 19 19 19 18 17 16 21 18 14 12
15 14 15 16 18 19 18 19 18 19 20 20 21 21 23 24 24 23 23 22 23 24 25 23 24 23 18 17 20 20 19 18 18 17 13 14 16 15 17 14 14 13 12
19 17 16 16 17 18 19 20 21 21 22 23 23 23 23 24 25 24 26 24 25 25 24 23 23 20 18 19 19 19 16 14 17 15 14 13 15 17 14 12 12 11 9
22 23 21 19 18 17 17 21 21 22 24 24 24 25 26 26 25 26 28 28 26 25 25 25 22 19 20 19 18 19 18 19 17 16 16 16 18 15 14 11 10 10 9
22 21 21 20 20 21 17 16 19 24 25 24 26 27 28 29 27 27 29 27 28 25 24 23 22 18 19 20 21 19 19 19 18 16 19 19 16 12 12 14 12 11 11

GFSMA_850_spd_090.txt.gz
Wind_Speed
43 33 35 35 33 30 27 24 21 19 17 16 15 14 13 10 10 7 6 5 4 6 8 7 6 7 7 8 8 7 8 7 8 8 9 10 8 7 6 6 6 6 6
36 29 37 35 31 30 27 24 22 20 18 16 15 15 14 12 9 9 6 7 9 9 9 9 7 8 9 9 8 9 9 8 8 8 10 10 9 8 8 7 7 7 7
35 25 31 33 32 30 27 24 21 19 18 16 14 14 14 14 13 12 10 9 12 11 10 12 12 12 12 11 9 9 11 9 8 8 9 10 10 9 9 9 9 10 9
38 28 31 31 31 30 28 25 22 21 20 18 15 15 15 14 11 12 13 12 13 13 14 14 15 14 15 12 11 12 11 9 8 7 9 10 10 10 10 9 10 9 10
34 35 29 29 31 30 28 26 24 21 20 19 17 16 15 17 17 16 14 15 16 15 16 18 17 17 17 14 11 11 12 10 10 9 9 10 12 12 12 11 10 10 10
37 34 30 29 29 30 27 25 24 23 23 20 18 18 19 19 20 19 18 18 19 18 19 19 18 20 16 12 9 13 14 11 11 11 10 11 12 12 13 13 12 10 11
36 35 31 30 30 29 29 27 25 24 24 22 21 20 21 20 19 18 18 20 20 19 22 21 22 19 14 11 9 12 15 13 13 12 12 11 12 12 11 10 11 10 12
33 35 35 33 30 31 29 27 26 25 24 22 22 17 16 18 23 21 20 23 26 24 25 24 22 19 13 10 9 13 16 16 15 14 13 12 12 12 11 12 12 12 12
35 35 37 36 34 31 31 29 28 27 25 24 23 16 10 13 18 24 27 27 26 27 26 26 22 17 13 12 11 12 15 17 16 15 15 13 14 13 12 12 12 10 10
32 32 36 33 32 30 29 28 28 24 23 22 22 23 21 16 12 9 15 21 26 24 23 22 17 12 12 13 12 13 15 16 16 15 16 16 11 13 16 12 13 12 12
32 29 28 26 26 26 26 24 24 25 25 25 22 24 31 32 32 28 23 26 29 30 19 15 14 13 12 12 13 14 16 16 17 17 16 16 19 16 16 16 13 15 16
23 25 24 20 18 20 23 22 23 25 28 28 27 32 34 35 39 37 35 32 31 30 28 26 19 18 16 16 16 14 15 16 18 18 18 16 19 18 16 16 15 15 16
13 11 16 22 26 26 23 25 27 26 28 31 27 30 33 36 36 34 36 32 32 32 28 28 24 24 18 19 17 16 14 14 16 17 18 15 21 15 17 16 18 18 18
15 16 18 17 18 27 34 31 29 30 27 27 25 26 30 33 33 34 35 37 30 31 26 17 17 17 18 22 19 17 16 15 15 16 18 19 18 19 19 18 18 19 19
13 16 20 19 25 20 21 23 23 25 23 23 24 24 25 22 27 22 24 28 21 14 23 19 15 20 23 23 22 19 17 17 16 15 16 18 20 22 19 18 18 17 18
14 20 19 17 15 18 20 24 25 26 27 28 29 29 28 27 24 23 22 22 24 23 16 20 22 23 22 22 22 20 19 20 19 19 21 21 20 22 18 21 20 19 18
11 14 14 14 14 15 18 21 23 23 25 25 25 27 31 26 24 30 27 26 27 24 23 20 19 19 19 20 20 20 21 21 22 24 25 21 20 23 22 21 19 17 16
10 11 13 14 14 15 17 18 19 20 22 23 23 24 26 21 27 29 23 22 23 21 23 23 21 21 21 20 21 22 22 22 23 24 17 15 18 19 19 17 16 16 16
11 13 15 15 15 15 16 15 16 18 19 19 20 22 22 24 27 26 25 24 23 21 22 22 22 22 21 22 23 21 20 23 23 18 17 18 18 17 17 17 17 16 15
14 14 15 16 16 17 17 17 16 15 16 19 20 20 24 22 28 24 26 22 22 22 23 23 23 22 21 21 22 22 23 22 21 19 19 19 19 18 18 17 17 17 17
16 16 17 17 17 18 18 18 18 18 20 19 21 22 23 25 26 24 23 22 23 24 25 25 25 23 24 23 23 20 21 21 20 20 19 19 19 18 19 19 18 17 19
16 17 17 18 18 18 19 20 20 19 19 21 22 22 24 27 27 27 26 24 25 25 27 26 25 25 26 24 22 20 20 21 19 17 19 19 20 20 19 18 18 19 19
22 21 20 19 18 18 20 21 20 22 21 20 21 23 21 21 22 23 23 24 24 24 26 27 27 27 24 22 20 20 20 21 19 16 16 17 19 20 19 17 17 16 14
24 24 24 22 22 20 20 20 22 22 24 23 21 22 23 22 23 23 25 25 26 26 29 31 27 24 23 21 21 18 18 20 18 17 18 19 17 17 17 17 17 15 13
24 24 24 24 24 22 20 20 19 21 23 24 24 23 24 24 23 24 24 26 26 28 29 29 28 25 25 23 22 22 24 23 21 20 19 19 17 17 19 18 15 14 12
25 25 26 24 24 24 21 20 18 20 22 23 25 25 25 26 26 27 28 28 30 28 30 30 28 28 26 25 23 24 21 23 23 22 21 22 21 18 13 18 17 14 11

GFSMA_850_spd_093.txt.gz
Wind_Speed
29 36 39 39 34 34 33 31 27 24 22 21 20 19 18 16 14 12 10 7 4 2 4 5 5 5 6 8 8 8 9 7 7 9 8 10 9 7 7 7 8 7 7
26 39 43 44 37 36 35 33 29 26 23 22 21 19 18 17 14 13 11 8 7 6 7 8 7 6 7 8 8 8 10 10 9 9 8 10 9 9 9 8 10 10 9
31 37 36 42 38 36 37 33 30 26 25 23 22 20 19 18 17 14 13 11 11 11 10 11 11 10 9 10 10 9 11 11 10 9 7 8 9 9 9 9 9 10 11
44 36 39 39 36 37 39 34 31 29 27 26 23 21 21 20 18 17 15 14 15 12 13 15 15 15 13 12 11 10 11 11 10 9 8 9 10 11 11 10 10 10 10
42 41 40 35 32 34 37 34 33 31 28 27 24 20 20 19 18 18 18 18 17 14 15 16 17 17 15 15 12 10 13 10 10 9 9 9 10 11 12 11 11 10 10
46 43 39 36 32 37 38 38 35 31 30 27 23 22 21 21 20 23 22 22 18 19 20 19 17 18 19 16 12 11 15 13 11 10 10 10 11 12 12 11 11 10 11
38 42 37 36 31 35 38 38 34 32 30 26 22 22 23 23 23 24 25 23 24 21 20 19 19 20 20 17 13 11 15 15 12 12 11 10 10 12 12 10 11 11 12
34 37 35 32 36 38 38 37 35 33 31 27 27 23 22 26 28 26 25 26 22 21 21 23 22 22 21 18 14 11 15 15 15 14 13 12 11 12 12 12 11 11 11
31 31 35 34 33 36 38 37 34 34 33 30 29 20 10 12 19 28 29 26 26 26 26 26 24 23 21 19 16 13 15 16 17 16 15 12 14 14 13 14 12 11 12
33 29 24 30 31 33 34 34 35 36 33 31 32 32 23 10 9 10 27 32 33 33 32 33 30 26 21 18 16 13 12 14 15 16 15 12 16 13 13 16 13 13 14
33 27 30 32 33 35 36 35 36 35 36 35 33 33 34 28 24 23 23 25 31 35 33 34 33 32 28 22 15 13 11 13 14 16 15 15 16 18 17 16 15 14 15
32 32 27 26 31 33 32 32 30 31 29 28 28 26 28 30 33 32 35 33 34 35 36 37 35 33 31 29 23 16 11 14 16 17 18 17 19 21 17 15 15 16 17
17 28 32 27 32 32 28 24 25 27 26 25 28 29 33 33 35 36 37 37 38 39 36 38 36 35 30 24 21 17 16 17 16 15 16 17 19 21 17 15 17 16 16
7 9 11 12 14 16 23 27 27 28 25 29 30 32 34 35 36 37 36 39 31 35 35 35 40 34 32 25 21 18 17 17 15 15 16 20 20 20 19 17 19 18 19
5 11 14 15 16 17 22 25 30 33 33 33 36 33 35 33 30 29 27 37 29 21 27 23 19 36 27 24 23 22 18 16 16 16 15 15 18 19 18 20 21 18 19
7 6 8 9 14 14 13 24 25 26 28 30 31 32 30 29 29 28 27 23 21 23 18 25 24 23 21 21 24 24 19 18 17 17 18 17 18 20 22 22 20 20 20
7 7 9 12 18 16 17 17 17 24 22 24 25 29 30 29 33 33 31 25 27 28 27 24 25 22 21 22 25 24 21 19 19 19 20 22 23 25 23 22 20 22 22
7 8 9 11 12 14 14 16 20 25 27 27 26 28 27 26 27 28 27 29 33 30 31 32 26 25 23 22 21 22 21 21 21 22 23 23 22 18 17 18 20 20 18
13 13 13 14 15 15 16 16 18 20 21 23 22 24 26 26 24 25 26 26 32 35 30 26 23 24 23 21 23 23 23 23 23 23 24 23 19 16 18 18 18 18 19
10 10 13 15 17 17 17 17 18 19 20 21 21 23 25 25 27 24 26 24 28 29 31 25 25 26 25 24 25 25 25 24 22 23 23 20 20 16 19 19 18 18 19
15 15 14 14 15 16 18 20 21 22 21 21 22 25 26 25 23 25 29 28 29 27 27 26 26 27 27 26 28 24 23 21 22 23 23 21 21 21 21 20 19 18 19
17 18 18 18 18 17 18 20 21 21 22 23 24 25 24 24 23 25 25 26 26 27 26 28 28 31 28 25 24 22 22 23 25 24 24 21 21 19 18 19 19 18 18
23 24 24 23 21 18 19 22 22 22 23 23 23 23 23 22 21 23 24 28 28 27 27 27 27 30 27 23 23 23 23 24 24 22 13 19 20 19 19 19 18 18 18
25 25 26 25 26 24 23 23 23 24 24 23 24 24 25 24 24 24 21 23 25 26 29 28 28 24 23 22 24 23 19 19 21 21 21 20 18 18 18 19 18 18 19
30 30 28 28 28 27 26 26 25 25 24 23 22 21 24 25 23 23 24 23 23 25 25 26 28 26 26 26 27 24 24 24 23 24 22 21 20 18 17 18 17 19 19
31 31 31 28 28 28 27 26 26 26 25 22 23 21 22 26 24 23 25 26 28 26 25 26 28 27 27 28 27 25 23 26 23 24 24 23 22 17 15 20 21 19 17

GFSMA_850_spd_096.txt.gz
Wind_Speed
22 17 26 32 34 33 31 32 31 29 27 25 24 22 21 19 17 15 13 11 8 6 5 3 3 3 3 3 4 6 8 7 7 7 8 8 8 7 7 7 7 7 8
29 29 24 27 37 38 36 36 34 30 28 27 26 24 22 21 19 17 16 15 12 10 7 6 5 5 6 6 6 6 9 10 9 8 7 8 7 7 7 8 7 8 9
36 28 32 27 28 42 42 36 36 32 30 29 28 26 23 22 22 19 17 17 15 14 11 9 8 8 8 8 9 8 8 11 9 8 7 7 7 8 8 7 8 8 8
40 35 34 36 33 20 48 38 33 33 32 31 30 28 26 24 24 22 19 19 18 17 16 13 13 12 11 11 12 10 8 10 9 9 7 7 7 8 9 9 8 8 8
34 39 40 40 40 33 39 46 37 39 36 34 32 30 27 26 26 24 23 22 21 20 18 16 15 14 13 12 14 12 10 13 10 9 8 8 8 8 9 10 9 8 9
34 36 40 40 44 42 39 44 43 36 35 36 33 30 27 27 25 26 24 23 24 22 21 19 18 18 15 15 15 13 12 15 12 12 9 9 9 9 10 10 8 8 8
33 35 38 39 41 45 40 42 43 39 39 36 31 30 28 29 27 28 25 28 27 26 23 23 22 20 17 17 16 14 13 17 16 13 11 10 11 11 10 9 8 9 9
28 34 36 40 38 37 37 48 45 40 38 40 33 30 25 30 30 31 29 29 30 28 26 25 26 23 21 21 18 16 16 18 18 14 12 12 13 12 12 11 9 10 9
31 26 37 43 46 44 36 38 36 45 45 41 36 25 13 15 24 34 33 32 32 31 28 27 25 27 26 24 22 19 19 19 21 18 15 15 14 12 14 12 10 11 10
29 34 33 32 33 34 33 34 38 37 40 39 37 38 31 13 12 11 26 33 33 31 29 29 29 31 29 29 27 21 23 22 22 17 16 14 15 15 12 12 13 12 13
34 33 39 32 28 31 33 39 41 40 44 43 37 37 37 37 24 14 9 14 26 32 34 35 35 35 34 33 28 26 25 21 19 17 16 16 14 17 16 15 14 13 11
26 32 22 24 22 24 22 29 36 35 37 40 42 39 40 40 40 35 29 28 30 30 31 35 38 39 37 34 31 28 26 21 18 18 17 16 16 18 20 17 15 14 14
26 26 23 18 28 27 25 26 26 30 30 33 36 37 35 36 30 27 28 30 34 35 36 37 38 38 38 37 33 29 24 22 20 15 16 18 20 23 21 19 17 16 16
6 8 17 18 19 15 19 19 26 32 31 30 35 38 31 28 28 30 32 34 33 37 36 41 42 42 44 40 36 29 26 21 16 15 18 20 21 21 21 19 19 18 18
9 4 9 8 12 14 16 24 34 32 32 33 28 26 27 32 33 32 36 32 32 22 25 39 40 40 40 39 37 33 26 21 16 18 18 16 16 18 19 20 19 20 18
2 3 3 5 8 13 12 14 21 25 25 27 30 26 28 30 34 33 30 30 30 29 27 20 22 28 26 35 32 27 25 20 20 20 18 17 18 18 19 20 21 20 18
9 7 7 8 9 10 13 13 17 13 15 19 20 21 26 30 34 32 33 31 34 33 33 26 26 22 23 30 33 27 25 25 24 23 21 19 19 21 22 23 22 20 19
9 9 9 9 10 11 12 14 17 18 21 23 26 26 27 27 28 29 29 29 29 33 27 31 27 28 25 26 27 29 28 29 26 24 21 21 23 24 24 21 16 17 19
12 11 10 9 10 12 14 15 16 18 20 23 23 25 26 26 27 27 28 31 31 27 28 28 33 29 26 29 30 30 30 29 28 26 24 24 25 24 22 18 17 18 20
14 15 16 16 15 13 13 14 16 18 20 22 22 22 25 27 27 27 27 30 28 30 28 32 33 34 33 32 30 31 32 31 28 26 24 23 24 23 20 19 18 17 17
16 16 15 14 16 18 19 21 21 20 20 21 22 23 25 24 23 28 31 27 31 26 31 32 32 27 26 29 32 34 30 27 25 25 25 24 23 22 20 21 18 18 18
21 21 21 21 21 21 21 21 21 23 24 25 26 24 22 24 26 27 25 27 26 31 33 32 36 33 31 27 33 34 28 25 27 26 25 24 23 20 19 19 18 18 17
24 24 25 27 27 26 26 25 26 26 27 26 25 27 27 24 24 27 26 28 24 25 27 32 37 34 33 31 31 30 25 25 22 21 19 18 22 21 20 19 19 18 19
24 25 24 24 24 24 25 26 26 26 27 29 28 25 25 27 27 25 25 27 24 24 26 28 28 29 27 22 25 23 18 17 20 22 22 21 18 19 20 19 19 19 18
30 30 28 26 25 24 24 25 27 28 26 25 25 28 25 23 22 22 26 27 27 25 27 25 25 25 25 25 26 25 24 23 25 27 24 21 20 19 17 17 18 19 18
28 28 28 27 27 26 23 24 25 26 28 29 27 24 23 22 21 21 24 25 27 28 26 25 26 27 27 26 27 27 28 28 29 26 24 25 23 16 12 18 18 19 18

GFSMA_850_spd_099.txt.gz
Wind_Speed
19 18 18 22 25 28 29 26 26 29 29 27 26 25 24 22 20 18 16 14 13 11 10 9 5 3 3 3 4 5 7 7 7 6 5 4 4 4 4 4 4 5 6
27 26 24 24 28 31 31 32 30 32 32 30 29 28 26 24 23 21 19 18 16 14 13 12 11 7 5 5 5 5 8 10 10 8 6 4 4 3 4 5 5 7 7
27 33 31 29 30 34 36 36 35 34 34 31 30 29 28 27 25 25 23 22 20 18 16 13 11 12 8 7 8 9 8 11 11 9 8 6 5 4 4 5 6 7 8
24 28 33 37 33 33 38 40 39 37 37 35 35 31 30 29 29 28 26 24 23 22 21 18 15 13 12 11 10 10 10 11 11 9 9 9 7 6 5 6 7 8 7
24 29 31 34 37 36 38 37 41 41 40 37 38 34 32 31 31 30 29 28 25 26 24 21 21 19 16 14 12 12 13 13 14 13 11 11 9 8 8 8 8 7 7
27 29 31 32 32 36 39 42 40 37 44 46 43 38 33 30 34 34 33 30 30 29 27 25 23 24 21 18 15 15 15 15 16 16 14 13 12 10 9 8 7 7 7
30 31 32 36 37 40 41 43 44 42 50 48 39 39 41 37 37 36 35 34 32 32 30 28 26 26 24 22 19 18 17 18 19 19 16 15 14 12 11 10 9 8 8
27 28 29 32 31 36 42 45 43 45 49 51 44 35 28 35 40 38 38 36 35 32 32 30 28 29 26 26 24 22 20 21 23 21 18 18 17 15 14 12 11 9 9
30 30 29 31 31 42 44 43 44 47 49 49 47 31 15 17 20 33 43 39 37 36 34 34 31 31 29 29 28 25 24 24 26 25 22 20 18 17 16 13 12 11 11
31 31 30 29 30 34 45 46 43 51 53 53 43 37 32 23 15 21 27 33 40 38 36 34 33 33 32 31 31 29 27 24 27 27 25 22 19 18 18 16 13 13 13
21 27 31 29 30 32 25 31 41 40 46 43 45 36 39 40 39 26 17 19 25 36 39 36 35 33 30 33 32 33 30 28 27 29 25 20 16 16 17 16 16 15 16
20 22 24 24 27 29 23 25 22 29 39 37 36 36 35 38 44 43 35 32 27 22 22 25 31 32 34 35 37 35 32 32 30 30 26 22 19 19 20 20 17 16 16
6 2 13 13 14 12 15 14 20 38 43 39 40 37 39 42 38 35 35 39 39 37 34 32 28 29 31 34 35 38 35 36 32 30 28 24 22 22 26 25 20 19 19
12 9 6 7 3 8 19 25 17 16 23 33 35 38 37 41 41 42 43 35 33 36 37 36 37 39 37 37 38 40 38 39 35 33 28 24 24 26 26 26 25 23 22
6 8 7 1 1 2 5 7 12 15 24 35 33 37 36 35 37 37 40 34 35 26 28 38 36 37 34 32 34 40 43 42 39 33 28 26 25 24 24 25 26 22 22
5 6 8 6 5 7 9 9 12 12 11 29 38 36 36 40 37 37 33 32 33 34 35 32 32 32 25 22 23 31 40 40 35 31 26 22 22 25 24 23 23 23 22
11 9 6 6 7 8 9 12 10 12 13 11 6 18 24 32 32 27 26 24 29 33 35 33 29 26 25 22 23 28 35 37 32 27 23 20 25 24 23 22 22 23 24
11 11 9 9 9 10 11 9 9 12 15 18 21 19 17 20 20 20 21 22 24 27 27 29 27 27 30 22 24 28 30 26 30 27 25 26 26 25 24 23 24 25 20
14 12 12 11 11 10 10 11 12 13 15 16 17 19 21 23 26 26 26 28 28 27 28 32 32 27 25 29 27 27 35 36 31 29 28 28 27 26 25 25 26 20 17
16 17 18 18 18 17 16 15 14 15 15 16 18 19 21 21 22 24 27 27 26 29 28 28 30 29 30 32 31 31 33 37 34 32 32 29 28 28 26 24 22 20 19
21 20 19 18 19 20 21 23 23 23 22 21 19 19 21 22 22 24 25 25 30 26 29 31 31 34 32 35 37 40 39 38 33 32 32 31 30 28 25 24 21 21 19
22 22 22 22 22 22 21 21 21 22 24 26 27 26 23 23 25 25 26 27 25 27 33 29 34 38 36 36 38 40 37 35 34 35 34 33 31 31 25 23 22 21 20
22 22 21 22 22 22 22 21 21 22 23 23 24 25 26 24 22 25 29 28 27 28 28 32 31 36 37 37 43 43 43 40 36 37 33 35 33 30 26 23 23 21 20
26 26 25 24 24 21 21 21 22 23 23 22 22 23 25 27 25 21 23 26 30 30 29 27 32 34 33 34 44 40 38 38 36 35 30 26 27 26 24 24 25 23 21
26 26 25 25 25 24 23 23 23 24 24 24 24 24 24 25 26 27 21 24 27 31 31 27 27 28 29 35 36 36 36 33 35 35 31 27 24 21 20 24 24 23 22
26 26 26 25 24 24 22 22 21 23 25 25 26 25 26 24 24 23 24 24 25 27 28 30 27 27 26 27 32 38 39 41 39 33 31 27 23 20 16 23 23 23 23

GFSMA_850_spd_102.txt.gz
Wind_Speed
13 14 16 15 17 21 23 27 26 21 23 23 23 24 23 20 18 16 15 18 17 15 14 14 11 8 9 8 8 9 9 10 9 8 7 6 4 3 3 5 5 6 6
19 19 21 22 23 20 22 25 27 24 28 25 25 23 25 26 22 21 18 17 20 18 17 18 18 16 12 10 8 8 10 12 14 12 10 8 6 4 4 5 6 7 7
28 27 27 28 30 30 26 27 28 29 34 33 35 31 31 31 28 24 25 23 21 22 21 20 19 19 18 15 12 10 11 14 16 14 12 11 8 7 5 6 7 8 8
30 28 27 27 27 28 33 34 34 36 38 38 37 33 32 31 26 24 21 24 24 25 25 24 23 20 19 17 15 14 13 13 17 15 13 13 11 10 8 7 8 9 10
28 27 26 26 25 30 34 36 36 40 40 42 42 38 43 39 33 25 22 22 26 27 27 28 26 25 22 21 20 18 17 16 18 17 16 15 14 12 10 10 10 10 9
29 29 27 29 25 24 27 32 36 36 39 42 44 45 46 44 44 39 34 26 24 26 30 29 30 30 28 27 24 23 21 19 19 19 20 18 16 16 13 13 12 11 10
32 32 31 32 31 28 27 28 31 37 39 40 36 39 46 47 45 40 37 36 33 30 33 34 34 35 32 30 28 27 25 24 23 20 21 21 19 18 16 15 14 12 11
32 31 31 32 31 31 30 32 37 39 40 40 41 32 31 40 48 44 42 38 35 33 40 38 37 38 36 31 31 29 29 27 25 23 23 22 22 19 19 18 16 14 13
32 32 33 34 34 33 35 36 35 39 42 44 41 35 14 21 36 39 49 41 32 45 41 39 38 38 38 35 34 31 32 31 28 26 25 24 25 22 22 20 19 16 15
30 33 34 36 36 35 36 36 37 41 47 46 43 47 39 25 22 23 30 32 35 34 41 44 42 39 41 39 38 38 34 34 31 29 28 27 26 26 24 23 20 19 16
20 23 28 31 34 35 34 34 29 43 46 44 46 38 49 37 25 19 22 26 25 25 38 43 47 44 41 40 38 36 36 37 33 31 30 31 29 27 26 22 21 18 17
13 16 27 28 30 33 33 33 34 32 41 47 44 40 38 46 41 29 27 24 26 31 29 28 30 36 36 34 32 33 34 35 35 34 34 33 33 29 24 23 22 20 20
8 12 11 16 23 25 27 30 32 33 31 37 36 36 33 31 29 25 22 29 36 39 34 36 32 32 29 31 32 30 30 36 37 36 37 36 35 31 27 27 28 24 22
8 10 9 8 3 2 6 9 14 18 31 31 32 36 32 32 38 40 37 33 30 34 34 40 38 37 38 43 39 40 38 39 38 41 40 40 36 34 31 29 32 29 25
7 7 11 14 11 6 2 5 7 10 15 18 25 35 34 35 36 38 38 41 42 31 36 43 39 31 40 47 41 40 42 39 41 44 44 43 41 37 32 30 31 30 28
11 10 7 10 13 12 10 7 3 3 9 9 12 23 30 32 37 39 43 40 40 42 32 37 39 41 40 38 38 40 41 40 39 44 48 49 43 35 32 29 30 29 28
13 12 11 11 11 12 13 14 14 12 11 11 12 13 5 19 31 38 47 43 44 41 39 39 34 30 29 28 26 27 26 29 30 41 54 49 40 36 32 31 30 28 27
15 15 15 14 13 13 13 12 12 12 12 13 16 19 19 19 15 16 20 15 18 20 23 32 24 27 26 28 27 26 24 24 28 39 42 34 35 32 32 31 29 27 26
18 18 17 17 18 18 18 18 17 16 15 15 15 16 18 20 21 23 23 19 17 21 25 27 28 27 29 29 30 29 26 25 27 33 34 32 30 32 31 28 28 27 26
17 18 19 19 20 19 19 18 17 17 17 18 18 17 17 18 20 21 21 22 24 25 21 24 29 31 28 30 28 26 29 29 28 35 35 32 32 32 29 30 29 26 28
23 23 23 21 21 21 21 21 21 22 22 21 19 18 18 19 19 19 21 23 24 25 25 29 27 30 32 33 33 33 34 37 37 40 40 38 37 34 32 31 30 29 29
18 18 18 17 17 18 19 20 21 22 22 23 24 24 23 22 21 20 21 20 22 24 30 27 25 30 35 35 35 37 38 42 41 43 46 45 38 35 34 33 33 30 26
20 20 20 20 19 18 18 18 19 19 20 20 21 22 24 23 24 24 23 24 24 21 24 27 33 32 29 36 37 38 40 42 50 50 50 44 40 39 36 34 32 29 26
23 24 24 24 24 23 21 21 20 20 20 19 20 21 20 21 21 23 24 24 25 26 22 23 26 32 33 32 36 39 41 42 49 49 47 47 46 40 37 36 31 29 25
24 24 24 25 25 25 23 21 21 22 22 22 20 19 20 22 21 22 23 21 22 23 27 28 28 29 30 33 32 34 42 40 45 53 48 49 44 41 39 35 33 30 28
25 26 27 26 26 26 24 23 22 22 20 18 18 18 19 22 23 25 23 20 21 22 23 29 33 31 27 26 32 32 36 45 46 39 52 46 39 36 28 33 31 29 30

GFSMA_850_spd_105.txt.gz
Wind_Speed
19 17 15 15 15 17 20 21 23 22 22 21 22 23 21 20 18 17 16 19 19 19 17 16 16 13 12 12 12 12 12 12 11 10 9 8 8 6 6 5 6 6 7
20 18 16 16 19 16 17 20 24 24 23 26 24 25 26 24 21 20 19 18 21 21 20 19 19 20 16 14 13 11 11 13 13 14 13 11 10 9 7 6 7 8 9
18 20 20 20 21 23 28 23 24 24 27 28 26 26 27 27 24 24 22 21 20 22 23 22 22 21 22 20 16 15 13 13 15 16 16 15 13 11 9 8 8 9 10
19 19 21 22 23 19 20 24 32 33 34 34 34 30 32 35 33 32 25 23 24 22 20 24 25 24 23 21 21 20 18 16 16 17 17 16 15 14 12 10 10 11 11
19 19 22 23 20 21 27 29 29 32 37 37 36 37 36 39 37 34 32 32 29 27 25 24 24 27 26 24 22 22 21 19 18 18 18 18 17 16 14 14 13 12 12
19 19 20 21 20 22 25 31 29 31 35 38 37 39 40 43 43 40 41 35 29 30 32 30 26 25 28 28 26 24 24 24 22 20 20 19 20 18 17 16 16 14 13
20 21 23 23 23 26 28 29 29 30 32 35 36 37 40 40 45 45 47 43 40 39 31 31 29 29 29 30 30 29 28 29 27 24 22 22 23 22 20 19 18 16 15
23 24 25 28 30 30 30 32 33 36 36 34 33 37 30 33 34 44 48 51 54 47 40 36 34 31 28 32 35 32 31 31 32 29 26 24 23 24 23 21 21 18 16
22 25 27 30 32 33 37 37 36 37 39 37 39 31 18 22 26 34 42 49 53 54 49 42 38 32 28 34 38 36 35 34 34 33 29 27 25 25 25 23 23 21 20
23 27 29 31 35 36 39 39 39 38 39 40 38 41 42 34 16 13 31 38 45 46 48 44 39 33 30 37 40 38 39 37 34 35 34 32 29 29 27 26 26 24 22
14 18 21 26 35 37 40 42 41 41 41 41 38 41 42 47 47 27 23 26 27 33 37 41 36 36 36 44 44 42 40 40 31 33 34 33 31 32 28 26 27 26 22
12 13 13 17 21 31 38 38 39 41 40 40 35 42 43 37 36 38 31 25 28 31 31 34 31 26 30 28 32 40 34 32 31 36 37 36 36 34 35 30 28 28 23
8 9 10 15 15 15 21 35 32 34 38 36 37 41 42 47 42 39 41 37 30 24 27 28 32 24 24 28 28 25 31 32 32 35 34 35 38 39 38 36 31 30 27
7 8 11 14 19 17 18 8 5 13 23 26 31 35 37 34 31 33 24 26 22 29 33 34 40 46 34 35 31 33 33 33 28 29 31 32 35 39 40 42 33 34 34
11 11 12 13 19 19 21 21 17 12 0 11 17 22 30 34 33 34 32 33 33 21 25 31 41 50 43 42 43 39 37 44 52 48 47 43 40 43 43 44 35 31 31
13 14 14 15 15 17 19 21 20 21 18 13 4 6 6 15 28 34 31 31 33 31 30 30 31 29 31 34 39 44 48 43 41 43 44 41 40 42 43 46 43 37 34
13 14 15 15 15 15 15 16 19 21 22 19 18 16 15 13 10 1 5 22 35 32 38 42 40 41 40 45 36 29 33 37 38 38 40 44 45 44 44 47 38 33 32
15 16 16 17 17 17 16 15 14 13 14 16 16 17 18 17 19 19 20 14 13 12 28 35 25 45 45 36 26 26 27 25 29 28 33 35 37 38 45 48 36 33 32
17 18 18 18 19 18 18 17 17 17 16 16 16 16 16 17 18 18 21 23 20 20 16 13 18 22 23 23 25 27 27 29 30 30 28 27 27 40 46 45 36 35 32
19 19 19 19 19 19 20 19 20 20 20 19 18 18 18 18 18 18 18 18 18 20 20 23 23 17 20 25 28 27 29 31 29 29 27 27 32 35 31 31 34 35 33
22 22 22 21 21 20 20 23 23 22 20 20 19 19 19 20 20 20 19 20 19 18 18 20 22 24 29 27 26 27 34 30 32 29 30 28 33 34 33 33 33 33 32
19 18 18 17 16 16 18 18 20 21 21 22 23 22 21 19 19 19 19 20 21 21 21 19 19 21 23 24 25 29 29 32 34 32 34 38 40 41 41 40 37 36 31
17 17 17 17 17 17 18 19 18 19 19 18 19 20 21 19 20 19 19 19 19 19 21 22 21 21 21 23 24 26 30 32 32 35 35 43 45 46 45 44 40 35 30
20 20 20 20 21 21 22 22 21 21 20 19 18 17 16 16 17 19 23 24 23 21 20 22 24 25 24 23 23 24 25 33 33 36 35 38 45 49 49 48 43 38 35
23 23 23 24 24 24 23 22 21 22 21 20 17 17 17 18 16 18 20 20 21 23 22 19 22 24 25 30 30 29 30 29 37 39 36 37 41 46 50 48 45 40 36
25 25 25 24 24 25 22 19 21 20 20 18 17 16 16 17 17 18 20 19 19 20 21 27 29 30 28 28 26 30 31 29 35 38 38 37 41 45 43 51 46 41 37

GFSMA_850_spd_108.txt.gz
Wind_Speed
19 19 21 21 15 14 16 18 19 18 20 20 18 19 23 24 21 20 22 21 20 19 18 18 16 17 15 14 14 13 13 12 12 11 10 8 8 7 6 6 6 6 6
19 19 19 18 19 15 15 17 20 21 24 24 23 24 26 28 25 22 23 25 24 23 20 21 19 19 19 17 16 14 13 13 13 13 13 12 11 10 8 7 7 7 8
18 18 20 19 19 18 19 22 20 22 23 25 27 28 29 31 33 30 26 27 28 26 24 22 23 22 22 22 21 17 16 14 13 14 14 14 14 12 11 10 9 8 9
20 19 21 23 24 24 23 22 22 28 29 28 31 33 32 31 32 32 34 32 29 30 29 26 26 25 25 23 23 24 22 19 18 16 15 15 14 15 13 13 11 11 11
20 22 23 23 22 24 26 26 26 27 29 32 35 38 37 37 36 35 38 36 35 36 36 32 29 28 28 27 24 23 23 23 21 19 17 17 16 16 16 16 14 13 12
27 24 24 24 25 25 24 25 29 29 30 32 34 37 39 41 40 40 40 43 41 35 35 34 32 29 30 29 28 27 24 24 24 21 21 19 19 18 19 18 17 15 14
25 21 21 22 22 24 26 28 29 32 36 33 30 35 39 41 42 43 41 42 42 43 43 40 37 36 33 30 29 29 26 26 26 26 24 24 22 20 22 20 19 18 16
24 22 21 23 24 26 30 32 35 37 37 36 35 30 27 31 38 40 41 43 45 46 46 45 46 42 36 33 32 30 27 28 28 29 29 27 26 25 22 23 22 21 19
15 17 20 21 25 25 31 34 37 38 42 40 38 34 18 20 24 32 37 40 45 46 50 52 53 49 44 39 34 32 29 28 29 31 32 33 30 28 23 23 24 23 22
12 17 22 24 26 27 32 37 38 42 44 45 42 42 43 41 22 22 27 33 38 42 48 48 54 55 48 44 37 36 30 26 28 33 36 35 33 31 28 27 24 25 24
14 14 13 16 20 21 24 32 40 45 43 44 44 43 41 44 43 43 31 25 29 38 40 40 45 47 49 43 40 37 31 30 28 32 33 32 34 33 31 29 28 25 25
11 11 9 10 13 16 22 21 29 36 39 41 42 44 44 38 32 35 36 33 35 33 40 40 41 40 37 40 40 37 33 37 40 33 34 35 34 31 31 33 34 31 27
7 10 12 9 11 15 15 22 21 12 19 26 33 40 44 43 40 42 43 37 37 37 34 38 38 39 36 35 32 32 34 24 35 37 34 33 30 29 29 33 42 38 31
11 13 11 12 14 15 18 21 22 20 22 14 7 11 17 25 40 44 41 34 23 32 35 33 42 40 41 40 36 32 27 25 25 26 30 29 30 32 33 31 34 39 34
12 12 11 14 16 18 20 20 23 23 25 23 24 15 9 8 13 18 22 23 18 9 18 32 34 32 36 33 35 38 31 35 33 32 33 35 35 37 37 34 35 37 44
10 12 13 14 15 17 17 19 21 19 21 27 23 21 22 14 9 9 11 13 25 30 25 26 31 33 37 38 37 40 40 35 37 38 40 41 41 42 44 49 43 41 38
12 13 15 15 16 17 16 16 16 16 16 18 25 25 25 23 18 20 18 19 12 10 15 31 30 32 32 29 29 33 32 33 40 37 40 44 46 45 41 41 42 41 43
16 18 19 20 20 20 20 19 18 17 17 15 14 15 16 17 18 20 22 21 21 22 20 20 13 20 36 37 38 32 32 33 29 26 26 27 32 34 37 41 45 43 45
18 20 20 20 20 20 22 20 19 19 19 18 18 18 18 18 16 16 16 16 17 18 18 19 22 18 10 11 13 14 17 19 23 23 25 26 28 31 31 33 33 36 40
21 22 22 21 21 20 19 19 21 21 20 18 18 18 18 19 20 19 18 18 18 18 16 16 16 18 18 20 16 15 19 22 22 22 24 25 30 28 29 30 30 33 44
23 22 22 21 20 20 20 25 26 26 24 24 22 21 21 19 18 19 20 18 19 19 18 17 17 18 16 17 16 20 23 25 23 25 26 23 22 26 22 17 33 37 31
20 20 20 20 20 20 19 21 22 24 22 22 23 22 22 22 17 19 17 18 19 18 18 17 18 16 18 17 16 17 19 19 25 29 24 24 20 26 25 31 33 31 31
22 21 21 22 22 22 22 22 22 23 23 22 21 20 20 19 18 18 21 23 18 16 16 17 18 17 17 17 18 19 17 15 20 22 26 26 22 21 29 34 38 37 36
21 22 22 23 23 23 23 21 21 23 23 21 19 19 18 20 20 22 24 24 22 19 14 14 14 17 20 20 22 25 27 27 28 24 25 28 28 26 22 31 40 43 42
23 23 23 23 23 22 21 21 19 24 26 22 20 17 18 20 20 19 20 25 21 19 18 17 16 20 22 23 22 23 25 29 32 31 27 27 30 30 29 27 32 42 43
23 23 23 22 22 22 20 18 18 22 25 27 25 24 23 21 19 18 20 23 24 23 23 23 23 24 23 23 19 18 18 23 25 26 26 28 28 28 32 35 30 34 42

GFSMA_850_spd_111.txt.gz
Wind_Speed
23 22 21 24 19 20 19 17 15 17 19 17 15 18 21 21 21 20 20 24 23 24 21 20 20 18 17 16 15 16 15 16 15 14 13 10 9 7 7 6 6 6 6
23 23 22 23 24 18 17 17 17 17 18 20 20 21 22 22 23 24 24 25 24 25 26 24 23 22 21 20 18 17 17 17 18 17 15 14 12 11 10 9 8 7 7
22 22 22 21 23 24 23 19 17 19 20 21 24 25 25 26 30 31 30 30 29 30 30 29 27 26 25 23 22 21 19 19 17 16 15 15 15 14 13 13 11 10 9
24 24 22 22 22 22 22 21 20 20 22 26 27 26 28 31 32 31 35 32 32 33 33 33 32 29 29 28 26 24 24 23 21 19 19 19 16 15 15 15 14 13 12
26 23 26 27 23 22 22 23 23 23 24 25 26 29 32 35 38 38 37 38 38 40 39 37 35 32 30 33 31 29 26 26 27 25 23 21 20 18 17 17 17 16 14
31 30 26 29 24 22 21 21 23 24 26 28 29 32 33 35 37 38 40 39 38 43 43 44 39 40 38 35 33 33 31 28 27 27 25 24 21 20 19 20 19 18 17
36 34 30 27 22 23 22 21 22 24 29 30 32 37 39 37 38 39 39 41 43 43 45 45 46 44 41 38 35 35 35 32 30 29 28 27 24 23 23 21 22 21 20
31 28 26 28 26 24 24 24 24 27 31 32 33 36 35 34 36 39 35 37 41 44 47 46 47 45 45 45 43 39 34 33 34 32 30 29 28 26 25 25 23 24 23
22 19 19 20 20 21 22 24 26 28 31 33 35 33 23 26 27 27 29 32 34 34 41 46 46 50 53 49 49 44 39 38 34 34 33 32 30 29 28 27 25 26 25
9 8 12 14 16 17 18 19 24 27 29 37 39 40 43 47 38 35 34 32 33 34 36 37 43 44 48 51 52 48 44 40 37 35 34 34 33 31 31 31 29 27 27
14 12 16 14 14 12 13 15 15 22 27 31 36 41 44 43 47 44 42 34 34 39 39 41 40 47 46 50 57 56 47 44 40 36 33 35 34 32 33 31 33 33 30
3 5 6 6 7 10 10 11 12 13 19 18 24 31 33 37 37 36 39 43 42 44 42 45 40 42 44 44 47 46 50 48 43 38 37 34 31 31 32 32 39 39 34
9 6 5 5 7 8 11 14 17 19 18 20 22 19 12 17 20 39 44 46 40 39 42 42 46 42 44 45 41 38 40 45 44 43 38 36 31 33 32 31 34 38 38
9 8 9 9 11 13 16 17 17 19 19 19 23 24 22 21 14 10 12 20 29 34 35 38 40 44 46 44 43 39 38 43 46 42 34 37 41 35 32 30 31 32 27
11 12 13 13 13 14 16 18 19 19 19 19 20 22 24 24 24 22 14 18 17 8 14 23 32 29 41 40 42 42 44 43 41 36 34 34 35 30 31 32 29 31 33
10 12 12 13 14 15 16 17 17 18 19 20 22 22 26 29 30 25 24 24 22 19 8 8 15 20 23 30 32 31 30 36 39 35 34 33 35 35 34 33 34 40 38
13 14 15 16 17 18 18 17 17 18 19 19 17 19 19 21 23 23 27 26 22 18 20 20 14 10 21 28 29 30 34 40 40 41 45 38 37 39 42 42 42 41 39
16 17 17 17 18 18 20 19 18 18 19 20 20 18 17 17 18 18 18 18 19 17 17 22 23 22 15 7 18 30 32 32 32 33 36 37 39 36 36 39 41 41 41
20 21 21 20 20 19 19 19 20 20 19 18 19 19 19 19 20 20 19 18 17 15 13 16 20 19 22 21 16 10 9 19 28 32 33 31 27 28 29 30 30 32 36
21 19 19 19 19 19 18 19 20 21 21 21 20 20 20 21 21 21 22 20 19 19 18 17 17 16 15 17 21 24 26 20 15 14 15 17 20 25 27 30 30 30 30
22 21 21 20 19 20 19 20 21 24 23 22 21 20 20 20 18 17 20 20 21 22 21 20 19 17 15 15 12 12 17 23 26 23 20 19 20 22 22 22 26 27 31
19 19 19 20 20 20 20 20 21 23 24 23 22 20 19 19 17 16 17 20 21 22 22 20 19 20 19 16 17 16 18 18 17 18 20 24 21 19 17 19 19 20 20
21 21 21 22 21 21 21 20 20 21 22 23 24 24 22 18 16 18 20 24 25 20 17 16 16 17 18 17 20 22 21 21 23 20 21 26 22 20 16 16 16 17 15
22 21 21 20 20 18 17 17 18 20 24 26 26 24 23 23 21 19 21 24 27 26 22 17 16 18 19 21 21 21 22 24 26 27 26 28 25 24 22 17 14 17 22
21 20 20 19 20 20 19 19 16 18 22 25 25 22 22 23 23 21 21 24 26 29 28 23 21 20 23 24 26 27 26 22 21 21 20 18 23 25 23 22 19 18 19
20 21 21 20 19 20 19 17 16 18 21 24 25 25 26 22 21 20 22 24 27 28 30 31 28 26 28 25 22 18 19 20 18 16 8 12 15 15 21 27 24 20 22

GFSMA_850_spd_114.txt.gz
Wind_Speed
26 25 24 24 22 22 21 23 23 21 20 23 23 22 20 19 18 20 22 19 24 27 25 23 23 22 21 21 20 18 18 18 18 17 16 14 13 11 10 10 10 9 9
27 23 27 27 27 27 24 23 21 22 20 20 21 20 22 21 19 19 21 22 21 26 28 26 26 26 24 24 23 22 21 20 20 20 19 19 17 15 13 13 12 11 10
28 26 22 25 27 26 28 27 22 22 19 18 19 21 22 24 25 25 25 26 26 27 29 30 29 30 28 26 26 25 24 23 22 21 20 20 19 18 17 16 15 14 13
32 27 24 25 25 26 26 26 26 24 20 19 20 21 23 25 26 27 29 31 30 33 32 32 33 34 33 30 29 30 28 27 25 24 22 22 20 19 19 20 19 18 16
29 31 29 25 25 27 26 25 24 23 23 22 21 21 23 26 27 30 33 35 35 33 38 41 39 39 36 34 32 32 33 31 30 28 27 25 24 23 22 21 21 21 19
27 29 32 29 27 29 27 24 24 20 21 21 23 25 27 28 30 32 34 36 37 38 40 41 42 41 41 41 37 35 35 37 34 31 31 32 29 28 26 24 23 23 22
24 27 31 33 33 28 21 23 24 24 23 22 25 28 31 33 35 34 34 36 38 39 42 43 43 44 47 47 46 42 39 39 39 36 33 32 32 30 29 28 26 24 24
20 19 24 26 27 25 26 25 23 21 24 24 24 26 22 31 35 35 35 36 34 33 35 43 47 48 49 49 49 49 47 42 39 39 39 35 33 33 32 31 28 27 25
11 13 10 21 18 14 13 13 17 21 24 24 22 16 14 15 29 32 31 29 29 30 30 32 36 43 49 52 52 50 49 47 43 41 42 39 38 36 34 33 32 30 28
8 9 10 12 14 12 18 14 13 15 16 19 22 21 23 33 34 40 34 32 32 34 35 37 35 35 36 40 46 50 48 50 51 45 44 43 40 39 38 36 35 33 32
7 17 11 11 7 7 5 9 10 9 10 12 14 18 25 28 32 38 42 34 35 39 41 42 43 42 39 39 41 47 50 50 52 49 48 46 43 41 40 38 38 36 35
4 12 10 10 9 7 7 7 11 12 14 14 15 14 14 16 17 20 24 28 33 40 44 43 45 45 45 47 42 43 44 46 47 48 50 47 43 42 42 41 39 38 37
7 5 4 5 8 9 9 10 13 14 13 13 14 16 16 14 17 17 19 24 29 28 36 43 44 43 47 43 47 41 45 44 43 48 54 49 45 43 43 39 39 37 37
10 10 11 11 12 13 14 14 14 15 15 16 16 17 17 17 16 15 17 21 31 26 23 35 36 37 37 43 44 45 42 44 43 41 41 47 48 47 43 38 37 35 36
10 10 9 10 11 13 15 16 17 18 18 18 18 19 20 20 20 19 21 18 13 21 31 12 13 2 9 25 34 41 45 44 43 40 42 45 47 46 44 42 37 33 33
12 13 13 14 14 15 16 16 16 16 17 17 17 18 19 20 22 24 24 20 17 15 18 26 27 23 17 15 17 23 33 41 46 43 43 44 48 42 37 36 38 42 37
16 16 17 17 17 18 17 16 16 16 17 17 17 17 17 18 18 19 19 18 17 16 21 32 31 30 25 20 14 22 24 25 26 27 34 48 42 42 38 38 38 37 35
17 18 18 17 16 15 16 16 16 16 17 18 19 18 18 18 19 19 20 18 18 16 16 22 22 29 27 23 25 19 14 18 27 29 28 34 36 39 41 40 39 41 41
19 18 17 17 17 16 17 17 18 19 19 18 19 19 19 19 19 18 17 18 19 18 20 21 22 20 21 18 24 23 23 19 12 14 22 24 32 35 38 40 42 43 44
19 18 18 18 18 19 17 17 18 18 19 20 20 19 18 17 17 16 16 17 19 21 22 22 23 22 20 18 18 19 22 23 22 19 14 12 15 19 25 34 35 33 35
18 19 19 19 18 18 18 18 18 20 21 20 18 18 18 18 15 13 15 16 19 23 24 24 23 22 22 22 19 21 22 22 21 19 19 18 17 16 14 16 18 23 27
19 19 19 19 19 18 17 16 16 17 19 20 21 22 20 17 17 17 15 14 17 22 23 24 23 21 22 20 21 23 23 24 22 15 22 26 23 25 23 20 17 22 25
20 19 19 18 17 16 17 17 16 17 18 20 21 23 21 20 19 19 18 17 17 18 20 22 23 21 22 22 23 25 24 24 24 25 26 32 25 28 25 24 23 21 23
20 19 18 18 18 17 16 15 15 16 18 20 21 21 21 21 20 17 19 20 21 22 23 24 24 24 22 24 24 26 29 31 31 28 22 24 24 27 25 27 22 21 20
19 18 18 18 18 16 16 15 15 17 19 20 22 20 21 23 21 19 21 22 23 25 24 25 25 25 27 25 25 27 27 25 28 26 23 19 23 22 23 26 23 20 18
19 18 18 17 17 17 17 17 18 19 20 20 22 23 23 21 19 19 21 24 27 27 26 27 25 24 23 24 24 23 23 22 20 17 5 10 11 15 10 13 12 19 21

GFSMA_850_spd_117.txt.gz
Wind_Speed
28 28 27 27 25 25 24 23 25 25 25 24 21 24 24 23 23 22 20 20 22 25 26 26 24 25 23 21 22 22 20 19 19 18 18 17 16 15 13 12 12 12 12
29 31 30 30 29 29 28 25 26 27 27 25 22 21 21 21 21 22 21 19 21 23 23 26 28 28 27 25 24 24 24 22 21 21 21 21 20 19 18 16 15 14 14
28 28 32 32 30 27 28 28 29 29 27 24 22 21 20 21 21 21 21 23 21 22 25 26 27 28 30 30 28 27 26 25 25 23 23 23 22 22 21 21 18 17 17
24 28 29 31 30 26 25 28 30 31 31 26 22 19 20 21 22 22 23 24 24 25 26 27 30 33 31 31 32 31 30 29 28 26 25 25 23 24 24 24 23 21 20
22 23 26 27 25 29 25 26 26 24 25 24 24 23 23 24 24 24 25 26 27 29 31 32 32 33 39 35 34 33 33 32 32 32 29 28 27 26 25 25 24 24 23
20 21 24 24 28 25 30 30 28 25 25 24 25 27 28 27 27 28 29 29 30 31 32 35 35 36 38 42 42 40 37 35 35 35 35 33 32 31 29 28 28 27 26
18 22 20 19 22 25 26 28 28 28 28 28 26 26 28 29 30 30 30 29 29 30 31 32 36 38 41 43 44 46 44 42 40 39 37 37 37 35 35 33 32 32 29
17 14 14 15 14 16 16 10 21 13 19 17 15 17 18 24 24 14 18 27 31 30 31 31 31 34 39 43 46 45 48 48 47 45 42 39 41 40 38 36 35 35 32
10 10 11 10 10 9 10 12 15 15 15 17 11 9 7 7 24 31 30 32 31 35 36 35 37 35 34 35 38 43 48 49 51 50 48 48 45 40 42 39 38 37 36
9 10 10 11 8 9 14 19 13 12 18 23 18 8 11 18 15 23 25 29 31 32 34 36 39 38 38 39 40 41 39 42 48 52 52 52 49 46 42 44 41 39 38
10 10 7 7 5 4 4 3 9 12 10 14 17 21 19 17 9 15 24 25 32 30 29 31 36 38 39 37 42 45 43 41 41 42 46 47 51 50 46 44 44 44 41
12 13 13 13 10 8 8 8 5 7 8 10 11 14 14 12 16 17 21 28 29 30 29 29 37 40 40 43 43 42 44 43 44 43 42 43 48 55 53 48 46 45 45
10 11 12 12 12 11 9 7 7 9 10 11 11 10 10 10 12 15 19 27 31 36 26 23 19 20 25 26 36 45 45 44 47 45 45 41 43 46 47 50 48 47 45
12 13 14 15 16 16 15 14 14 11 10 11 12 14 15 14 13 12 17 22 31 23 26 30 18 22 18 18 15 27 36 45 43 44 42 40 39 41 43 47 49 46 45
11 12 13 14 15 15 16 16 17 16 16 15 16 15 15 15 15 15 17 16 14 18 23 25 30 36 37 34 27 19 15 27 37 38 39 39 41 44 47 48 47 45 45
14 14 15 15 16 16 16 16 15 14 14 13 13 13 13 14 15 15 17 17 16 17 19 29 35 35 37 36 30 28 20 19 20 23 29 40 42 44 43 42 46 49 44
16 17 17 17 17 17 16 16 16 16 16 16 15 16 16 16 16 16 16 15 16 17 21 30 29 30 30 33 33 29 26 25 15 16 22 24 24 34 38 41 44 44 45
17 18 18 18 17 17 17 17 17 17 17 17 17 17 16 16 16 16 16 16 17 18 19 29 31 30 29 29 29 31 28 27 25 21 12 21 22 22 32 37 41 41 38
18 17 16 17 17 16 17 17 18 19 19 19 19 19 19 18 17 16 15 17 18 19 20 24 30 27 28 27 29 25 25 27 29 26 20 15 13 27 31 31 33 39 38
18 17 18 18 19 19 18 18 18 18 18 17 17 17 18 17 17 17 17 17 17 20 23 24 25 27 26 26 26 28 29 23 23 21 20 18 14 11 11 21 34 42 36
18 18 19 20 20 19 19 18 18 18 19 19 17 16 17 17 16 16 17 17 17 19 22 23 25 26 26 27 27 29 31 31 26 13 20 19 20 18 15 10 9 16 25
19 19 19 20 19 18 18 17 17 17 18 18 18 19 19 17 16 16 15 15 15 18 19 21 25 25 26 25 27 28 31 33 34 27 32 29 25 25 24 23 21 17 14
19 20 20 19 19 18 17 17 15 17 18 18 19 21 21 20 18 18 16 17 19 20 21 22 26 26 27 25 25 28 29 30 31 32 33 36 28 26 21 26 27 25 22
20 21 20 19 19 18 17 16 16 18 18 18 19 21 20 21 21 20 19 23 23 21 21 23 24 26 26 27 26 27 29 31 32 30 26 31 29 28 24 21 22 28 29
20 19 20 19 20 18 17 17 17 19 20 20 20 20 21 23 21 19 20 24 26 27 24 23 23 24 24 23 24 26 28 27 30 32 28 14 16 24 22 15 12 18 27
20 20 19 20 18 18 17 17 18 19 21 21 20 21 21 20 20 19 20 24 29 29 27 29 28 27 26 25 25 24 25 26 26 26 13 19 22 26 19 19 13 11 15